Weight / temperature / moisture sensor readings

 CustID   HiveID   Date   Weight   Temperature   Humidity 
 1  2   2016-12-06 08:19:03  60048  20.6  100.0
 1  2   2016-12-04 09:01:52  59344  28.6  100.0
 1  2   2016-11-28 20:11:35  59552  30.8  100.0
 1  2   2016-11-28 11:53:30  59392  35.2  100.0
 1  2   2016-11-28 10:47:36  59408  35.2  100.0
 1  2   2016-11-27 19:01:40  59760  38.2  100.0
 1  2   2016-11-27 16:44:41  59680  38.5  100.0
 1  2   2016-11-27 15:32:46  59680  39.3  100.0
 1  2   2016-11-27 14:12:32  59600  40.3  100.0
 1  2   2016-11-26 19:47:04  59744  40.2  100.0
 1  2   2016-11-26 18:17:41  59744  40.3  100.0
 1  2   2016-11-26 18:12:05  59696  40.3  100.0
 1  2   2016-11-26 15:19:37  59680  43.2  100.0
 1  2   2016-11-26 13:38:41  59744  41.8  100.0
 1  2   2016-11-26 12:56:58  59744  41.6  100.0
 1  2   2016-11-25 15:16:59  59840  41.0  100.0
 1  2   2016-11-25 13:59:42  59824  41.2  100.0
 1  2   2016-11-25 13:38:14  59808  41.3  100.0
 1  2   2016-11-25 12:58:14  59872  40.9  100.0
 1  2   2016-11-23 21:38:29  59600  37.1  100.0
 1  2   2016-11-23 21:16:39  59600  38.2  100.0
 1  2   2016-11-23 21:03:15  59600  38.2  100.0
 1  2   2016-11-23 20:55:11  59600  38.2  100.0
 1  2   2016-11-23 20:48:27  59904  38.9  100.0
 1  2   2016-11-23 20:28:11  59904  38.9  100.0
 1  2   2016-11-23 20:19:10  59680  39.1  100.0
 1  2   2016-11-23 20:04:46  59792  39.5  100.0
 1  2   2016-11-23 19:45:38  59584  39.5  100.0
 1  2   2016-11-23 19:25:28  59792  39.2  100.0
 1  2   2016-11-23 18:51:24  59568  38.8  100.0
 1  2   2016-11-23 18:12:42  59648  39.5  100.0
 1  2   2016-11-23 15:57:14  59616  46.9  100.0
 1  2   2016-11-23 13:48:29  59600  47.3  100.0
 1  2   2016-11-23 12:38:14  59600  46.4  100.0
 1  2   2016-11-23 12:26:30  59584  46.2  100.0
 1  2   2016-11-23 11:58:51  59568  46.1  100.0
 1  2   2016-11-23 11:47:06  59600  46.5  100.0
 1  2   2016-11-23 10:32:44  59664  45.1  100.0
 1  2   2016-11-21 21:28:53  59712  40.0  100.0
 1  2   2016-11-21 21:23:13  59808  39.8  100.0
 1  2   2016-11-21 21:17:30  59728  39.8  100.0
 1  2   2016-11-21 20:55:01  59760  40.4  100.0
 1  2   2016-11-21 19:38:17  59808  41.5  100.0
 1  2   2016-11-21 19:16:10  59728  41.7  100.0
 1  2   2016-11-21 18:57:14  59920  41.5  100.0
 1  2   2016-11-21 17:39:36  59824  42.9  100.0
 1  2   2016-11-21 17:16:50  0   0.0   0.0
 1  2   2016-11-21 17:05:38  59600  44.9  100.0
 1  2   2016-11-21 17:00:07  59744  45.3  100.0
 1  2   2016-11-21 14:51:50  59696  49.3  100.0
 1  2   2016-11-21 14:22:26  59648  49.1  100.0
 1  2   2016-11-21 12:46:10  59696  44.5  100.0
 1  2   2016-11-21 11:13:19  59696  42.5  100.0
 1  2   2016-11-21 10:07:27  59728  40.0  100.0
 1  2   2016-11-21 10:00:10  59824  39.8  100.0
 1  2   2016-11-19 21:29:59  60208  32.5  100.0
 1  2   2016-11-19 21:00:03  60400  32.0  100.0
 1  2   2016-11-19 20:24:15  60288  32.2  100.0
 1  2   2016-11-19 18:56:23  60032  33.2  100.0
 1  2   2016-11-19 18:03:34  60048  34.8  100.0
 1  2   2016-11-19 17:44:01  60000  34.9  100.0
 1  2   2016-11-19 17:14:35  60000  35.5  100.0
 1  2   2016-11-19 16:54:27  60064  36.4  100.0
 1  2   2016-11-19 16:34:26  60080  38.2  100.0
 1  2   2016-11-19 14:39:12  59968  39.9  100.0
 1  2   2016-11-19 14:23:05  59968  39.8  100.0
 1  2   2016-11-19 12:47:27  59936  39.4  100.0
 1  2   2016-11-17 22:16:59  60080  41.1  100.0
 1  2   2016-11-17 22:11:27  59920  41.2  100.0
 1  2   2016-11-17 22:06:08  60144  41.2  100.0
 1  2   2016-11-17 22:00:49  60144  41.3  100.0
 1  2   2016-11-17 21:55:28  60032  41.3  100.0
 1  2   2016-11-17 21:50:08  0   0.0   0.0
 1  2   2016-11-17 21:44:50  60032  41.3  100.0
 1  2   2016-11-17 21:39:30  60032  41.3  100.0
 1  2   2016-11-17 21:34:11  60032  41.3  100.0
 1  2   2016-11-17 21:28:51  60048  41.3  100.0
 1  2   2016-11-17 21:23:32  60080  41.3  100.0
 1  2   2016-11-17 21:18:11  60080  41.3  100.0
 1  2   2016-11-17 21:12:53  59968  41.4  100.0
 1  2   2016-11-17 21:07:31  60128  41.4  100.0
 1  2   2016-11-17 21:02:12  60160  41.4  100.0
 1  2   2016-11-17 20:56:53  60016  41.7  100.0
 1  2   2016-11-17 20:51:35  0   0.0   0.0
 1  2   2016-11-17 20:46:16  60016  41.7  100.0
 1  2   2016-11-17 20:40:57  0   0.0   0.0
 1  2   2016-11-17 20:35:38  60016  41.7  100.0
 1  2   2016-11-17 20:30:18  60176  42.1  100.0
 1  2   2016-11-17 20:24:55  0   0.0   0.0
 1  2   2016-11-17 20:19:31  60112  42.1  100.0
 1  2   2016-11-17 20:14:08  60176  42.3  100.0
 1  2   2016-11-17 20:08:49  60176  42.3  100.0
 1  2   2016-11-17 20:03:30  60176  42.3  100.0
 1  2   2016-11-17 19:58:10  60064  42.4  100.0
 1  2   2016-11-17 19:52:50  60240  42.3  100.0
 1  2   2016-11-17 19:47:29  0   0.0   0.0
 1  2   2016-11-17 19:42:04  60112  41.9  100.0
 1  2   2016-11-17 19:36:28  60112  41.9  100.0
 1  2   2016-11-17 19:31:08  60176  41.8  100.0
 1  2   2016-11-17 19:25:47  60208  41.7  100.0
 1  2   2016-11-17 19:20:27  60240  41.6  100.0
 1  2   2016-11-17 19:15:06  60192  41.6  100.0
 1  2   2016-11-17 19:09:48  0   0.0   0.0
 1  2   2016-11-17 19:04:28  60096  41.5  100.0
 1  2   2016-11-17 18:59:08  60144  41.4  100.0
 1  2   2016-11-17 18:53:47  60000  41.4  100.0
 1  2   2016-11-17 18:48:30  60000  42.2  100.0
 1  2   2016-11-17 18:43:11  60000  42.2  100.0
 1  2   2016-11-17 18:37:52  60000  42.2  100.0
 1  2   2016-11-17 18:32:30  60160  42.6  100.0
 1  2   2016-11-17 18:27:10  0   0.0   0.0
 1  2   2016-11-17 18:21:48  60048  42.9  100.0
 1  2   2016-11-17 18:16:26  60144  42.8  100.0
 1  2   2016-11-17 18:11:06  60144  42.8  100.0
 1  2   2016-11-17 18:05:46  60144  42.8  100.0
 1  2   2016-11-17 18:00:27  60144  42.8  100.0
 1  2   2016-11-17 17:55:03  60080  42.8  100.0
 1  2   2016-11-17 17:49:44  60064  42.8  100.0
 1  2   2016-11-17 17:43:57  0   0.0   0.0
 1  2   2016-11-17 17:38:38  60112  43.6  100.0
 1  2   2016-11-17 17:33:20  60112  43.6  100.0
 1  2   2016-11-17 17:27:39  60112  43.6  100.0
 1  2   2016-11-17 17:22:10  60128  43.9  100.0
 1  2   2016-11-17 17:16:39  60064  44.1  100.0
 1  2   2016-11-17 17:11:00  60128  44.2  100.0
 1  2   2016-11-17 17:05:29  60112  44.2  100.0
 1  2   2016-11-17 16:59:54  60064  44.4  100.0
 1  2   2016-11-17 16:54:07  60128  44.5  100.0
 1  2   2016-11-17 16:48:38  60064  44.6  100.0
 1  2   2016-11-17 16:43:03  60128  44.7  100.0
 1  2   2016-11-17 16:37:31  60112  44.8  100.0
 1  2   2016-11-17 16:31:52  60112  44.9  100.0
 1  2   2016-11-17 16:26:13  60160  44.9  100.0
 1  2   2016-11-17 16:20:41  60112  44.9  100.0
 1  2   2016-11-17 16:15:10  60176  45.0  100.0
 1  2   2016-11-17 16:09:39  60160  45.1  100.0
 1  2   2016-11-17 16:04:11  60096  45.1  100.0
 1  2   2016-11-17 15:58:40  60064  45.1  100.0
 1  2   2016-11-17 15:53:10  60144  45.2  100.0
 1  2   2016-11-17 15:47:42  60160  45.1  100.0
 1  2   2016-11-17 15:42:12  60096  45.1  100.0
 1  2   2016-11-17 15:36:42  60128  45.0  100.0
 1  2   2016-11-17 15:31:03  60192  45.0  100.0
 1  2   2016-11-17 15:25:34  60128  45.1  100.0
 1  2   2016-11-17 15:20:03  60112  45.2  100.0
 1  2   2016-11-17 15:14:31  60176  45.4  100.0
 1  2   2016-11-17 15:08:57  60144  45.6  100.0
 1  2   2016-11-17 15:03:28  60192  45.6  100.0
 1  2   2016-11-17 14:58:00  60064  45.6  100.0
 1  2   2016-11-17 14:52:29  60144  45.6  100.0
 1  2   2016-11-17 14:46:56  60192  45.6  100.0
 1  2   2016-11-17 14:41:25  60144  45.5  100.0
 1  2   2016-11-17 14:35:55  60160  45.5  100.0
 1  2   2016-11-17 14:30:24  60160  45.4  100.0
 1  2   2016-11-17 14:24:53  60096  45.4  100.0
 1  2   2016-11-17 14:19:24  60192  45.4  100.0
 1  2   2016-11-17 14:13:50  60064  45.5  100.0
 1  2   2016-11-17 14:08:19  60032  45.6  100.0
 1  2   2016-11-17 14:02:49  60032  45.6  100.0
 1  2   2016-11-17 13:57:06  60032  45.6  100.0
 1  2   2016-11-17 13:50:05  60032  45.4  100.0
 1  2   2016-11-17 13:44:26  59952  45.6  100.0
 1  2   2016-11-17 13:38:52  60000  45.6  100.0
 1  2   2016-11-17 13:33:20  59984  45.6  100.0
 1  2   2016-11-17 13:27:44  59968  45.6  100.0
 1  2   2016-11-17 13:21:55  59984  45.6  100.0
 1  2   2016-11-17 13:16:24  60000  45.6  100.0
 1  2   2016-11-17 13:10:24  59856  45.8  100.0
 1  2   2016-11-17 13:04:46  59904  45.8  100.0
 1  2   2016-11-17 12:59:15  59904  45.7  100.0
 1  2   2016-11-17 12:53:39  59984  45.8  100.0
 1  2   2016-11-17 12:48:05  60016  45.6  100.0
 1  2   2016-11-17 12:42:34  59936  45.6  100.0
 1  2   2016-11-17 12:36:59  59920  45.6  100.0
 1  2   2016-11-17 12:31:28  59936  45.7  100.0
 1  2   2016-11-17 12:25:56  59952  45.6  100.0
 1  2   2016-11-17 12:20:26  60032  45.7  100.0
 1  2   2016-11-17 12:14:56  59952  45.7  100.0
 1  2   2016-11-17 12:09:26  59920  45.7  100.0
 1  2   2016-11-17 12:03:51  59936  45.5  100.0
 1  2   2016-11-17 11:58:21  60064  45.4  100.0
 1  2   2016-11-17 11:52:48  59920  45.5  100.0
 1  2   2016-11-17 11:47:18  59952  45.5  100.0
 1  2   2016-11-17 11:41:46  59968  45.4  100.0
 1  2   2016-11-17 11:36:06  59968  45.3  100.0
 1  2   2016-11-17 11:30:36  59968  45.1  100.0
 1  2   2016-11-17 11:25:06  59888  44.9  100.0
 1  2   2016-11-17 11:19:36  60000  44.7  100.0
 1  2   2016-11-17 11:14:06  59920  44.5  100.0
 1  2   2016-11-17 11:08:38  59920  44.3  100.0
 1  2   2016-11-17 11:02:48  59920  43.9  100.0
 1  2   2016-11-17 10:57:16  60160  43.5  100.0
 1  2   2016-11-17 10:51:07  60144  43.3  100.0
 1  2   2016-11-17 10:44:38  60048  43.0  100.0
 1  2   2016-11-17 10:38:53  60144  42.8  100.0
 1  2   2016-11-17 10:33:24  60160  42.6  100.0
 1  2   2016-11-17 10:27:54  60144  42.5  100.0
 1  2   2016-11-17 10:22:24  60128  42.3  100.0
 1  2   2016-11-17 10:16:55  60128  42.2  100.0
 1  2   2016-11-17 10:11:26  60240  42.0  100.0
 1  2   2016-11-17 10:05:55  60224  41.8  100.0
 1  2   2016-11-17 10:00:26  60176  41.6  100.0
 1  2   2016-11-17 09:54:56  60144  41.4  100.0
 1  2   2016-11-17 09:49:26  60192  41.1  100.0
 1  2   2016-11-17 09:43:55  60240  40.8  100.0
 1  2   2016-11-17 09:38:25  60208  40.5  100.0
 1  2   2016-11-17 09:32:57  60192  40.2  100.0
 1  2   2016-11-17 09:28:27  60240  40.2  100.0
 1  2   2016-11-17 09:22:33  60112  40.0  100.0
 1  2   2016-11-17 09:12:28  60176  40.1  100.0
 1  2   2016-11-16 09:56:23  59968  39.4  100.0
 1  2   2016-11-16 09:50:43  59952  39.0  100.0
 1  2   2016-11-16 08:44:54  60064  35.0  100.0
 1  2   2016-11-16 08:38:48  60080  34.5  100.0
 1  2   2016-11-16 08:33:00  60032  34.2  100.0
 1  2   2016-11-16 08:27:18  60096  33.8  100.0
 1  2   2016-11-16 08:21:35  60080  33.2  100.0
 1  2   2016-11-16 08:14:40  60096  32.4  100.0
 1  2   2016-11-16 08:08:55  60112  31.9  100.0
 1  2   2016-11-16 08:03:16  60016  31.4  100.0
 1  2   2016-11-16 07:56:57  60016  31.1  100.0
 1  2   2016-11-13 08:40:29  60112  32.1  100.0
 1  2   2016-11-13 08:32:23  59968  31.1  100.0
 1  2   2016-11-13 08:27:01  60000  30.8  100.0
 1  2   2016-11-13 08:16:08  60048  30.4  100.0
 1  2   2016-11-12 10:43:35  59936  38.3  100.0
 1  2   2016-11-12 10:37:50  60000  38.3  100.0
 1  2   2016-11-12 10:32:13  59952  38.0  100.0
 1  2   2016-11-12 10:26:24  60048  38.3  100.0
 1  2   2016-11-12 10:20:40  60048  38.3  100.0
 1  2   2016-11-12 10:14:56  59968  37.9  100.0
 1  2   2016-11-12 10:09:09  59952  38.4  100.0
 1  2   2016-11-12 10:03:28  59984  37.8  100.0
 1  2   2016-11-12 09:57:46  60064  37.8  100.0
 1  2   2016-11-12 08:52:00  60416  31.7  100.0
 1  2   2016-11-12 08:46:17  60512  31.3  100.0
 1  2   2016-11-12 08:40:42  60528  31.0  100.0
 1  2   2016-11-12 08:35:13  60544  30.9  100.0
 1  2   2016-11-12 08:29:41  60592  30.6  100.0
 1  2   2016-11-12 08:24:10  60576  30.2  100.0
 1  2   2016-11-12 08:18:40  60576  29.8  100.0
 1  2   2016-11-12 08:13:08  60576  29.2  100.0
 1  2   2016-11-12 08:07:33  60496  29.0  100.0
 1  2   2016-11-12 08:03:00  60480  28.6  100.0
 1  2   2016-11-12 07:59:13  60416  28.4  100.0
 1  2   2016-11-11 12:09:09  60080  38.4  100.0
 1  2   2016-11-11 12:03:31  60064  38.4  100.0
 1  2   2016-11-11 11:57:57  60016  38.6  100.0
 1  2   2016-11-11 11:51:53  60048  38.2  100.0
 1  2   2016-11-11 11:46:11  59984  37.8  100.0
 1  2   2016-11-11 11:40:39  60128  37.7  100.0
 1  2   2016-11-11 10:34:51  60176  35.2  100.0
 1  2   2016-11-11 10:27:32  60240  35.9  100.0
 1  2   2016-11-11 10:22:01  60144  35.2  100.0
 1  2   2016-11-11 10:16:30  60208  34.1  100.0
 1  2   2016-11-11 10:10:59  60128  34.4  100.0
 1  2   2016-11-11 10:05:29  60208  34.5  100.0
 1  2   2016-11-11 09:59:59  60192  34.3  100.0
 1  2   2016-11-11 09:54:28  60144  34.0  100.0
 1  2   2016-11-11 09:45:44  60288  33.7  100.0
 1  2   2016-11-11 09:38:02  60224  33.3  100.0
 1  2   2016-11-11 09:24:57  60208  32.7  100.0
 1  2   2016-11-11 09:07:33  60304  35.7  100.0
 1  2   2016-11-11 09:00:28  60384  36.1  100.0
 1  2   2016-11-11 08:54:55  60320  36.1  100.0
 1  2   2016-11-11 08:48:15  60336  36.0  100.0
 1  2   2016-11-11 08:42:30  60288  35.9  100.0
 1  2   2016-11-11 08:36:27  60224  35.8  100.0
 1  2   2016-11-11 08:30:46  60160  34.5  100.0
 1  2   2016-11-11 08:25:02  60176  33.6  100.0
 1  2   2016-11-11 08:17:46  60304  32.8  100.0
 1  2   2016-11-11 08:12:02  60224  32.3  100.0
 1  2   2016-11-10 22:42:34  0   0.0   0.0
 1  2   2016-11-10 22:35:59  0   0.0   0.0
 1  2   2016-11-10 22:29:12  60208  37.0  100.0
 1  2   2016-11-10 22:23:43  60208  37.0  100.0
 1  2   2016-11-10 22:18:16  60208  37.0  100.0
 1  2   2016-11-10 22:12:48  60208  37.0  100.0
 1  2   2016-11-10 22:07:23  60240  37.0  100.0
 1  2   2016-11-10 22:01:53  60352  37.0  100.0
 1  2   2016-11-10 21:56:07  60368  37.1  100.0
 1  2   2016-11-10 21:49:52  60368  37.1  100.0
 1  2   2016-11-10 21:43:04  60176  37.2  100.0
 1  2   2016-11-10 21:37:26  60176  37.2  100.0
 1  2   2016-11-10 21:31:57  60240  37.2  100.0
 1  2   2016-11-10 21:26:34  60416  37.0  100.0
 1  2   2016-11-10 21:18:23  60320  36.9  100.0
 1  2   2016-11-10 21:12:57  60320  36.9  100.0
 1  2   2016-11-10 21:06:50  60320  36.9  100.0
 1  2   2016-11-10 21:00:31  60368  36.9  100.0
 1  2   2016-11-10 20:55:11  60128  36.8  100.0
 1  2   2016-11-10 20:49:51  60128  36.8  100.0
 1  2   2016-11-10 20:44:27  60128  36.8  100.0
 1  2   2016-11-10 20:39:04  60336  36.8  100.0
 1  2   2016-11-10 20:33:30  60304  36.7  100.0
 1  2   2016-11-10 20:27:56  60336  36.7  100.0
 1  2   2016-11-10 20:21:46  60368  37.0  100.0
 1  2   2016-11-10 20:16:25  60368  37.0  100.0
 1  2   2016-11-10 20:10:54  60464  37.0  100.0
 1  2   2016-11-10 19:05:24  60320  37.0  100.0
 1  2   2016-11-10 18:59:34  60432  36.8  100.0
 1  2   2016-11-10 18:54:06  60240  36.9  100.0
 1  2   2016-11-10 18:46:22  60352  36.9  100.0
 1  2   2016-11-10 18:40:24  60384  37.4  100.0
 1  2   2016-11-10 18:34:07  0   0.0   0.0
 1  2   2016-11-10 18:26:46  60384  37.4  100.0
 1  2   2016-11-10 18:21:19  60272  37.2  100.0
 1  2   2016-11-10 18:15:54  60336  37.3  100.0
 1  2   2016-11-10 18:10:35  60336  37.3  100.0
 1  2   2016-11-10 18:05:16  60336  37.3  100.0
 1  2   2016-11-10 17:58:54  60256  37.3  100.0
 1  2   2016-11-10 17:53:22  0   0.0   0.0
 1  2   2016-11-10 17:47:17  60192  37.1  100.0
 1  2   2016-11-10 17:40:24  60256  37.1  100.0
 1  2   2016-11-10 17:34:51  60272  37.3  100.0
 1  2   2016-11-10 17:29:03  60272  37.3  100.0
 1  2   2016-11-10 17:23:41  60272  37.6  100.0
 1  2   2016-11-10 17:17:53  60208  37.3  100.0
 1  2   2016-11-10 16:12:12  60224  37.9  100.0
 1  2   2016-11-10 16:06:41  60192  38.1  100.0
 1  2   2016-11-10 14:55:26  60000  38.2  100.0
 1  2   2016-11-10 14:48:30  60064  38.5  100.0
 1  2   2016-11-10 14:42:59  60016  38.4  100.0
 1  2   2016-11-10 14:37:06  60032  38.8  100.0
 1  2   2016-11-10 14:31:36  60016  38.9  100.0
 1  2   2016-11-10 14:26:05  60000  38.6  100.0
 1  2   2016-11-10 14:20:33  60032  38.1  100.0
 1  2   2016-11-10 14:14:53  60016  38.6  100.0
 1  2   2016-11-10 14:09:24  60080  38.3  100.0
 1  2   2016-11-10 14:03:54  60032  37.6  100.0
 1  2   2016-11-10 13:58:24  60016  37.5  100.0
 1  2   2016-11-10 13:52:54  59984  37.4  100.0
 1  2   2016-11-10 13:47:25  60128  38.1  100.0
 1  2   2016-11-10 13:41:52  60160  38.0  100.0
 1  2   2016-11-10 13:36:09  60000  37.6  100.0
 1  2   2016-11-10 13:30:38  60128  37.5  100.0
 1  2   2016-11-10 13:25:00  60048  37.6  100.0
 1  2   2016-11-10 13:19:21  59968  37.6  100.0
 1  2   2016-11-10 13:13:47  60032  37.4  100.0
 1  2   2016-11-10 13:08:14  60032  37.2  100.0
 1  2   2016-11-10 13:02:43  60032  36.8  100.0
 1  2   2016-11-10 12:55:35  60112  36.4  100.0
 1  2   2016-11-10 12:50:02  60224  36.4  100.0
 1  2   2016-11-10 12:44:24  60176  37.1  100.0
 1  2   2016-11-10 12:38:51  60208  37.5  100.0
 1  2   2016-11-10 12:33:20  60192  37.0  100.0
 1  2   2016-11-10 12:27:04  60128  36.6  100.0
 1  2   2016-11-10 12:21:31  60128  37.7  100.0
 1  2   2016-11-10 12:15:55  60048  38.0  100.0
 1  2   2016-11-10 12:09:37  59984  38.1  100.0
 1  2   2016-11-10 12:03:55  59984  37.8  100.0
 1  2   2016-11-10 11:58:23  59984  37.6  100.0
 1  2   2016-11-10 10:52:41  60096  38.2  100.0
 1  2   2016-11-10 10:47:02  60032  38.2  100.0
 1  2   2016-11-10 10:34:36  60064  38.2  100.0
 1  2   2016-11-10 10:29:01  60032  38.2  100.0
 1  2   2016-11-10 10:23:21  60176  38.2  100.0
 1  2   2016-11-10 10:11:48  60160  38.1  100.0
 1  2   2016-11-10 10:06:11  60032  38.0  100.0
 1  2   2016-11-10 10:00:23  60128  37.9  100.0
 1  2   2016-11-10 09:54:47  60160  37.8  100.0
 1  2   2016-11-10 09:48:52  60096  37.9  100.0
 1  2   2016-11-10 09:43:14  60208  37.9  100.0
 1  2   2016-11-10 09:37:41  60160  37.8  100.0
 1  2   2016-11-10 09:32:11  60144  37.8  100.0
 1  2   2016-11-10 09:26:33  60192  37.8  100.0
 1  2   2016-11-10 09:21:03  60176  37.7  100.0
 1  2   2016-11-10 09:15:22  60144  37.6  100.0
 1  2   2016-11-10 09:09:51  60128  37.5  100.0
 1  2   2016-11-10 09:04:21  60160  37.4  100.0
 1  2   2016-11-10 08:58:44  60192  37.4  100.0
 1  2   2016-11-10 08:53:09  60256  37.3  100.0
 1  2   2016-11-10 08:47:38  60176  37.3  100.0
 1  2   2016-11-10 08:42:06  60192  37.2  100.0
 1  2   2016-11-10 08:36:37  60208  37.0  100.0
 1  2   2016-11-10 08:31:08  60144  36.8  100.0
 1  2   2016-11-10 08:25:37  60208  36.5  100.0
 1  2   2016-11-10 08:19:59  60176  36.1  100.0
 1  2   2016-11-10 08:14:03  60224  35.7  100.0
 1  2   2016-11-10 08:08:33  60272  35.1  100.0
 1  2   2016-11-10 08:03:05  60208  34.6  100.0
 1  2   2016-11-09 12:43:07  59872  33.8  100.0
 1  2   2016-11-09 12:36:44  59888  33.7  100.0
 1  2   2016-11-09 12:31:02  59840  33.7  100.0
 1  2   2016-11-09 12:25:16  59808  33.7  100.0
 1  2   2016-11-09 12:19:36  59776  33.7  100.0
 1  2   2016-11-09 12:12:21  59872  33.7  100.0
 1  2   2016-11-09 12:06:31  59856  33.8  100.0
 1  2   2016-11-09 12:00:53  59872  34.0  100.0
 1  2   2016-11-09 11:54:10  59920  34.1  100.0
 1  2   2016-11-09 11:48:17  59712  34.0  100.0
 1  2   2016-11-09 11:42:44  59792  34.0  100.0
 1  2   2016-11-09 11:37:11  59824  34.0  100.0
 1  2   2016-11-09 11:31:24  59776  34.0  100.0
 1  2   2016-11-09 11:25:45  59888  33.9  100.0
 1  2   2016-11-09 11:20:16  59840  34.0  100.0
 1  2   2016-11-09 11:14:45  59872  34.0  100.0
 1  2   2016-11-09 11:09:15  59792  33.8  100.0
 1  2   2016-11-09 11:03:46  59792  33.7  100.0
 1  2   2016-11-09 10:58:13  59824  33.5  100.0
 1  2   2016-11-09 10:52:08  59952  33.6  100.0
 1  2   2016-11-09 10:46:39  59920  33.7  100.0
 1  2   2016-11-09 10:40:55  59968  33.8  100.0
 1  2   2016-11-09 10:35:25  59984  33.7  100.0
 1  2   2016-11-09 10:29:55  59920  33.7  100.0
 1  2   2016-11-09 10:24:26  59968  33.8  100.0
 1  2   2016-11-09 10:18:39  60032  33.8  100.0
 1  2   2016-11-09 10:11:47  59920  33.7  100.0
 1  2   2016-11-09 10:06:12  60032  33.8  100.0
 1  2   2016-11-09 10:00:01  60016  33.7  100.0
 1  2   2016-11-09 09:53:01  59904  33.6  100.0
 1  2   2016-11-09 09:47:12  59904  33.4  100.0
 1  2   2016-11-09 09:41:35  59984  33.3  100.0
 1  2   2016-11-09 09:35:56  59952  33.1  100.0
 1  2   2016-11-09 09:30:27  60000  33.1  100.0
 1  2   2016-11-09 09:24:23  60064  33.0  100.0
 1  2   2016-11-09 09:18:52  60048  32.9  100.0
 1  2   2016-11-09 09:13:21  60032  32.7  100.0
 1  2   2016-11-09 09:07:51  60112  32.4  100.0
 1  2   2016-11-09 09:02:12  60096  32.3  100.0
 1  2   2016-11-09 08:56:43  60144  32.1  100.0
 1  2   2016-11-09 08:51:13  60176  32.0  100.0
 1  2   2016-11-09 08:45:43  60240  31.9  100.0
 1  2   2016-11-09 08:40:13  60224  31.5  100.0
 1  2   2016-11-09 08:34:44  60256  31.1  100.0
 1  2   2016-11-09 08:29:15  60240  30.7  100.0
 1  2   2016-11-09 08:23:44  60320  29.9  100.0
 1  2   2016-11-09 08:18:18  60256  29.2  100.0
 1  2   2016-11-09 08:16:16  60224  29.1  100.0
 1  2   2016-11-08 20:00:31  60192  33.2  100.0
 1  2   2016-11-08 19:53:59  60192  33.2  100.0
 1  2   2016-11-08 19:48:22  60192  33.2  100.0
 1  2   2016-11-08 19:43:01  60176  33.2  100.0
 1  2   2016-11-08 19:37:41  60048  33.4  100.0
 1  2   2016-11-08 19:32:21  59968  33.4  100.0
 1  2   2016-11-08 19:27:02  0   0.0   0.0
 1  2   2016-11-08 19:21:43  60064  33.7  100.0
 1  2   2016-11-08 19:16:22  60112  33.8  100.0
 1  2   2016-11-08 19:11:01  0   0.0   0.0
 1  2   2016-11-08 19:05:42  60112  33.8  100.0
 1  2   2016-11-08 19:00:24  0   0.0   0.0
 1  2   2016-11-08 18:55:05  60160  34.0  100.0
 1  2   2016-11-08 18:49:44  60032  34.0  100.0
 1  2   2016-11-08 17:42:59  60112  34.1  100.0
 1  2   2016-11-08 17:29:58  60064  34.5  100.0
 1  2   2016-11-08 17:24:27  60080  34.6  100.0
 1  2   2016-11-08 17:18:49  60096  34.6  100.0
 1  2   2016-11-08 17:13:18  60128  34.8  100.0
 1  2   2016-11-08 17:07:48  60064  34.8  100.0
 1  2   2016-11-08 17:02:17  60032  34.9  100.0
 1  2   2016-11-08 16:55:23  60096  34.9  100.0
 1  2   2016-11-08 16:49:52  60064  34.9  100.0
 1  2   2016-11-08 16:44:20  60080  34.9  100.0
 1  2   2016-11-08 16:38:37  60048  35.0  100.0
 1  2   2016-11-08 16:33:03  60032  35.0  100.0
 1  2   2016-11-08 16:27:32  60048  35.0  100.0
 1  2   2016-11-08 16:21:59  60128  35.0  100.0
 1  2   2016-11-08 16:16:28  60080  35.2  100.0
 1  2   2016-11-08 16:10:47  60048  35.2  100.0
 1  2   2016-11-08 16:05:17  60064  35.2  100.0
 1  2   2016-11-08 15:59:46  60016  35.1  100.0
 1  2   2016-11-08 15:54:15  60096  35.1  100.0
 1  2   2016-11-08 15:48:44  60016  35.1  100.0
 1  2   2016-11-08 15:42:14  60016  34.9  100.0
 1  2   2016-11-08 15:36:38  60032  34.7  100.0
 1  2   2016-11-08 15:30:59  60048  34.7  100.0
 1  2   2016-11-08 15:25:29  60032  34.9  100.0
 1  2   2016-11-08 15:20:00  60080  34.9  100.0
 1  2   2016-11-08 15:14:30  60032  34.8  100.0
 1  2   2016-11-08 15:08:58  60096  34.8  100.0
 1  2   2016-11-08 15:03:28  60048  34.7  100.0
 1  2   2016-11-08 14:57:58  59968  34.6  100.0
 1  2   2016-11-08 14:52:13  60064  34.6  100.0
 1  2   2016-11-08 14:46:42  60096  34.7  100.0
 1  2   2016-11-08 14:41:07  59952  34.7  100.0
 1  2   2016-11-08 14:35:35  60048  34.5  100.0
 1  2   2016-11-08 14:30:04  60112  34.5  100.0
 1  2   2016-11-08 14:24:32  60096  34.5  100.0
 1  2   2016-11-08 14:19:00  60064  34.5  100.0
 1  2   2016-11-08 14:13:28  60000  34.4  100.0
 1  2   2016-11-08 14:07:10  60144  34.5  100.0
 1  2   2016-11-08 14:01:39  60080  34.7  100.0
 1  2   2016-11-08 13:56:09  60176  34.7  100.0
 1  2   2016-11-08 13:50:39  60112  34.7  100.0
 1  2   2016-11-08 13:45:07  60112  34.8  100.0
 1  2   2016-11-08 13:39:37  60112  34.9  100.0
 1  2   2016-11-08 13:34:04  60144  34.9  100.0
 1  2   2016-11-08 13:28:23  60144  35.0  100.0
 1  2   2016-11-08 13:22:50  60128  35.0  100.0
 1  2   2016-11-08 13:17:13  60112  34.9  100.0
 1  2   2016-11-08 13:11:43  60096  34.7  100.0
 1  2   2016-11-08 13:06:11  60080  34.5  100.0
 1  2   2016-11-08 13:00:36  60048  34.3  100.0
 1  2   2016-11-08 12:55:06  60096  34.0  100.0
 1  2   2016-11-08 12:48:38  60128  33.9  100.0
 1  2   2016-11-08 12:43:08  60144  33.9  100.0
 1  2   2016-11-08 12:37:28  60208  33.8  100.0
 1  2   2016-11-08 12:31:53  60160  33.8  100.0
 1  2   2016-11-08 12:26:15  60096  33.6  100.0
 1  2   2016-11-08 12:20:36  60160  33.5  100.0
 1  2   2016-11-08 12:15:00  60208  33.3  100.0
 1  2   2016-11-08 12:09:29  60160  33.3  100.0
 1  2   2016-11-08 12:03:05  60176  33.3  100.0
 1  2   2016-11-08 11:57:07  60256  33.3  100.0
 1  2   2016-11-08 11:51:12  60240  33.2  100.0
 1  2   2016-11-08 11:44:11  60176  33.3  100.0
 1  2   2016-11-08 11:38:32  60224  33.2  100.0
 1  2   2016-11-08 11:32:26  60224  33.2  100.0
 1  2   2016-11-08 11:26:57  60240  33.1  100.0
 1  2   2016-11-08 11:21:12  60208  33.0  100.0
 1  2   2016-11-08 11:15:32  60240  32.8  100.0
 1  2   2016-11-08 11:09:45  60240  32.7  100.0
 1  2   2016-11-08 11:02:52  60400  32.4  100.0
 1  2   2016-11-08 10:57:05  60576  32.2  100.0
 1  2   2016-11-08 10:49:14  60592  32.1  100.0
 1  2   2016-11-08 10:47:09  60672  32.1  100.0
 1  2   2016-11-08 10:41:36  60688  32.0  100.0
 1  2   2016-11-08 10:35:40  60672  31.9  100.0
 1  2   2016-11-08 10:30:13  60640  31.9  100.0
 1  2   2016-11-08 10:23:56  60704  31.8  100.0
 1  2   2016-11-08 10:20:55  60672  31.9  100.0
 1  2   2016-11-08 10:14:30  60640  31.6  100.0
 1  2   2016-11-08 10:09:04  60720  31.6  100.0
 1  2   2016-11-08 10:02:25  60688  31.5  100.0
 1  2   2016-11-08 09:56:53  60704  31.3  100.0
 1  2   2016-11-08 09:50:43  60656  30.8  100.0
 1  2   2016-11-08 09:45:12  60656  30.8  100.0
 1  2   2016-11-08 09:38:23  60640  30.4  100.0
 1  2   2016-11-08 09:32:55  60608  29.8  100.0
 1  2   2016-11-08 09:26:34  60592  29.3  100.0
 1  2   2016-11-08 09:22:50  60544  29.2  100.0
 1  2   2016-11-08 09:19:20  60560  29.2  100.0
 1  2   2016-11-08 09:16:05  60544  29.1  100.0
 1  2   2016-11-08 09:05:54  60512  28.7  100.0
 1  2   2016-11-08 08:55:11  60544  28.2  100.0
 1  2   2016-11-08 08:50:57  60512  27.9  100.0
 1  2   2016-11-08 08:49:09  60496  27.8  100.0
 1  2   2016-11-08 08:47:23  60512  27.7  100.0
 1  2   2016-11-07 10:53:38  60752  30.9  100.0
 1  2   2016-11-07 10:26:54  60784  32.4  100.0
 1  2   2016-11-07 10:21:24  60688  32.2  100.0
 1  2   2016-11-07 10:03:59  60656  31.6  100.0
 1  2   2016-11-07 09:56:17  60688  31.5  100.0
 1  2   2016-11-07 09:46:36  60720  31.3  100.0
 1  2   2016-11-07 09:37:27  60656  31.4  100.0
 1  2   2016-11-07 09:23:20  60672  31.9  100.0
 1  2   2016-11-07 08:44:15  60608  30.7  100.0
 1  2   2016-11-06 10:34:13  59888  35.7  100.0
 1  2   2016-11-06 10:25:46  59904  35.7  100.0
 1  2   2016-11-06 10:11:24  59920  34.2  100.0
 1  2   2016-11-06 10:04:20  60000  33.6  100.0
 1  2   2016-11-06 09:42:28  60032  33.0  100.0
 1  2   2016-11-06 08:49:21  60032  31.5  100.0
 1  2   2016-11-06 08:43:59  59968  31.2  100.0
 1  2   2016-11-06 08:28:35  60016  31.0  100.0
 1  2   2016-11-06 08:25:05  60000  30.9  100.0
 1  2   2016-11-05 10:22:07  60144  41.9  100.0
 1  2   2016-11-05 10:16:48  60144  41.9  100.0
 1  2   2016-11-05 10:11:17  60240  41.5  100.0
 1  2   2016-11-05 09:36:36  60160  40.8  100.0
 1  2   2016-11-05 09:17:22  60112  40.1  100.0
 1  2   2016-11-05 08:45:18  60096  39.7  100.0
 1  2   2016-11-05 00:11:37  59600  44.4  100.0
 1  2   2016-11-05 00:06:20  59760  44.4  100.0
 1  2   2016-11-05 00:01:01  0   0.0   0.0
 1  2   2016-11-04 23:55:40  59552  44.5  100.0
 1  2   2016-11-04 23:50:21  59520  44.5  100.0
 1  2   2016-11-04 23:45:01  59712  44.7  100.0
 1  2   2016-11-04 23:39:43  59712  44.7  100.0
 1  2   2016-11-04 23:34:24  59712  44.7  100.0
 1  2   2016-11-04 23:29:07  59712  44.7  100.0
 1  2   2016-11-04 23:23:48  59712  44.7  100.0
 1  2   2016-11-04 23:18:27  59600  44.7  100.0
 1  2   2016-11-04 23:13:09  59712  44.7  100.0
 1  2   2016-11-04 23:07:51  59392  44.6  100.0
 1  2   2016-11-04 23:02:32  0   0.0   0.0
 1  2   2016-11-04 22:57:11  59392  44.6  100.0
 1  2   2016-11-04 22:51:51  59392  44.6  100.0
 1  2   2016-11-04 22:46:31  59664  44.5  100.0
 1  2   2016-11-04 22:41:12  59856  44.5  100.0
 1  2   2016-11-04 22:35:52  59856  44.5  100.0
 1  2   2016-11-04 22:30:34  59632  44.5  100.0
 1  2   2016-11-04 22:25:12  59632  44.5  100.0
 1  2   2016-11-04 22:19:54  0   0.0   0.0
 1  2   2016-11-04 22:14:33  59584  44.4  100.0
 1  2   2016-11-04 22:09:13  59584  44.4  100.0
 1  2   2016-11-04 22:03:50  59584  44.4  100.0
 1  2   2016-11-04 21:58:32  0   0.0   0.0
 1  2   2016-11-04 21:53:10  59600  44.4  100.0
 1  2   2016-11-04 21:47:50  0   0.0   0.0
 1  2   2016-11-04 21:42:28  59744  44.7  100.0
 1  2   2016-11-04 21:37:10  0   0.0   0.0
 1  2   2016-11-04 21:31:51  0   0.0   0.0
 1  2   2016-11-04 21:26:33  59744  44.7  100.0
 1  2   2016-11-04 21:21:16  0   0.0   0.0
 1  2   2016-11-04 21:15:55  0   0.0   0.0
 1  2   2016-11-04 21:10:35  59744  44.7  100.0
 1  2   2016-11-04 21:05:15  59680  44.9  100.0
 1  2   2016-11-04 20:59:57  59776  44.8  100.0
 1  2   2016-11-04 20:54:37  59776  44.8  100.0
 1  2   2016-11-04 20:49:17  59568  44.9  100.0
 1  2   2016-11-04 20:43:59  0   0.0   0.0
 1  2   2016-11-04 20:38:39  59600  45.1  100.0
 1  2   2016-11-04 20:33:19  0   0.0   0.0
 1  2   2016-11-04 20:27:58  59536  45.1  100.0
 1  2   2016-11-04 20:22:37  0   0.0   0.0
 1  2   2016-11-04 20:17:10  59584  44.9  100.0
 1  2   2016-11-04 20:11:50  59584  44.9  100.0
 1  2   2016-11-04 20:06:29  59584  44.9  100.0
 1  2   2016-11-04 20:01:10  59584  44.9  100.0
 1  2   2016-11-04 19:55:49  59552  44.9  100.0
 1  2   2016-11-04 19:50:32  59328  44.8  100.0
 1  2   2016-11-04 19:45:12  59392  44.8  100.0
 1  2   2016-11-04 19:39:52  59488  44.9  100.0
 1  2   2016-11-04 19:34:33  59488  44.9  100.0
 1  2   2016-11-04 19:29:10  0   0.0   0.0
 1  2   2016-11-04 19:23:50  59488  44.9  100.0
 1  2   2016-11-04 19:18:29  0   0.0   0.0
 1  2   2016-11-04 19:13:09  0   0.0   0.0
 1  2   2016-11-04 19:07:47  59488  44.9  100.0
 1  2   2016-11-04 19:02:24  59488  44.9  100.0
 1  2   2016-11-04 18:57:02  59648  44.9  100.0
 1  2   2016-11-04 18:51:41  59600  45.0  100.0
 1  2   2016-11-04 18:46:18  59664  45.0  100.0
 1  2   2016-11-04 18:40:56  0   0.0   0.0
 1  2   2016-11-04 18:35:36  0   0.0   0.0
 1  2   2016-11-04 18:30:14  59872  44.9  100.0
 1  2   2016-11-04 18:24:50  59872  44.9  100.0
 1  2   2016-11-04 18:19:31  59872  44.9  100.0
 1  2   2016-11-04 18:14:10  59872  44.9  100.0
 1  2   2016-11-04 18:08:49  59872  44.9  100.0
 1  2   2016-11-04 18:03:24  59760  44.9  100.0
 1  2   2016-11-04 17:58:02  59648  45.4  100.0
 1  2   2016-11-04 17:52:38  59648  45.4  100.0
 1  2   2016-11-04 17:47:16  59648  45.4  100.0
 1  2   2016-11-04 17:41:55  0   0.0   0.0
 1  2   2016-11-04 17:36:28  59664  45.3  100.0
 1  2   2016-11-04 17:31:05  59504  45.3  100.0
 1  2   2016-11-04 17:25:44  59504  45.3  100.0
 1  2   2016-11-04 17:20:23  59632  45.3  100.0
 1  2   2016-11-04 17:14:54  59632  45.3  100.0
 1  2   2016-11-04 17:09:30  59568  45.4  100.0
 1  2   2016-11-04 17:04:07  60032  45.5  100.0
 1  2   2016-11-04 16:58:45  59552  45.5  100.0
 1  2   2016-11-04 16:53:21  59568  45.5  100.0
 1  2   2016-11-04 16:47:58  0   0.0   0.0
 1  2   2016-11-04 16:42:38  59600  46.0  100.0
 1  2   2016-11-04 16:37:18  59600  46.0  100.0
 1  2   2016-11-04 16:31:58  59504  46.4  100.0
 1  2   2016-11-04 16:26:37  59552  46.4  100.0
 1  2   2016-11-04 16:21:16  59600  46.6  100.0
 1  2   2016-11-04 16:15:47  59568  47.2  100.0
 1  2   2016-11-04 16:10:11  59568  47.2  100.0
 1  2   2016-11-04 16:04:40  59488  47.3  100.0
 1  2   2016-11-04 15:58:29  59600  47.5  100.0
 1  2   2016-11-04 15:53:05  0   0.0   0.0
 1  2   2016-11-04 15:47:06  59584  48.1  100.0
 1  2   2016-11-04 15:41:30  59472  48.1  100.0
 1  2   2016-11-04 15:36:00  59472  48.3  100.0
 1  2   2016-11-04 15:30:11  59488  48.0  100.0
 1  2   2016-11-04 15:24:34  59456  48.3  100.0
 1  2   2016-11-04 15:19:01  59584  48.3  100.0
 1  2   2016-11-04 15:13:05  59536  48.2  100.0
 1  2   2016-11-04 15:07:32  59488  48.2  100.0
 1  2   2016-11-04 15:02:02  59504  48.2  100.0
 1  2   2016-11-04 14:56:29  59504  48.2  100.0
 1  2   2016-11-04 14:50:33  59472  48.4  100.0
 1  2   2016-11-04 14:44:58  59504  48.3  100.0
 1  2   2016-11-04 14:39:28  59536  48.1  100.0
 1  2   2016-11-04 14:33:58  59504  48.2  100.0
 1  2   2016-11-04 14:28:18  59424  48.1  100.0
 1  2   2016-11-04 14:22:47  59536  48.2  100.0
 1  2   2016-11-04 14:16:15  59568  48.3  100.0
 1  2   2016-11-04 14:10:36  59600  48.5  100.0
 1  2   2016-11-04 14:05:04  59568  48.5  100.0
 1  2   2016-11-04 13:59:34  59536  48.5  100.0
 1  2   2016-11-04 13:54:05  59552  48.2  100.0
 1  2   2016-11-04 13:48:31  59600  48.3  100.0
 1  2   2016-11-04 13:42:52  59648  48.7  100.0
 1  2   2016-11-04 13:37:19  59568  48.6  100.0
 1  2   2016-11-04 13:31:49  59616  48.9  100.0
 1  2   2016-11-04 13:26:20  59568  48.7  100.0
 1  2   2016-11-04 13:20:51  59600  48.9  100.0
 1  2   2016-11-04 13:15:20  59600  48.8  100.0
 1  2   2016-11-04 13:09:51  59664  48.7  100.0
 1  2   2016-11-04 13:04:19  59568  48.7  100.0
 1  2   2016-11-04 12:58:47  59600  48.4  100.0
 1  2   2016-11-04 12:53:16  59568  48.3  100.0
 1  2   2016-11-04 12:47:45  59648  47.8  100.0
 1  2   2016-11-04 12:42:14  59664  48.0  100.0
 1  2   2016-11-04 12:36:42  59632  48.0  100.0
 1  2   2016-11-04 12:31:12  59664  48.0  100.0
 1  2   2016-11-04 12:25:36  59728  47.9  100.0
 1  2   2016-11-04 12:19:59  59568  47.8  100.0
 1  2   2016-11-04 12:14:30  59632  47.6  100.0
 1  2   2016-11-04 12:09:00  59728  47.7  100.0
 1  2   2016-11-04 12:03:29  59600  47.6  100.0
 1  2   2016-11-04 11:57:58  59744  47.7  100.0
 1  2   2016-11-04 11:52:25  59648  47.7  100.0
 1  2   2016-11-04 11:46:54  59696  47.7  100.0
 1  2   2016-11-04 11:41:24  59696  47.4  100.0
 1  2   2016-11-04 11:34:39  59680  47.2  100.0
 1  2   2016-11-04 11:29:06  59664  47.1  100.0
 1  2   2016-11-04 11:22:05  59696  47.0  100.0
 1  2   2016-11-04 11:15:46  59680  46.8  100.0
 1  2   2016-11-04 11:08:50  59664  46.5  100.0
 1  2   2016-11-04 11:03:06  59648  46.2  100.0
 1  2   2016-11-04 10:57:32  59600  46.3  100.0
 1  2   2016-11-04 10:51:48  59616  46.1  100.0
 1  2   2016-11-04 10:46:15  59632  45.9  100.0
 1  2   2016-11-04 10:40:42  59616  45.9  100.0
 1  2   2016-11-04 10:35:11  59664  45.9  100.0
 1  2   2016-11-04 10:29:42  59632  45.8  100.0
 1  2   2016-11-04 10:24:12  59600  45.6  100.0
 1  2   2016-11-04 10:18:42  59568  45.4  100.0
 1  2   2016-11-04 10:13:00  59600  45.2  100.0
 1  2   2016-11-04 10:07:29  59616  44.9  100.0
 1  2   2016-11-04 10:01:55  59616  44.6  100.0
 1  2   2016-11-04 09:56:20  59648  44.1  100.0
 1  2   2016-11-04 09:50:43  59600  43.8  100.0
 1  2   2016-11-04 09:45:13  59680  43.4  100.0
 1  2   2016-11-04 09:39:43  59632  42.9  100.0
 1  2   2016-11-04 09:34:14  59584  42.0  100.0
 1  2   2016-11-04 09:28:44  59632  41.6  100.0
 1  2   2016-11-04 09:23:07  59664  41.3  100.0
 1  2   2016-11-04 09:17:38  59648  40.9  100.0
 1  2   2016-11-04 09:12:07  59648  40.2  100.0
 1  2   2016-11-04 09:06:37  59696  39.4  100.0
 1  2   2016-11-04 09:01:05  59808  38.8  100.0
 1  2   2016-11-04 08:55:35  59728  38.4  100.0
 1  2   2016-11-04 08:49:54  59792  37.5  100.0
 1  2   2016-11-04 08:44:26  59696  35.9  100.0
 1  2   2016-11-04 08:38:55  59744  35.5  100.0
 1  2   2016-11-04 08:33:25  59728  34.8  100.0
 1  2   2016-11-04 08:27:51  59808  34.1  100.0
 1  2   2016-11-04 08:22:21  59728  33.4  100.0
 1  2   2016-11-04 08:16:51  59760  33.0  100.0
 1  2   2016-11-04 08:11:22  59744  32.2  100.0
 1  2   2016-11-04 08:05:52  59760  31.6  100.0
 1  2   2016-11-04 08:00:20  59728  30.6  100.0
 1  2   2016-11-04 07:54:16  59712  29.4  100.0
 1  2   2016-11-04 07:48:44  59728  28.6  100.0
 1  2   2016-11-04 07:42:54  59664  28.1  100.0
 1  2   2016-11-04 00:08:39  59728   0.0   0.0
 1  2   2016-11-04 00:03:20  59744   0.0   0.0
 1  2   2016-11-03 23:58:01  59776   0.0   0.0
 1  2   2016-11-03 23:52:41  59760   0.0   0.0
 1  2   2016-11-03 23:47:22  0   0.0   0.0
 1  2   2016-11-03 23:42:03  59632   0.0   0.0
 1  2   2016-11-03 23:36:45  59632   0.0   0.0
 1  2   2016-11-03 23:31:25  59568   0.0   0.0
 1  2   2016-11-03 23:26:03  59616   0.0   0.0
 1  2   2016-11-03 23:20:44  0   0.0   0.0
 1  2   2016-11-03 23:15:26  0   0.0   0.0
 1  2   2016-11-03 23:10:08  59712   0.0   0.0
 1  2   2016-11-03 23:04:51  59712   0.0   0.0
 1  2   2016-11-03 22:59:32  59712   0.0   0.0
 1  2   2016-11-03 22:54:13  0   0.0   0.0
 1  2   2016-11-03 22:48:54  59712   0.0   0.0
 1  2   2016-11-03 22:43:35  59504   0.0   0.0
 1  2   2016-11-03 22:38:18  59504   0.0   0.0
 1  2   2016-11-03 22:32:56  59600   0.0   0.0
 1  2   2016-11-03 22:27:38  59696   0.0   0.0
 1  2   2016-11-03 22:22:20  59696   0.0   0.0
 1  2   2016-11-03 22:17:03  59696   0.0   0.0
 1  2   2016-11-03 22:11:45  0   0.0   0.0
 1  2   2016-11-03 22:06:25  0   0.0   0.0
 1  2   2016-11-03 22:01:06  59696   0.0   0.0
 1  2   2016-11-03 21:55:44  59712   0.0   0.0
 1  2   2016-11-03 21:50:25  0   0.0   0.0
 1  2   2016-11-03 21:45:02  59712   0.0   0.0
 1  2   2016-11-03 21:39:41  0   0.0   0.0
 1  2   2016-11-03 21:34:23  59680   0.0   0.0
 1  2   2016-11-03 21:29:04  59680   0.0   0.0
 1  2   2016-11-03 21:23:46  59680   0.0   0.0
 1  2   2016-11-03 21:18:28  0   0.0   0.0
 1  2   2016-11-03 21:13:11  59680   0.0   0.0
 1  2   2016-11-03 21:07:52  0   0.0   0.0
 1  2   2016-11-03 21:02:33  0   0.0   0.0
 1  2   2016-11-03 20:57:15  59680   0.0   0.0
 1  2   2016-11-03 20:51:58  0   0.0   0.0
 1  2   2016-11-03 20:46:39  59680   0.0   0.0
 1  2   2016-11-03 20:41:19  59680   0.0   0.0
 1  2   2016-11-03 20:36:00  0   0.0   0.0
 1  2   2016-11-03 20:30:39  0   0.0   0.0
 1  2   2016-11-03 20:25:20  59648   0.0   0.0
 1  2   2016-11-03 20:19:58  0   0.0   0.0
 1  2   2016-11-03 20:14:39  0   0.0   0.0
 1  2   2016-11-03 20:09:20  59696   0.0   0.0
 1  2   2016-11-03 20:04:01  59696   0.0   0.0
 1  2   2016-11-03 19:58:42  59696   0.0   0.0
 1  2   2016-11-03 19:53:24  59712   0.0   0.0
 1  2   2016-11-03 19:48:06  59712   0.0   0.0
 1  2   2016-11-03 19:42:45  59712   0.0   0.0
 1  2   2016-11-03 19:37:26  0   0.0   0.0
 1  2   2016-11-03 19:32:06  59712   0.0   0.0
 1  2   2016-11-03 19:26:46  59648   0.0   0.0
 1  2   2016-11-03 19:21:29  59600   0.0   0.0
 1  2   2016-11-03 19:16:08  59600   0.0   0.0
 1  2   2016-11-03 19:10:48  59616   0.0   0.0
 1  2   2016-11-03 19:05:29  59616   0.0   0.0
 1  2   2016-11-03 19:00:11  59712   0.0   0.0
 1  2   2016-11-03 18:54:49  59712   0.0   0.0
 1  2   2016-11-03 18:49:31  0   0.0   0.0
 1  2   2016-11-03 18:44:14  59856   0.0   0.0
 1  2   2016-11-03 18:38:56  59856   0.0   0.0
 1  2   2016-11-03 18:33:35  59856   0.0   0.0
 1  2   2016-11-03 18:28:15  59856   0.0   0.0
 1  2   2016-11-03 18:22:57  0   0.0   0.0
 1  2   2016-11-03 18:17:38  59856   0.0   0.0
 1  2   2016-11-03 18:12:21  0   0.0   0.0
 1  2   2016-11-03 18:07:00  59856   0.0   0.0
 1  2   2016-11-03 18:01:41  0   0.0   0.0
 1  2   2016-11-03 17:56:23  59856   0.0   0.0
 1  2   2016-11-03 17:51:05  59856   0.0   0.0
 1  2   2016-11-03 17:45:46  59856   0.0   0.0
 1  2   2016-11-03 17:40:26  59856   0.0   0.0
 1  2   2016-11-03 17:35:08  59856   0.0   0.0
 1  2   2016-11-03 17:29:50  59856   0.0   0.0
 1  2   2016-11-03 17:24:28  59824   0.0   0.0
 1  2   2016-11-03 17:19:08  59840   0.0   0.0
 1  2   2016-11-03 17:13:38  59840   0.0   0.0
 1  2   2016-11-03 17:08:19  59744   0.0   0.0
 1  2   2016-11-03 17:03:00  59744   0.0   0.0
 1  2   2016-11-03 16:57:38  59744   0.0   0.0
 1  2   2016-11-03 16:52:19  59552   0.0   0.0
 1  2   2016-11-03 16:46:57  59632   0.0   0.0
 1  2   2016-11-03 16:41:35  0   0.0   0.0
 1  2   2016-11-03 16:36:13  0   0.0   0.0
 1  2   2016-11-03 16:30:53  0   0.0   0.0
 1  2   2016-11-03 16:25:28  59712   0.0   0.0
 1  2   2016-11-03 16:20:07  59712   0.0   0.0
 1  2   2016-11-03 16:14:46  0   0.0   0.0
 1  2   2016-11-03 16:09:25  0   0.0   0.0
 1  2   2016-11-03 16:04:03  59728   0.0   0.0
 1  2   2016-11-03 15:58:43  0   0.0   0.0
 1  2   2016-11-03 15:53:17  59456   0.0   0.0
 1  2   2016-11-03 15:47:34  59712   0.0   0.0
 1  2   2016-11-03 15:39:54  59664   0.0   0.0
 1  2   2016-11-03 15:34:07  59696   0.0   0.0
 1  2   2016-11-03 14:28:04  59680   0.0   0.0
 1  2   2016-11-03 14:22:17  59696   0.0   0.0
 1  2   2016-11-03 14:00:01  59664   0.0   0.0
 1  2   2016-11-03 13:54:05  59696   0.0   0.0
 1  2   2016-11-03 13:48:33  59744   0.0   0.0
 1  2   2016-11-03 13:42:50  59616   0.0   0.0
 1  2   2016-11-03 13:37:01  59664   0.0   0.0
 1  2   2016-11-03 13:31:16  59712   0.0   0.0
 1  2   2016-11-03 13:25:37  59696   0.0   0.0
 1  2   2016-11-03 13:19:59  59776   0.0   0.0
 1  2   2016-11-03 13:13:40  59760   0.0   0.0
 1  2   2016-11-03 13:08:06  59744   0.0   0.0
 1  2   2016-11-03 13:02:30  59840   0.0   0.0
 1  2   2016-11-03 12:55:51  59680   0.0   0.0
 1  2   2016-11-03 12:50:12  59664   0.0   0.0
 1  2   2016-11-03 12:44:41  59776   0.0   0.0
 1  2   2016-11-03 12:38:56  59728   0.0   0.0
 1  2   2016-11-03 12:32:03  59728   0.0   0.0
 1  2   2016-11-03 12:18:48  59728   0.0   0.0
 1  2   2016-11-03 12:13:17  59648   0.0   0.0
 1  2   2016-11-03 12:07:47  59712   0.0   0.0
 1  2   2016-11-03 12:01:14  59776   0.0   0.0
 1  2   2016-11-03 11:55:41  59712   0.0   0.0
 1  2   2016-11-03 11:50:10  59712   0.0   0.0
 1  2   2016-11-03 11:44:39  59696   0.0   0.0
 1  2   2016-11-03 11:39:10  59712   0.0   0.0
 1  2   2016-11-03 11:33:36  59712   0.0   0.0
 1  2   2016-11-03 11:27:40  59712   0.0   0.0
 1  2   2016-11-03 11:22:12  59696   0.0   0.0
 1  2   2016-11-03 11:16:42  59744   0.0   0.0
 1  2   2016-11-03 11:11:13  59680   0.0   0.0
 1  2   2016-11-03 11:05:42  59584   0.0   0.0
 1  2   2016-11-03 11:00:13  59600   0.0   0.0
 1  2   2016-11-03 10:54:24  59552   0.0   0.0
 1  2   2016-11-03 10:48:46  59520   0.0   0.0
 1  2   2016-11-03 10:43:04  59408   0.0   0.0
 1  2   2016-11-03 10:37:16  59440   0.0   0.0
 1  2   2016-11-03 10:29:19  59472   0.0   0.0
 1  2   2016-11-03 10:23:32  59296   0.0   0.0
 1  2   2016-11-03 10:17:17  59424   0.0   0.0
 1  2   2016-11-03 10:10:59  59264   0.0   0.0
 1  2   2016-11-03 10:05:02  59488   0.0   0.0
 1  2   2016-11-03 09:59:34  59440   0.0   0.0
 1  2   2016-11-03 09:53:18  59376   0.0   0.0
 1  2   2016-11-03 09:47:45  59472   0.0   0.0
 1  2   2016-11-03 09:42:13  59616   0.0   0.0
 1  2   2016-11-03 09:36:42  59504   0.0   0.0
 1  2   2016-11-03 09:31:10  59600   0.0   0.0
 1  2   2016-11-03 09:25:40  59696   0.0   0.0
 1  2   2016-11-03 09:20:12  59760   0.0   0.0
 1  2   2016-11-03 09:14:31  59744   0.0   0.0
 1  2   2016-11-03 09:08:54  59712   0.0   0.0
 1  2   2016-11-03 09:02:53  59712   0.0   0.0
 1  2   2016-11-03 08:57:15  59632   0.0   0.0
 1  2   2016-11-03 08:51:18  59760   0.0   0.0
 1  2   2016-11-03 08:45:48  59744   0.0   0.0
 1  2   2016-11-03 08:40:18  59776   0.0   0.0
 1  2   2016-11-03 08:34:38  59712   0.0   0.0
 1  2   2016-11-03 08:28:35  59760   0.0   0.0
 1  2   2016-11-03 08:23:02  59744   0.0   0.0
 1  2   2016-11-03 08:17:34  59776   0.0   0.0
 1  2   2016-11-03 08:12:03  59760   0.0   0.0
 1  2   2016-11-03 08:06:34  59744   0.0   0.0
 1  2   2016-11-03 08:01:04  59760   0.0   0.0
 1  2   2016-11-03 07:55:35  59776   0.0   0.0
 1  2   2016-11-03 07:50:08  59776   0.0   0.0
 1  2   2016-11-01 08:09:43  60160   0.0   0.0
 1  2   2016-11-01 08:01:04  60112   0.0   0.0
 1  2   2016-11-01 07:58:14  60160   0.0   0.0
 1  2   2016-10-31 21:18:02  60464   0.0   0.0
 1  2   2016-10-31 21:12:27  0   0.0   0.0
 1  2   2016-10-31 20:04:49  60464   0.0   0.0
 1  2   2016-10-31 19:59:24  0   0.0   0.0
 1  2   2016-10-31 19:51:40  60464   0.0   0.0
 1  2   2016-10-31 19:44:24  60464   0.0   0.0
 1  2   2016-10-31 19:24:50  60128   0.0   0.0
 1  2   2016-10-31 12:35:45  60080  41.9  100.0
 1  2   2016-10-31 12:29:20  60032  41.9  100.0
 1  2   2016-10-31 12:21:39  60016  41.9  100.0
 1  2   2016-10-31 12:15:14  59968  41.9  100.0
 1  2   2016-10-31 11:09:23  60016  41.4  100.0
 1  2   2016-10-31 10:03:19  60144  40.2  100.0
 1  2   2016-10-31 09:56:45  60112  40.0  100.0
 1  2   2016-10-31 09:48:28  60080  39.8  100.0
 1  2   2016-10-31 09:42:28  60112  39.7  100.0
 1  2   2016-10-31 09:33:53  60144  39.6  100.0
 1  2   2016-10-31 09:28:00  60144  39.5  100.0
 1  2   2016-10-31 09:22:29  60112  39.5  100.0
 1  2   2016-10-31 09:16:05  60144  39.3  100.0
 1  2   2016-10-31 09:10:28  60192  39.1  100.0
 1  2   2016-10-31 09:02:55  60160  38.7  100.0
 1  2   2016-10-31 08:56:12  60160  38.4  100.0
 1  2   2016-10-31 08:50:43  60208  38.0  100.0
 1  2   2016-10-31 08:47:13  60176  38.0  100.0
 1  2   2016-10-31 08:39:15  60224  37.6  100.0
 1  2   2016-10-31 08:32:24  60272  37.5  100.0
 1  2   2016-10-31 08:26:45  60160  37.1  100.0
 1  2   2016-10-31 08:13:50  60160  36.7  100.0
 1  2   2016-10-30 08:48:45  60192  40.3  100.0
 1  2   2016-10-30 08:43:10  60224  39.9  100.0
 1  2   2016-10-30 08:37:02  60208  39.9  100.0
 1  2   2016-10-30 08:31:28  60256  39.6  100.0
 1  2   2016-10-30 08:24:01  60224  39.5  100.0
 1  2   2016-10-30 08:18:33  60144  39.0  100.0
 1  2   2016-10-29 09:03:02  60224  35.9  100.0
 1  2   2016-10-29 08:57:34  60192  35.4  100.0
 1  2   2016-10-28 14:49:27  60176  47.6  100.0
 1  2   2016-10-28 14:42:10  60144  47.9  100.0
 1  2   2016-10-28 14:36:30  60032  47.9  100.0
 1  2   2016-10-28 14:29:20  60144  48.1  100.0
 1  2   2016-10-28 14:23:44  60112  47.9  100.0
 1  2   2016-10-28 14:18:15  60064  47.9  100.0
 1  2   2016-10-28 14:12:37  60144  47.9  100.0
 1  2   2016-10-28 14:07:07  60096  47.9  100.0
 1  2   2016-10-28 14:01:38  60064  47.9  100.0
 1  2   2016-10-28 13:55:39  60032  47.8  100.0
 1  2   2016-10-28 13:44:28  60096  47.7  100.0
 1  2   2016-10-28 13:38:51  60128  47.6  100.0
 1  2   2016-10-28 13:33:08  60192  47.5  100.0
 1  2   2016-10-28 13:27:19  60256  47.5  100.0
 1  2   2016-10-28 13:21:38  60096  47.3  100.0
 1  2   2016-10-28 13:16:05  60048  47.1  100.0
 1  2   2016-10-28 13:10:35  60144  47.0  100.0
 1  2   2016-10-28 13:05:02  60128  46.6  100.0
 1  2   2016-10-28 12:59:28  60128  46.2  100.0
 1  2   2016-10-28 12:53:53  60096  46.0  100.0
 1  2   2016-10-28 12:48:22  60032  45.9  100.0
 1  2   2016-10-28 12:42:35  60032  46.1  100.0
 1  2   2016-10-28 12:37:03  60080  46.0  100.0
 1  2   2016-10-28 12:31:29  60080  45.8  100.0
 1  2   2016-10-28 12:25:52  60208  45.6  100.0
 1  2   2016-10-28 12:20:20  60080  45.4  100.0
 1  2   2016-10-28 12:14:35  60064  45.8  100.0
 1  2   2016-10-28 12:08:45  59984  46.1  100.0
 1  2   2016-10-28 12:02:05  59952  45.7  100.0
 1  2   2016-10-28 11:55:09  59904  45.0  100.0
 1  2   2016-10-28 11:47:49  59984  44.6  100.0
 1  2   2016-10-28 10:41:31  60064  40.4  100.0
 1  2   2016-10-28 10:35:50  60032  40.0  100.0
 1  2   2016-10-28 10:30:14  60144  39.6  100.0
 1  2   2016-10-28 10:23:59  60000  39.3  100.0
 1  2   2016-10-28 10:18:19  60112  39.2  100.0
 1  2   2016-10-28 10:12:45  60096  39.1  100.0
 1  2   2016-10-28 10:06:50  60128  39.0  100.0
 1  2   2016-10-28 10:01:03  60096  39.1  100.0
 1  2   2016-10-28 09:54:52  60048  39.1  100.0
 1  2   2016-10-28 09:49:18  60128  38.8  100.0
 1  2   2016-10-28 09:42:16  60048  38.6  100.0
 1  2   2016-10-28 09:36:35  60096  38.4  100.0
 1  2   2016-10-28 09:30:55  60176  38.2  100.0
 1  2   2016-10-28 09:25:22  60096  37.7  100.0
 1  2   2016-10-28 09:19:13  60176  37.2  100.0
 1  2   2016-10-28 09:13:15  60208  36.8  100.0
 1  2   2016-10-28 09:07:31  60240  36.4  100.0
 1  2   2016-10-28 08:59:51  60240  35.8  100.0
 1  2   2016-10-27 08:47:58  60480  40.6  100.0
 1  2   2016-10-27 08:45:56  60432  40.5  100.0
 1  2   2016-10-26 13:12:53  60272  48.9  100.0
 1  2   2016-10-26 12:58:24  60288  48.4  100.0
 1  2   2016-10-26 12:47:56  60496  48.2  100.0
 1  2   2016-10-26 12:36:35  60416  48.0  100.0
 1  2   2016-10-26 10:12:23  60416  48.3  100.0
 1  2   2016-10-26 10:01:15  60512  47.1  100.0
 1  2   2016-10-25 14:58:23  60528  47.4  100.0
 1  2   2016-10-25 13:35:37  60400  47.7  100.0
 1  2   2016-10-25 13:30:04  60448  47.3  100.0
 1  2   2016-10-25 13:24:30  60448  47.1  100.0
 1  2   2016-10-25 13:00:31  60416  48.5  100.0
 1  2   2016-10-25 12:54:58  60320  48.3  100.0
 1  2   2016-10-25 12:49:27  60320  48.2  100.0
 1  2   2016-10-25 12:43:42  60384  48.2  100.0
 1  2   2016-10-25 12:38:08  60432  48.2  100.0
 1  2   2016-10-25 12:32:35  60416  48.1  100.0
 1  2   2016-10-25 12:26:56  60496  48.0  100.0
 1  2   2016-10-25 12:08:39  60496  48.3  100.0
 1  2   2016-10-25 12:03:08  60448  48.3  100.0
 1  2   2016-10-25 11:57:25  60400  48.3  100.0
 1  2   2016-10-25 11:51:54  60384  48.3  100.0
 1  2   2016-10-25 11:45:59  60464  47.7  100.0
 1  2   2016-10-25 11:39:58  60496  47.2  100.0
 1  2   2016-10-25 11:34:27  60448  46.5  100.0
 1  2   2016-10-25 11:27:02  60480  45.9  100.0
 1  2   2016-10-24 08:35:10  60416  35.9  100.0
 1  2   2016-10-23 15:39:32  60400  42.6  100.0
 1  2   2016-10-23 15:22:23  60416  42.4  100.0
 1  2   2016-10-23 14:45:34  60352  42.6  100.0
 1  2   2016-10-23 14:31:12  60336  42.6  100.0
 1  2   2016-10-23 14:17:21  60320  42.5  100.0
 1  2   2016-10-23 14:10:42  60384  42.7  100.0
 1  2   2016-10-23 14:04:48  60304  42.5  100.0
 1  2   2016-10-23 13:43:15  60384  42.6  100.0
 1  2   2016-10-23 13:37:29  60256  42.5  100.0
 1  2   2016-10-23 13:31:58  60352  42.6  100.0
 1  2   2016-10-23 13:11:02  60336  42.4  100.0
 1  2   2016-10-23 13:05:05  60256  42.5  100.0
 1  2   2016-10-23 12:59:23  60256  42.5  100.0
 1  2   2016-10-23 12:53:48  60272  42.6  100.0
 1  2   2016-10-23 11:47:12  60368  41.3  100.0
 1  2   2016-10-23 11:41:22  60336  41.1  100.0
 1  2   2016-10-23 11:26:35  60336  41.1  100.0
 1  2   2016-10-23 11:11:44  60368  41.4  100.0
 1  2   2016-10-23 11:05:07  60272  41.5  100.0
 1  2   2016-10-23 10:50:37  60320  41.5  100.0
 1  2   2016-10-19 22:28:52  0   0.0   0.0
 1  2   2016-10-19 21:45:04  60416  40.4  100.0
 1  2   2016-10-19 21:30:14  60512  40.9  100.0
 1  2   2016-10-19 21:24:12  60560  41.5  100.0
 1  2   2016-10-19 15:49:26  60256  43.5  100.0
 1  2   2016-10-19 15:27:16  60288  43.4  100.0
 1  2   2016-10-19 15:14:27  60256  43.6  100.0
 1  2   2016-10-19 15:06:30  60288  43.8  100.0
 1  2   2016-10-19 14:51:26  60288  44.0  100.0
 1  2   2016-10-19 14:34:33  60272  44.0  100.0
 1  2   2016-10-19 14:28:46  60272  44.0  100.0
 1  2   2016-10-19 13:21:54  60288  45.8  100.0
 1  2   2016-10-19 12:49:59  60304  46.1  100.0
 1  2   2016-10-19 11:22:58  60320  45.8  100.0
 1  2   2016-10-19 09:49:52  60464  44.6  100.0
 1  2   2016-10-19 09:34:26  60448  43.9  100.0
 1  2   2016-10-19 09:19:47  60448  43.2  100.0
 1  2   2016-10-19 09:00:27  60512   0.0   0.0
 1  2   2016-10-19 08:43:47  60496   0.0   0.0
 1  2   2016-10-18 13:06:15  60400  49.7  100.0
 1  2   2016-10-18 12:54:42  60368  49.7  100.0
 1  2   2016-10-18 12:48:41  60320  49.9  100.0
 1  2   2016-10-18 12:42:58  60352  49.6  100.0
 1  2   2016-10-18 12:36:48  60320  49.5  100.0
 1  2   2016-10-18 12:29:18  60320  49.6  100.0
 1  2   2016-10-18 12:23:25  60288  49.3  100.0
 1  2   2016-10-18 12:17:52  60320  49.2  100.0
 1  2   2016-10-18 12:09:53  60304  49.2  100.0
 1  2   2016-10-18 12:03:53  60320  49.1  100.0
 1  2   2016-10-18 11:58:06  60304  49.1  100.0
 1  2   2016-10-18 11:52:27  60368  49.2  100.0
 1  2   2016-10-18 11:46:36  60352  49.2  100.0
 1  2   2016-10-18 11:40:40  60352  49.4  100.0
 1  2   2016-10-18 11:34:49  60384  49.2  100.0
 1  2   2016-10-18 11:29:00  60384  49.3  100.0
 1  2   2016-10-18 11:21:56  60336  49.0  100.0
 1  2   2016-10-18 11:16:08  60384  49.0  100.0
 1  2   2016-10-18 10:11:02  60480  48.7  100.0
 1  2   2016-10-18 09:03:06  60480  45.9  100.0
 1  2   2016-10-18 08:57:18  60496  45.6  100.0
 1  2   2016-10-18 08:49:44  60512  44.9  100.0
 1  2   2016-10-18 08:43:25  60480  44.3  100.0
 1  2   2016-10-18 08:28:44  60688  42.8  100.0
 1  2   2016-10-17 09:23:14  60448  44.0  100.0
 1  2   2016-10-17 09:16:12  60640  43.3  100.0
 1  2   2016-10-17 09:08:39  60480  42.9  100.0
 1  2   2016-10-17 09:02:58  60432  42.2  100.0
 1  2   2016-10-17 08:54:13  60512  41.5  100.0
 1  2   2016-10-17 08:48:39  60496  40.9  100.0
 1  2   2016-10-15 17:22:04  60320  49.8  100.0
 1  2   2016-10-15 17:08:24  60464  49.9  100.0
 1  2   2016-10-15 17:02:48  60384  42.6  100.0
 1  2   2016-10-15 16:56:26  0   0.0   0.0
 1  2   2016-10-15 16:50:45  60384  42.6  100.0
 1  2   2016-10-15 16:43:36  60384  42.6  100.0
 1  2   2016-10-15 08:34:25  60432  42.6  100.0
 1  2   2016-10-15 08:26:09  60512  41.7  100.0
 1  2   2016-10-14 11:55:02  60272  45.2  100.0
 1  2   2016-10-14 11:40:21  60272  44.6  100.0
 1  2   2016-10-14 11:34:25  60192  44.1  100.0
 1  2   2016-10-14 11:28:45  60240  43.6  100.0
 1  2   2016-10-14 11:22:27  60240  42.8  100.0
 1  2   2016-10-14 10:14:03  60512  39.8  100.0
 1  2   2016-10-14 10:08:13  60656  39.7  100.0
 1  2   2016-10-14 09:58:34  60528  39.5  100.0
 1  2   2016-10-14 09:47:54  60512  39.0  100.0
 1  2   2016-10-14 09:33:52  60496  38.0  100.0
 1  2   2016-10-14 09:06:41  60576  37.8  100.0
 1  2   2016-10-14 08:48:09  60496  37.6  100.0
 1  2   2016-10-14 08:34:08  60512  37.1  100.0
 1  2   2016-10-14 08:31:18  60560  37.0  100.0
 1  2   2016-10-13 21:53:49  60304  39.3  100.0
 1  2   2016-10-13 21:48:04  60304  39.3  100.0
 1  2   2016-10-13 21:42:41  60336  39.4  100.0
 1  2   2016-10-13 21:36:31  60336  39.4  100.0
 1  2   2016-10-13 20:29:15  60304  38.6  100.0
 1  2   2016-10-13 20:23:46  0   0.0   0.0
 1  2   2016-10-13 20:18:23  0   0.0   0.0
 1  2   2016-10-13 20:13:04  60336  38.6  100.0
 1  2   2016-10-13 20:07:08  60320  38.7  100.0
 1  2   2016-10-13 20:01:17  60320  38.7  100.0
 1  2   2016-10-13 19:55:51  60512  39.1  100.0
 1  2   2016-10-13 19:49:55  60512  39.1  100.0
 1  2   2016-10-13 19:44:35  0   0.0   0.0
 1  2   2016-10-13 19:39:12  60416  39.1  100.0
 1  2   2016-10-13 19:33:51  60368  39.3  100.0
 1  2   2016-10-13 19:28:28  60320  39.3  100.0
 1  2   2016-10-13 19:23:03  60144  39.2  100.0
 1  2   2016-10-13 19:08:38  60320  39.0  100.0
 1  2   2016-10-13 19:02:12  60320  39.0  100.0
 1  2   2016-10-13 18:56:32  60320  39.0  100.0
 1  2   2016-10-13 18:49:50  60320  39.0  100.0
 1  2   2016-10-13 18:44:20  60592  38.8  100.0
 1  2   2016-10-13 18:36:53  60512  38.8  100.0
 1  2   2016-10-13 18:29:50  60368  38.8  100.0
 1  2   2016-10-13 18:24:11  60160  38.9  100.0
 1  2   2016-10-13 18:18:49  60272  38.9  100.0
 1  2   2016-10-13 18:13:29  60368  39.0  100.0
 1  2   2016-10-13 18:08:08  60368  39.1  100.0
 1  2   2016-10-13 18:02:40  60192  39.2  100.0
 1  2   2016-10-13 17:57:18  60176  39.2  100.0
 1  2   2016-10-13 17:52:00  60032  39.3  100.0
 1  2   2016-10-13 17:46:10  60368  39.3  100.0
 1  2   2016-10-13 17:40:05  60224  39.5  100.0
 1  2   2016-10-13 17:34:45  60192  39.5  100.0
 1  2   2016-10-13 17:29:25  0   0.0   0.0
 1  2   2016-10-13 17:23:49  60160  39.8  100.0
 1  2   2016-10-13 16:17:08  60080  39.7  100.0
 1  2   2016-10-13 16:11:19  60000  39.6  100.0
 1  2   2016-10-13 16:05:41  60032  39.6  100.0
 1  2   2016-10-13 15:59:58  59984  39.6  100.0
 1  2   2016-10-13 15:54:25  60000  39.6  100.0
 1  2   2016-10-13 15:48:49  59968  39.8  100.0
 1  2   2016-10-13 15:43:19  60048  39.8  100.0
 1  2   2016-10-13 15:36:56  59952  39.8  100.0
 1  2   2016-10-13 15:30:34  59984  39.7  100.0
 1  2   2016-10-13 15:24:46  59920  39.8  100.0
 1  2   2016-10-13 15:19:15  60000  39.7  100.0
 1  2   2016-10-13 14:13:36  59808  39.0  100.0
 1  2   2016-10-13 14:07:42  59872  39.1  100.0
 1  2   2016-10-13 14:00:33  59888  39.0  100.0
 1  2   2016-10-13 13:54:52  59824  39.1  100.0
 1  2   2016-10-13 13:49:18  59872  39.1  100.0
 1  2   2016-10-13 13:42:41  59856  39.1  100.0
 1  2   2016-10-13 13:37:11  59904  39.2  100.0
 1  2   2016-10-13 13:31:38  59856  39.2  100.0
 1  2   2016-10-13 13:25:34  59840  39.1  100.0
 1  2   2016-10-13 13:20:03  59856  39.1  100.0
 1  2   2016-10-13 12:14:00  59824  39.0  100.0
 1  2   2016-10-13 12:08:31  59840  39.1  100.0
 1  2   2016-10-13 12:03:01  59808  39.1  100.0
 1  2   2016-10-13 11:57:30  59792  38.9  100.0
 1  2   2016-10-13 11:51:12  59760  38.8  100.0
 1  2   2016-10-13 11:45:41  59760  38.8  100.0
 1  2   2016-10-13 11:40:05  59712  38.8  100.0
 1  2   2016-10-13 11:34:34  59744  38.8  100.0
 1  2   2016-10-13 11:28:59  59776  38.7  100.0
 1  2   2016-10-13 11:23:26  59760  38.6  100.0
 1  2   2016-10-13 11:17:56  59744  38.7  100.0
 1  2   2016-10-13 11:12:27  59744  38.7  100.0
 1  2   2016-10-13 11:06:56  59760  38.6  100.0
 1  2   2016-10-13 11:01:17  59760  38.8  100.0
 1  2   2016-10-13 10:54:25  59808  38.7  100.0
 1  2   2016-10-13 10:40:12  59776  38.6  100.0
 1  2   2016-10-13 10:34:21  59760  38.5  100.0
 1  2   2016-10-13 09:26:36  60032  35.8  100.0
 1  2   2016-10-13 09:22:33  60016  35.8  100.0
 1  2   2016-10-13 09:17:05  59952  35.5  100.0
 1  2   2016-10-13 09:07:03  59872  35.9  100.0
 1  2   2016-10-13 01:42:12  59824  33.7  100.0
 1  2   2016-10-13 01:36:52  59824  33.7  100.0
 1  2   2016-10-13 01:31:33  59856  33.2  100.0
 1  2   2016-10-13 01:26:13  59856  33.2  100.0
 1  2   2016-10-13 01:20:53  59856  33.2  100.0
 1  2   2016-10-13 01:15:32  59856  33.2  100.0
 1  2   2016-10-13 01:10:12  0   0.0   0.0
 1  2   2016-10-13 01:04:52  0   0.0   0.0
 1  2   2016-10-13 00:59:12  59888  33.0  100.0
 1  2   2016-10-13 00:53:54  0   0.0   0.0
 1  2   2016-10-13 00:48:33  59952  33.1  100.0
 1  2   2016-10-13 00:43:13  59952  33.1  100.0
 1  2   2016-10-13 00:37:53  59952  33.1  100.0
 1  2   2016-10-13 00:32:32  59952  33.1  100.0
 1  2   2016-10-13 00:27:13  59856  33.1  100.0
 1  2   2016-10-13 00:21:53  59760  32.9  100.0
 1  2   2016-10-13 00:16:32  59760  32.9  100.0
 1  2   2016-10-13 00:11:12  59760  32.9  100.0
 1  2   2016-10-13 00:05:52  59792  32.7  100.0
 1  2   2016-10-13 00:00:31  59792  32.7  100.0
 1  2   2016-10-12 23:55:12  0   0.0   0.0
 1  2   2016-10-12 23:49:50  59792  32.7  100.0
 1  2   2016-10-12 23:44:32  59824  32.1  100.0
 1  2   2016-10-12 23:39:03  59776  32.1  100.0
 1  2   2016-10-12 23:33:42  59744  31.8  100.0
 1  2   2016-10-12 23:28:21  59600  31.7  100.0
 1  2   2016-10-12 23:23:01  0   0.0   0.0
 1  2   2016-10-12 23:17:42  59600  31.7  100.0
 1  2   2016-10-12 23:12:21  59632  31.7  100.0
 1  2   2016-10-12 23:07:01  0   0.0   0.0
 1  2   2016-10-12 23:01:39  59632  31.7  100.0
 1  2   2016-10-12 22:56:18  0   0.0   0.0
 1  2   2016-10-12 22:50:58  59632  31.7  100.0
 1  2   2016-10-12 22:45:29  59632  31.7  100.0
 1  2   2016-10-12 22:40:07  59632  31.7  100.0
 1  2   2016-10-12 22:34:46  59632  31.7  100.0
 1  2   2016-10-12 22:29:26  59632  31.7  100.0
 1  2   2016-10-12 22:23:56  59632  31.7  100.0
 1  2   2016-10-12 22:18:33  59856  31.7  100.0
 1  2   2016-10-12 22:13:10  59872  31.9  100.0
 1  2   2016-10-12 22:07:47  59904  31.9  100.0
 1  2   2016-10-12 22:02:26  59824  31.9  100.0
 1  2   2016-10-12 21:57:06  0   0.0   0.0
 1  2   2016-10-12 21:51:46  59744  32.3  100.0
 1  2   2016-10-12 21:46:26  0   0.0   0.0
 1  2   2016-10-12 21:41:07  59744  32.3  100.0
 1  2   2016-10-12 21:35:22  59728  32.3  100.0
 1  2   2016-10-12 21:30:02  59856  33.2  100.0
 1  2   2016-10-12 21:24:41  0   0.0   0.0
 1  2   2016-10-12 21:19:06  59856  33.2  100.0
 1  2   2016-10-12 21:13:45  0   0.0   0.0
 1  2   2016-10-12 21:08:27  0   0.0   0.0
 1  2   2016-10-12 21:02:59  59856  33.2  100.0
 1  2   2016-10-12 20:57:38  0   0.0   0.0
 1  2   2016-10-12 20:52:08  59728  33.3  100.0
 1  2   2016-10-12 20:46:36  0   0.0   0.0
 1  2   2016-10-12 20:41:15  59824  34.3  100.0
 1  2   2016-10-12 20:35:46  59824  34.3  100.0
 1  2   2016-10-12 20:30:03  59824  34.3  100.0
 1  2   2016-10-12 20:24:31  59824  34.3  100.0
 1  2   2016-10-12 20:19:10  59792  34.3  100.0
 1  2   2016-10-12 20:13:10  59936  34.4  100.0
 1  2   2016-10-12 20:07:32  59936  34.4  100.0
 1  2   2016-10-12 20:01:54  59936  34.4  100.0
 1  2   2016-10-12 19:56:03  59744  34.6  100.0
 1  2   2016-10-12 19:50:36  0   0.0   0.0
 1  2   2016-10-12 19:45:00  59680  35.3  100.0
 1  2   2016-10-12 19:39:26  59744  35.7  100.0
 1  2   2016-10-12 19:33:54  59824  36.2  100.0
 1  2   2016-10-12 19:28:21  59824  36.6  100.0
 1  2   2016-10-12 19:23:00  59904  41.6  100.0
 1  2   2016-10-12 19:17:39  59904  41.6  100.0
 1  2   2016-10-12 18:12:09  59904  41.6  100.0
 1  2   2016-10-12 18:06:42  59856  41.6  100.0
 1  2   2016-10-12 18:01:18  60016  41.8  100.0
 1  2   2016-10-12 17:55:26  59920  41.8  100.0
 1  2   2016-10-12 17:49:53  59568  42.1  100.0
 1  2   2016-10-12 17:44:19  59568  42.1  100.0
 1  2   2016-10-12 17:38:47  59568  42.1  100.0
 1  2   2016-10-12 17:33:26  59568  42.1  100.0
 1  2   2016-10-12 17:28:04  59776  42.6  100.0
 1  2   2016-10-12 17:22:27  0   0.0   0.0
 1  2   2016-10-12 17:16:42  59776  42.6  100.0
 1  2   2016-10-12 17:11:13  59600  42.7  100.0
 1  2   2016-10-12 17:05:23  59792  42.7  100.0
 1  2   2016-10-12 16:58:05  60000  42.7  100.0
 1  2   2016-10-12 16:52:33  59808  43.0  100.0
 1  2   2016-10-12 16:46:26  59808  43.0  100.0
 1  2   2016-10-12 16:40:47  59776  43.0  100.0
 1  2   2016-10-12 16:35:17  0   0.0   0.0
 1  2   2016-10-12 16:29:34  59920  43.2  100.0
 1  2   2016-10-12 16:24:12  0   0.0   0.0
 1  2   2016-10-12 16:18:17  59904  43.3  100.0
 1  2   2016-10-12 16:12:35  59968  43.3  100.0
 1  2   2016-10-12 16:06:53  59872  43.4  100.0
 1  2   2016-10-12 15:59:09  59808  43.4  100.0
 1  2   2016-10-12 15:53:33  59824  43.5  100.0
 1  2   2016-10-12 15:46:19  59792  43.5  100.0
 1  2   2016-10-12 15:40:07  59760  43.5  100.0
 1  2   2016-10-12 15:33:49  59696  43.5  100.0
 1  2   2016-10-12 15:27:57  59760  43.5  100.0
 1  2   2016-10-12 15:22:23  59760  43.4  100.0
 1  2   2016-10-12 15:16:37  59808  43.4  100.0
 1  2   2016-10-12 15:11:06  59792  43.4  100.0
 1  2   2016-10-12 15:05:31  59712  43.5  100.0
 1  2   2016-10-12 13:59:20  59824  42.8  100.0
 1  2   2016-10-12 13:53:44  59824  42.9  100.0
 1  2   2016-10-12 13:48:14  59840  43.0  100.0
 1  2   2016-10-12 13:42:43  59888  43.0  100.0
 1  2   2016-10-12 13:35:56  59952  43.2  100.0
 1  2   2016-10-12 13:30:20  59792  43.3  100.0
 1  2   2016-10-12 12:23:02  59872  43.0  100.0
 1  2   2016-10-12 12:16:05  59824  43.3  100.0
 1  2   2016-10-12 12:10:13  59824  43.2  100.0
 1  2   2016-10-12 12:04:38  59792  43.1  100.0
 1  2   2016-10-12 11:59:08  59664  42.9  100.0
 1  2   2016-10-12 11:53:12  59680  42.5  100.0
 1  2   2016-10-12 11:47:41  59584  41.9  100.0
 1  2   2016-10-12 11:42:09  59504  41.5  100.0
 1  2   2016-10-12 11:35:39  59456  40.4  100.0
 1  2   2016-10-12 11:13:38  59296  37.7  100.0
 1  2   2016-10-12 11:08:07  59360  38.0  100.0
 1  2   2016-10-12 11:02:37  59312  37.4  100.0
 1  2   2016-10-12 10:56:59  59312  37.1  100.0
 1  2   2016-10-12 10:51:29  59344  36.8  100.0
 1  2   2016-10-12 10:45:46  59568  36.5  100.0
 1  2   2016-10-12 10:40:13  59488  36.2  100.0
 1  2   2016-10-12 10:34:43  59664  35.9  100.0
 1  2   2016-10-12 10:29:14  59600  36.2  100.0
 1  2   2016-10-12 10:23:44  59680  36.1  100.0
 1  2   2016-10-12 10:18:13  59744  35.8  100.0
 1  2   2016-10-12 10:12:43  59648  35.6  100.0
 1  2   2016-10-12 10:07:12  59760  35.4  100.0
 1  2   2016-10-12 10:01:42  59728  35.2  100.0
 1  2   2016-10-12 09:56:10  59744  34.9  100.0
 1  2   2016-10-12 09:50:40  59744  34.8  100.0
 1  2   2016-10-12 09:45:09  59648  34.6  100.0
 1  2   2016-10-12 09:39:38  59808  34.4  100.0
 1  2   2016-10-12 09:33:50  59792  34.2  100.0
 1  2   2016-10-12 09:28:19  59792  34.0  100.0
 1  2   2016-10-12 09:22:50  59808  33.8  100.0
 1  2   2016-10-12 09:17:22  59792  33.9  100.0
 1  2   2016-10-12 09:11:51  59840  33.8  100.0
 1  2   2016-10-12 09:06:22  59808  33.8  100.0
 1  2   2016-10-12 09:00:51  59840  33.5  100.0
 1  2   2016-10-12 08:55:22  59824  33.1  100.0
 1  2   2016-10-12 08:49:52  59840  32.8  100.0
 1  2   2016-10-12 08:44:22  59760  32.3  100.0
 1  2   2016-10-12 08:38:52  59872  31.9  100.0
 1  2   2016-10-12 08:33:24  59856  31.8  100.0
 1  2   2016-10-12 08:27:53  59904  31.2  100.0
 1  2   2016-10-12 08:22:27  59760  30.7  100.0
 1  2   2016-10-12 08:16:31  59952  30.3  100.0
 1  2   2016-10-11 11:02:38  60032  39.8  100.0
 1  2   2016-10-11 10:55:59  60032  39.7  100.0
 1  2   2016-10-11 10:50:11  60000  39.5  100.0
 1  2   2016-10-11 10:44:37  60048  39.5  100.0
 1  2   2016-10-11 10:39:05  60064  39.5  100.0
 1  2   2016-10-11 10:33:32  60080  39.3  100.0
 1  2   2016-10-11 09:27:52  60016  38.1  100.0
 1  2   2016-10-11 09:22:14  60096  37.9  100.0
 1  2   2016-10-11 09:16:44  60144  37.5  100.0
 1  2   2016-10-11 09:11:08  60160  37.3  100.0
 1  2   2016-10-11 09:05:38  60160  37.2  100.0
 1  2   2016-10-11 09:00:09  60192  37.1  100.0
 1  2   2016-10-11 08:50:38  60240  37.0  100.0
 1  2   2016-10-11 08:44:56  60176  36.7  100.0
 1  2   2016-10-11 08:39:24  60128  36.3  100.0
 1  2   2016-10-11 08:33:54  60128  35.9  100.0
 1  2   2016-10-11 08:28:20  60192  35.2  100.0
 1  2   2016-10-11 02:14:42  60288  36.4  100.0
 1  2   2016-10-11 02:09:22  60144  36.4  100.0
 1  2   2016-10-11 02:03:55  60192  36.4  100.0
 1  2   2016-10-11 01:58:36  60192  36.4  100.0
 1  2   2016-10-11 01:53:18  60192  36.4  100.0
 1  2   2016-10-11 01:47:58  0   0.0   0.0
 1  2   2016-10-11 01:42:39  0   0.0   0.0
 1  2   2016-10-11 01:37:21  0   0.0   0.0
 1  2   2016-10-11 01:32:02  60192  36.4  100.0
 1  2   2016-10-11 01:26:43  60192  36.4  100.0
 1  2   2016-10-11 01:21:23  60160  36.4  100.0
 1  2   2016-10-11 01:16:03  60128  36.7  100.0
 1  2   2016-10-11 01:10:35  60224  36.4  100.0
 1  2   2016-10-11 01:05:16  60224  36.4  100.0
 1  2   2016-10-11 00:59:55  0   0.0   0.0
 1  2   2016-10-11 00:54:35  59888  34.7  100.0
 1  2   2016-10-11 00:49:15  0   0.0   0.0
 1  2   2016-10-11 00:43:56  59888  34.7  100.0
 1  2   2016-10-11 00:38:36  0   0.0   0.0
 1  2   2016-10-11 00:33:18  59888  34.7  100.0
 1  2   2016-10-11 00:27:58  59888  34.7  100.0
 1  2   2016-10-11 00:22:40  59984  33.7  100.0
 1  2   2016-10-11 00:17:20  59984  33.7  100.0
 1  2   2016-10-11 00:12:00  0   0.0   0.0
 1  2   2016-10-11 00:06:42  59984  33.7  100.0
 1  2   2016-10-11 00:01:25  0   0.0   0.0
 1  2   2016-10-10 23:56:05  60096  33.7  100.0
 1  2   2016-10-10 23:50:46  59840  33.3  100.0
 1  2   2016-10-10 23:45:27  59840  33.3  100.0
 1  2   2016-10-10 23:40:10  0   0.0   0.0
 1  2   2016-10-10 23:34:50  60016  33.3  100.0
 1  2   2016-10-10 23:29:32  60064  33.5  100.0
 1  2   2016-10-10 23:24:12  0   0.0   0.0
 1  2   2016-10-10 23:18:52  60064  33.5  100.0
 1  2   2016-10-10 23:13:33  60048  33.4  100.0
 1  2   2016-10-10 23:08:13  60080  33.2  100.0
 1  2   2016-10-10 23:02:55  0   0.0   0.0
 1  2   2016-10-10 22:57:37  59840  31.8  100.0
 1  2   2016-10-10 22:52:16  59840  31.8  100.0
 1  2   2016-10-10 22:46:56  59840  31.8  100.0
 1  2   2016-10-10 22:41:37  59840  31.8  100.0
 1  2   2016-10-10 22:36:09  59840  31.8  100.0
 1  2   2016-10-10 22:30:41  59840  31.8  100.0
 1  2   2016-10-10 22:25:21  0   0.0   0.0
 1  2   2016-10-10 22:20:00  60000  31.7  100.0
 1  2   2016-10-10 22:14:40  59952  31.6  100.0
 1  2   2016-10-10 22:09:20  59952  31.6  100.0
 1  2   2016-10-10 22:03:57  59920  31.7  100.0
 1  2   2016-10-10 21:58:37  59968  31.7  100.0
 1  2   2016-10-10 21:53:18  59968  31.7  100.0
 1  2   2016-10-10 21:47:58  0   0.0   0.0
 1  2   2016-10-10 21:42:38  60048  31.9  100.0
 1  2   2016-10-10 21:37:18  0   0.0   0.0
 1  2   2016-10-10 21:31:59  60048  31.9  100.0
 1  2   2016-10-10 21:26:38  60048  31.9  100.0
 1  2   2016-10-10 21:21:19  59952  31.9  100.0
 1  2   2016-10-10 21:16:00  59984  32.3  100.0
 1  2   2016-10-10 21:10:39  59984  32.3  100.0
 1  2   2016-10-10 21:05:13  60000  32.5  100.0
 1  2   2016-10-10 20:59:53  60000  32.5  100.0
 1  2   2016-10-10 20:54:28  59936  32.6  100.0
 1  2   2016-10-10 20:49:11  60032  32.9  100.0
 1  2   2016-10-10 20:43:50  59984  32.9  100.0
 1  2   2016-10-10 20:38:31  59936  33.1  100.0
 1  2   2016-10-10 20:32:55  59968  33.3  100.0
 1  2   2016-10-10 20:27:34  60128  33.5  100.0
 1  2   2016-10-10 20:22:14  59968  34.8  100.0
 1  2   2016-10-10 20:16:54  0   0.0   0.0
 1  2   2016-10-10 20:11:33  59968  34.8  100.0
 1  2   2016-10-10 20:06:13  59920  34.8  100.0
 1  2   2016-10-10 20:00:54  59872  35.2  100.0
 1  2   2016-10-10 19:55:06  60064  36.8  100.0
 1  2   2016-10-10 19:49:35  0   0.0   0.0
 1  2   2016-10-10 19:44:14  60064  36.8  100.0
 1  2   2016-10-10 19:38:56  60192  41.7  100.0
 1  2   2016-10-10 18:32:29  60192  41.7  100.0
 1  2   2016-10-10 18:26:45  60192  41.7  100.0
 1  2   2016-10-10 18:21:23  59952  41.9  100.0
 1  2   2016-10-10 18:16:02  59952  41.9  100.0
 1  2   2016-10-10 18:10:25  60048  41.9  100.0
 1  2   2016-10-10 18:05:02  60128  41.9  100.0
 1  2   2016-10-10 17:59:31  59920  41.9  100.0
 1  2   2016-10-10 17:53:09  59776  41.9  100.0
 1  2   2016-10-10 17:46:32  59936  41.9  100.0
 1  2   2016-10-10 17:41:03  59984  41.9  100.0
 1  2   2016-10-10 17:35:41  0   0.0   0.0
 1  2   2016-10-10 17:29:55  59984  41.9  100.0
 1  2   2016-10-10 17:24:23  60144  41.9  100.0
 1  2   2016-10-10 17:19:04  60144  41.9  100.0
 1  2   2016-10-10 17:11:04  60032  41.9  100.0
 1  2   2016-10-10 17:05:34  59936  42.1  100.0
 1  2   2016-10-10 16:59:51  59936  42.1  100.0
 1  2   2016-10-10 16:54:24  0   0.0   0.0
 1  2   2016-10-10 16:48:23  60048  42.1  100.0
 1  2   2016-10-10 16:42:54  60080  42.6  100.0
 1  2   2016-10-10 16:37:35  60080  42.6  100.0
 1  2   2016-10-10 16:32:14  0   0.0   0.0
 1  2   2016-10-10 16:26:08  60080  42.6  100.0
 1  2   2016-10-10 16:20:35  60112  42.6  100.0
 1  2   2016-10-10 16:14:47  60160  42.7  100.0
 1  2   2016-10-10 15:09:12  60064  43.7  100.0
 1  2   2016-10-10 15:03:49  60224  43.9  100.0
 1  2   2016-10-10 14:58:25  60240  43.9  100.0
 1  2   2016-10-10 14:52:49  60144  43.8  100.0
 1  2   2016-10-10 14:45:17  60128  43.7  100.0
 1  2   2016-10-10 13:39:11  60048   0.0   0.0
 1  2   2016-10-10 13:33:18  60048   0.0   0.0
 1  2   2016-10-10 13:27:54  60048   0.0   0.0
 1  2   2016-10-10 13:22:28  60224   0.0   0.0
 1  2   2016-10-10 13:17:03  60352   0.0   0.0
 1  2   2016-10-10 13:11:40  60096   0.0   0.0
 1  2   2016-10-10 13:06:01  60096   0.0   0.0
 1  2   2016-10-10 13:00:40  60416   0.0   0.0
 1  2   2016-10-10 12:55:10  0   0.0   0.0
 1  2   2016-10-10 12:49:41  0   0.0   0.0
 1  2   2016-10-10 12:44:07  60368   0.0   0.0
 1  2   2016-10-10 12:38:30  60368   0.0   0.0
 1  2   2016-10-10 12:32:16  0   0.0   0.0
 1  2   2016-10-10 12:26:50  60368   0.0   0.0
 1  2   2016-10-10 12:20:58  60352   0.0   0.0
 1  2   2016-10-10 12:15:36  60368   0.0   0.0
 1  2   2016-10-10 12:08:38  59984   0.0   0.0
 1  2   2016-10-10 12:03:17  59952   0.0   0.0
 1  2   2016-10-10 11:56:59  60048   0.0   0.0
 1  2   2016-10-10 11:51:34  0   0.0   0.0
 1  2   2016-10-10 11:46:03  59568   0.0   0.0
 1  2   2016-10-10 11:40:30  60160   0.0   0.0
 1  2   2016-10-10 11:35:10  60160   0.0   0.0
 1  2   2016-10-10 11:29:51  0   0.0   0.0
 1  2   2016-10-10 11:24:32  59712   0.0   0.0
 1  2   2016-10-10 11:19:13  59712   0.0   0.0
 1  2   2016-10-10 11:13:52  0   0.0   0.0
 1  2   2016-10-10 11:08:32  0   0.0   0.0
 1  2   2016-10-10 11:03:14  59712   0.0   0.0
 1  2   2016-10-10 10:57:44  59952   0.0   0.0
 1  2   2016-10-10 10:52:16  59904   0.0   0.0
 1  2   2016-10-10 10:46:45  60016   0.0   0.0
 1  2   2016-10-10 10:41:16  59920   0.0   0.0
 1  2   2016-10-10 10:35:42  59984   0.0   0.0
 1  2   2016-10-10 10:30:11  59936   0.0   0.0
 1  2   2016-10-10 10:24:42  59904   0.0   0.0
 1  2   2016-10-10 10:19:12  59920   0.0   0.0
 1  2   2016-10-10 10:13:43  59968   0.0   0.0
 1  2   2016-10-10 10:08:11  59936   0.0   0.0
 1  2   2016-10-10 10:02:34  59888   0.0   0.0
 1  2   2016-10-10 09:57:04  59872   0.0   0.0
 1  2   2016-10-10 09:51:34  59872   0.0   0.0
 1  2   2016-10-10 09:46:04  59904   0.0   0.0
 1  2   2016-10-10 09:40:33  59984   0.0   0.0
 1  2   2016-10-10 09:35:04  60064   0.0   0.0
 1  2   2016-10-10 09:29:10  60128   0.0   0.0
 1  2   2016-10-10 09:23:30  60128   0.0   0.0
 1  2   2016-10-10 09:17:43  60144   0.0   0.0
 1  2   2016-10-10 09:12:02  60128   0.0   0.0
 1  2   2016-10-10 09:06:31  60144   0.0   0.0
 1  2   2016-10-10 09:01:00  60176   0.0   0.0
 1  2   2016-10-10 08:55:31  60208   0.0   0.0
 1  2   2016-10-10 08:49:53  60240   0.0   0.0
 1  2   2016-10-10 08:44:15  60192   0.0   0.0
 1  2   2016-10-10 08:38:38  60224   0.0   0.0
 1  2   2016-10-10 08:33:05  60272   0.0   0.0
 1  2   2016-10-10 08:27:38  60144   0.0   0.0
 1  2   2016-10-10 02:39:10  60208   0.0   0.0
 1  2   2016-10-10 02:33:50  60208   0.0   0.0
 1  2   2016-10-10 02:28:33  0   0.0   0.0
 1  2   2016-10-10 02:23:14  60368   0.0   0.0
 1  2   2016-10-10 02:17:55  60368   0.0   0.0
 1  2   2016-10-10 02:12:35  60272   0.0   0.0
 1  2   2016-10-10 02:07:16  0   0.0   0.0
 1  2   2016-10-10 02:01:56  60176   0.0   0.0
 1  2   2016-10-10 01:56:36  60208   0.0   0.0
 1  2   2016-10-10 01:51:09  60240   0.0   0.0
 1  2   2016-10-10 01:45:51  0   0.0   0.0
 1  2   2016-10-10 01:40:33  60208   0.0   0.0
 1  2   2016-10-10 01:35:13  60128   0.0   0.0
 1  2   2016-10-10 01:29:54  60064   0.0   0.0
 1  2   2016-10-10 01:24:36  60064   0.0   0.0
 1  2   2016-10-10 01:19:18  60064   0.0   0.0
 1  2   2016-10-10 01:13:59  0   0.0   0.0
 1  2   2016-10-10 01:08:41  60064   0.0   0.0
 1  2   2016-10-10 01:03:22  0   0.0   0.0
 1  2   2016-10-10 00:58:00  60080   0.0   0.0
 1  2   2016-10-10 00:52:43  0   0.0   0.0
 1  2   2016-10-10 00:47:24  60112   0.0   0.0
 1  2   2016-10-10 00:42:05  60112   0.0   0.0
 1  2   2016-10-10 00:36:47  0   0.0   0.0
 1  2   2016-10-10 00:31:27  0   0.0   0.0
 1  2   2016-10-10 00:26:08  59968   0.0   0.0
 1  2   2016-10-10 00:20:48  59968   0.0   0.0
 1  2   2016-10-10 00:15:28  60064   0.0   0.0
 1  2   2016-10-10 00:10:07  60240   0.0   0.0
 1  2   2016-10-10 00:04:47  60000   0.0   0.0
 1  2   2016-10-09 23:59:28  60160   0.0   0.0
 1  2   2016-10-09 23:54:09  60160   0.0   0.0
 1  2   2016-10-09 23:48:50  60016   0.0   0.0
 1  2   2016-10-09 23:43:27  0   0.0   0.0
 1  2   2016-10-09 23:38:07  60192   0.0   0.0
 1  2   2016-10-09 23:32:48  60192   0.0   0.0
 1  2   2016-10-09 23:27:30  60192   0.0   0.0
 1  2   2016-10-09 23:22:11  0   0.0   0.0
 1  2   2016-10-09 23:16:54  60192   0.0   0.0
 1  2   2016-10-09 23:11:36  60192   0.0   0.0
 1  2   2016-10-09 23:06:13  60160   0.0   0.0
 1  2   2016-10-09 23:00:54  60000   0.0   0.0
 1  2   2016-10-09 22:55:33  60000   0.0   0.0
 1  2   2016-10-09 22:50:14  0   0.0   0.0
 1  2   2016-10-09 22:44:57  60000   0.0   0.0
 1  2   2016-10-09 22:39:39  60000   0.0   0.0
 1  2   2016-10-09 22:34:19  0   0.0   0.0
 1  2   2016-10-09 22:28:59  60000   0.0   0.0
 1  2   2016-10-09 22:23:41  0   0.0   0.0
 1  2   2016-10-09 22:18:24  60208   0.0   0.0
 1  2   2016-10-09 22:13:05  60208   0.0   0.0
 1  2   2016-10-09 22:07:46  0   0.0   0.0
 1  2   2016-10-09 22:02:28  0   0.0   0.0
 1  2   2016-10-09 21:57:11  0   0.0   0.0
 1  2   2016-10-09 21:51:53  0   0.0   0.0
 1  2   2016-10-09 21:46:32  60208   0.0   0.0
 1  2   2016-10-09 21:41:12  60224   0.0   0.0
 1  2   2016-10-09 21:35:51  0   0.0   0.0
 1  2   2016-10-09 21:30:34  60256   0.0   0.0
 1  2   2016-10-09 21:25:16  0   0.0   0.0
 1  2   2016-10-09 21:19:55  0   0.0   0.0
 1  2   2016-10-09 21:14:36  60256   0.0   0.0
 1  2   2016-10-09 21:09:18  60256   0.0   0.0
 1  2   2016-10-09 21:04:01  0   0.0   0.0
 1  2   2016-10-09 20:58:41  60256   0.0   0.0
 1  2   2016-10-09 20:53:21  60176   0.0   0.0
 1  2   2016-10-09 20:48:02  0   0.0   0.0
 1  2   2016-10-09 20:42:43  60144   0.0   0.0
 1  2   2016-10-09 20:37:23  60144   0.0   0.0
 1  2   2016-10-09 20:32:06  60304   0.0   0.0
 1  2   2016-10-09 20:26:47  0   0.0   0.0
 1  2   2016-10-09 20:21:26  60304   0.0   0.0
 1  2   2016-10-09 20:16:08  60160   0.0   0.0
 1  2   2016-10-09 20:10:49  60160   0.0   0.0
 1  2   2016-10-09 20:05:30  60144   0.0   0.0
 1  2   2016-10-09 20:00:00  60192   0.0   0.0
 1  2   2016-10-09 19:54:41  0   0.0   0.0
 1  2   2016-10-09 19:49:12  60256   0.0   0.0
 1  2   2016-10-09 19:43:43  0   0.0   0.0
 1  2   2016-10-09 19:38:20  60224   0.0   0.0
 1  2   2016-10-09 19:33:00  60304   0.0   0.0
 1  2   2016-10-09 19:27:32  60304   0.0   0.0
 1  2   2016-10-09 19:22:11  60224   0.0   0.0
 1  2   2016-10-09 19:16:42  60208   0.0   0.0
 1  2   2016-10-09 19:11:21  60240   0.0   0.0
 1  2   2016-10-09 18:51:25  60208   0.0   0.0
 1  2   2016-10-09 18:46:03  60096   0.0   0.0
 1  2   2016-10-09 18:39:38  60256   0.0   0.0
 1  2   2016-10-09 18:33:59  60144   0.0   0.0
 1  2   2016-10-09 18:28:23  60240   0.0   0.0
 1  2   2016-10-09 18:23:02  60240   0.0   0.0
 1  2   2016-10-09 18:17:40  61168   0.0   0.0
 1  2   2016-10-09 18:12:19  59968   0.0   0.0
 1  2   2016-10-09 18:06:43  59920   0.0   0.0
 1  2   2016-10-09 18:01:20  59760   0.0   0.0
 1  2   2016-10-09 17:55:58  59872   0.0   0.0
 1  2   2016-10-09 17:50:26  0   0.0   0.0
 1  2   2016-10-09 17:43:21  60144   0.0   0.0
 1  2   2016-10-09 17:37:49  60128   0.0   0.0
 1  2   2016-10-09 17:32:29  60128   0.0   0.0
 1  2   2016-10-09 16:26:23  60000   0.0   0.0
 1  2   2016-10-09 16:20:37  60064   0.0   0.0
 1  2   2016-10-09 16:15:07  60112   0.0   0.0
 1  2   2016-10-09 16:09:15  60128   0.0   0.0
 1  2   2016-10-09 16:03:44  60112   0.0   0.0
 1  2   2016-10-09 15:58:08  60064   0.0   0.0
 1  2   2016-10-09 15:52:36  60048   0.0   0.0
 1  2   2016-10-09 15:45:07  60144   0.0   0.0
 1  2   2016-10-09 15:39:14  60112   0.0   0.0
 1  2   2016-10-09 15:32:07  60128   0.0   0.0
 1  2   2016-10-09 15:25:54  60080   0.0   0.0
 1  2   2016-10-09 15:20:07  60096   0.0   0.0
 1  2   2016-10-09 15:14:32  60176   0.0   0.0
 1  2   2016-10-09 15:08:59  60112   0.0   0.0
 1  2   2016-10-09 15:03:20  60176   0.0   0.0
 1  2   2016-10-09 14:57:51  60096   0.0   0.0
 1  2   2016-10-09 14:52:11  60096   0.0   0.0
 1  2   2016-10-09 14:46:40  60176   0.0   0.0
 1  2   2016-10-09 14:41:07  60080   0.0   0.0
 1  2   2016-10-09 14:35:26  60144   0.0   0.0
 1  2   2016-10-09 14:29:54  60080   0.0   0.0
 1  2   2016-10-09 14:23:18  60096   0.0   0.0
 1  2   2016-10-09 14:17:34  60096   0.0   0.0
 1  2   2016-10-09 14:11:51  60096   0.0   0.0
 1  2   2016-10-09 14:05:14  60112   0.0   0.0
 1  2   2016-10-09 12:33:07  60128   0.0   0.0
 1  2   2016-10-09 12:27:31  60096   0.0   0.0
 1  2   2016-10-09 12:22:00  60064   0.0   0.0
 1  2   2016-10-09 12:16:31  60032   0.0   0.0
 1  2   2016-10-09 12:10:49  60064   0.0   0.0
 1  2   2016-10-09 12:04:51  60048   0.0   0.0
 1  2   2016-10-09 11:59:14  60032   0.0   0.0
 1  2   2016-10-09 11:53:24  59904   0.0   0.0
 1  2   2016-10-09 11:47:36  59936   0.0   0.0
 1  2   2016-10-09 11:42:07  59824   0.0   0.0
 1  2   2016-10-09 11:36:41  59728   0.0   0.0
 1  2   2016-10-09 11:31:08  59712   0.0   0.0
 1  2   2016-10-09 11:25:32  59616   0.0   0.0
 1  2   2016-10-09 11:18:43  59680   0.0   0.0
 1  2   2016-10-09 11:13:03  59792   0.0   0.0
 1  2   2016-10-09 11:07:26  59856   0.0   0.0
 1  2   2016-10-09 11:00:11  60032   0.0   0.0
 1  2   2016-10-09 10:54:36  59968   0.0   0.0
 1  2   2016-10-09 10:48:57  60000   0.0   0.0
 1  2   2016-10-09 10:37:39  60048   0.0   0.0
 1  2   2016-10-09 10:32:09  60112   0.0   0.0
 1  2   2016-10-09 10:26:15  60240   0.0   0.0
 1  2   2016-10-09 10:20:41  60176   0.0   0.0
 1  2   2016-10-09 10:15:10  60176   0.0   0.0
 1  2   2016-10-09 10:09:37  60112   0.0   0.0
 1  2   2016-10-09 10:03:58  60224   0.0   0.0
 1  2   2016-10-09 09:58:27  60160   0.0   0.0
 1  2   2016-10-09 09:52:57  60144   0.0   0.0
 1  2   2016-10-09 09:47:28  60176   0.0   0.0
 1  2   2016-10-09 09:41:58  60192   0.0   0.0
 1  2   2016-10-09 09:36:29  60256   0.0   0.0
 1  2   2016-10-09 09:30:13  60144   0.0   0.0
 1  2   2016-10-09 09:24:29  60208   0.0   0.0
 1  2   2016-10-09 09:18:59  60208   0.0   0.0
 1  2   2016-10-09 09:13:26  60224   0.0   0.0
 1  2   2016-10-09 09:07:56  60240   0.0   0.0
 1  2   2016-10-09 09:02:28  60224   0.0   0.0
 1  2   2016-10-09 08:56:58  60288   0.0   0.0
 1  2   2016-10-09 08:51:22  60272   0.0   0.0
 1  2   2016-10-09 08:45:51  60288   0.0   0.0
 1  2   2016-10-09 08:40:22  60304   0.0   0.0
 1  2   2016-10-09 08:34:55  60416   0.0   0.0
 1  2   2016-10-09 02:17:48  60224  39.3  100.0
 1  2   2016-10-09 02:12:28  60224  39.3  100.0
 1  2   2016-10-09 02:07:09  60224  39.3  100.0
 1  2   2016-10-09 02:01:50  60224  39.3  100.0
 1  2   2016-10-09 01:56:30  60224  39.3  100.0
 1  2   2016-10-09 01:51:13  60320  38.8  100.0
 1  2   2016-10-09 01:45:55  60320  38.8  100.0
 1  2   2016-10-09 01:40:33  60320  38.8  100.0
 1  2   2016-10-09 01:35:14  60288  38.5  100.0
 1  2   2016-10-09 01:29:55  60432  37.9  100.0
 1  2   2016-10-09 01:24:38  0   0.0   0.0
 1  2   2016-10-09 01:19:20  0   0.0   0.0
 1  2   2016-10-09 01:13:59  60384  37.9  100.0
 1  2   2016-10-09 01:08:39  60336  38.1  100.0
 1  2   2016-10-09 01:03:20  60336  38.1  100.0
 1  2   2016-10-09 00:58:01  60336  38.1  100.0
 1  2   2016-10-09 00:52:41  60336  38.6  100.0
 1  2   2016-10-09 00:47:20  60368  38.6  100.0
 1  2   2016-10-09 00:41:55  60416  40.4  100.0
 1  2   2016-10-09 00:36:37  60416  40.4  100.0
 1  2   2016-10-09 00:31:16  60416  40.4  100.0
 1  2   2016-10-09 00:25:55  60288  41.1  100.0
 1  2   2016-10-09 00:20:36  60336  41.4  100.0
 1  2   2016-10-09 00:15:11  59920  41.5  100.0
 1  2   2016-10-09 00:09:50  60272  41.6  100.0
 1  2   2016-10-09 00:04:30  60112  41.7  100.0
 1  2   2016-10-08 23:59:09  60112  41.7  100.0
 1  2   2016-10-08 23:53:44  60112  41.7  100.0
 1  2   2016-10-08 23:48:21  0   0.0   0.0
 1  2   2016-10-08 23:43:02  60288  41.8  100.0
 1  2   2016-10-08 23:37:29  0   0.0   0.0
 1  2   2016-10-08 23:31:55  60288  41.8  100.0
 1  2   2016-10-08 23:26:32  60288  41.8  100.0
 1  2   2016-10-08 23:21:13  60256  41.9  100.0
 1  2   2016-10-08 23:15:41  60256  41.9  100.0
 1  2   2016-10-08 23:10:17  60272  42.0  100.0
 1  2   2016-10-08 23:04:56  60192  42.2  100.0
 1  2   2016-10-08 22:59:36  60192  42.2  100.0
 1  2   2016-10-08 22:54:15  60256  42.2  100.0
 1  2   2016-10-08 22:48:50  0   0.0   0.0
 1  2   2016-10-08 22:43:29  60320  42.5  100.0
 1  2   2016-10-08 22:38:08  60320  42.5  100.0
 1  2   2016-10-08 22:32:36  60192  42.6  100.0
 1  2   2016-10-08 22:27:12  60208  42.6  100.0
 1  2   2016-10-08 22:21:50  0   0.0   0.0
 1  2   2016-10-08 22:16:31  0   0.0   0.0
 1  2   2016-10-08 22:11:09  60512  42.5  100.0
 1  2   2016-10-08 22:05:47  60512  42.5  100.0
 1  2   2016-10-08 22:00:21  60512  42.5  100.0
 1  2   2016-10-08 21:55:01  60208  42.6  100.0
 1  2   2016-10-08 21:49:41  60208  42.6  100.0
 1  2   2016-10-08 21:44:21  0   0.0   0.0
 1  2   2016-10-08 21:39:00  60000  42.7  100.0
 1  2   2016-10-08 21:33:39  60192  42.8  100.0
 1  2   2016-10-08 21:28:21  60112  43.0  100.0
 1  2   2016-10-08 21:23:01  0   0.0   0.0
 1  2   2016-10-08 21:16:36  0   0.0   0.0
 1  2   2016-10-08 21:11:13  60112  43.0  100.0
 1  2   2016-10-08 21:05:17  60112  43.0  100.0
 1  2   2016-10-08 20:59:12  60112  43.0  100.0
 1  2   2016-10-08 20:53:51  60464  43.1  100.0
 1  2   2016-10-08 20:48:22  60464  43.1  100.0
 1  2   2016-10-08 20:42:40  60320  43.1  100.0
 1  2   2016-10-08 20:36:46  60224  43.4  100.0
 1  2   2016-10-08 20:31:22  60224  43.4  100.0
 1  2   2016-10-08 20:26:01  60256  43.4  100.0
 1  2   2016-10-08 20:20:42  60288  43.5  100.0
 1  2   2016-10-08 20:15:10  60176  43.7  100.0
 1  2   2016-10-08 20:09:47  60176  43.7  100.0
 1  2   2016-10-08 20:04:23  60032  44.3  100.0
 1  2   2016-10-08 19:59:03  60032  44.3  100.0
 1  2   2016-10-08 19:53:39  60032  44.3  100.0
 1  2   2016-10-08 19:48:11  0   0.0   0.0
 1  2   2016-10-08 18:42:23  60256  44.3  100.0
 1  2   2016-10-08 18:35:44  0   0.0   0.0
 1  2   2016-10-08 18:30:19  60288  44.7  100.0
 1  2   2016-10-08 18:24:48  60016  45.2  100.0
 1  2   2016-10-08 18:19:20  60016  45.2  100.0
 1  2   2016-10-08 18:14:00  60016  45.2  100.0
 1  2   2016-10-08 18:08:31  60448  45.8  100.0
 1  2   2016-10-08 18:02:57  60448  45.8  100.0
 1  2   2016-10-08 17:38:46  0   0.0   0.0
 1  2   2016-10-08 17:33:23  60112  45.9  100.0
 1  2   2016-10-08 17:27:56  60176  46.2  100.0
 1  2   2016-10-08 17:22:03  60176  46.2  100.0
 1  2   2016-10-08 17:16:12  60112  46.1  100.0
 1  2   2016-10-08 17:10:40  60032  46.1  100.0
 1  2   2016-10-08 17:05:20  60144  46.2  100.0
 1  2   2016-10-08 16:59:49  60240  46.3  100.0
 1  2   2016-10-08 16:54:13  60272  46.7  100.0
 1  2   2016-10-08 16:48:52  60208  46.7  100.0
 1  2   2016-10-08 16:43:32  60224  46.9  100.0
 1  2   2016-10-08 16:38:03  60000  47.2  100.0
 1  2   2016-10-08 15:32:03  60016  47.3  100.0
 1  2   2016-10-08 15:25:42  60144  47.4  100.0
 1  2   2016-10-08 15:20:12  60096  47.3  100.0
 1  2   2016-10-08 15:14:52  60032  47.4  100.0
 1  2   2016-10-08 15:09:14  60032  47.4  100.0
 1  2   2016-10-08 15:03:52  60032  47.4  100.0
 1  2   2016-10-08 14:57:51  60032  47.4  100.0
 1  2   2016-10-08 14:52:23  60032  47.4  100.0
 1  2   2016-10-08 14:47:03  60032  47.4  100.0
 1  2   2016-10-08 14:41:43  59952  47.4  100.0
 1  2   2016-10-08 14:36:19  59920  47.5  100.0
 1  2   2016-10-08 14:30:59  59952  47.5  100.0
 1  2   2016-10-08 14:25:37  60048  47.6  100.0
 1  2   2016-10-08 14:20:13  60304  47.6  100.0
 1  2   2016-10-08 14:14:32  60064  47.8  100.0
 1  2   2016-10-08 14:08:52  0   0.0   0.0
 1  2   2016-10-08 14:03:28  60000  47.8  100.0
 1  2   2016-10-08 13:57:29  59968  48.0  100.0
 1  2   2016-10-08 13:52:10  60416  49.2  100.0
 1  2   2016-10-08 12:41:34  60224  49.2  100.0
 1  2   2016-10-08 12:35:49  60224  49.2  100.0
 1  2   2016-10-08 12:30:14  60224  49.1  100.0
 1  2   2016-10-08 12:24:32  60192  49.3  100.0
 1  2   2016-10-08 12:18:39  60288  49.3  100.0
 1  2   2016-10-08 12:13:01  60192  49.3  100.0
 1  2   2016-10-08 12:07:31  60208  50.0  100.0
 1  2   2016-10-08 12:01:28  60192  49.5  100.0
 1  2   2016-10-08 11:55:54  60208  49.1  100.0
 1  2   2016-10-08 11:50:20  60208  49.1  100.0
 1  2   2016-10-08 11:44:45  60224  49.2  100.0
 1  2   2016-10-08 11:39:01  60144  49.2  100.0
 1  2   2016-10-08 11:32:56  60064  49.2  100.0
 1  2   2016-10-08 11:27:23  60112  49.6  100.0
 1  2   2016-10-08 11:20:35  59968  49.3  100.0
 1  2   2016-10-08 10:57:18  60144  48.3  100.0
 1  2   2016-10-08 10:51:48  60144  48.0  100.0
 1  2   2016-10-08 10:45:35  60144  47.7  100.0
 1  2   2016-10-08 10:40:02  60192  48.7  100.0
 1  2   2016-10-08 10:34:31  60160  48.5  100.0
 1  2   2016-10-08 10:28:59  60112  47.8  100.0
 1  2   2016-10-08 10:23:29  60176   0.0   0.0
 1  2   2016-10-08 10:18:00  60160   0.0   0.0
 1  2   2016-10-08 10:12:30  60160   0.0   0.0
 1  2   2016-10-08 10:07:01  60192   0.0   0.0
 1  2   2016-10-08 10:01:30  60176   0.0   0.0
 1  2   2016-10-08 09:56:02  60144   0.0   0.0
 1  2   2016-10-08 09:50:32  60192   0.0   0.0
 1  2   2016-10-08 09:45:03  60208   0.0   0.0
 1  2   2016-10-08 09:39:33  60176   0.0   0.0
 1  2   2016-10-08 09:34:02  60224   0.0   0.0
 1  2   2016-10-08 09:28:34  60144   0.0   0.0
 1  2   2016-10-08 09:23:03  60128   0.0   0.0
 1  2   2016-10-08 09:17:35  60240   0.0   0.0
 1  2   2016-10-08 09:12:04  60224   0.0   0.0
 1  2   2016-10-08 09:06:36  60272   0.0   0.0
 1  2   2016-10-08 09:01:06  60288   0.0   0.0
 1  2   2016-10-08 08:55:36  60240   0.0   0.0
 1  2   2016-10-08 08:50:06  60256   0.0   0.0
 1  2   2016-10-08 08:44:37  60256   0.0   0.0
 1  2   2016-10-08 08:39:08  60320   0.0   0.0
 1  2   2016-10-08 08:33:37  60288   0.0   0.0
 1  2   2016-10-08 08:28:09  60320   0.0   0.0
 1  2   2016-10-08 08:22:38  60320   0.0   0.0
 1  2   2016-10-08 08:17:09  60320   0.0   0.0
 1  2   2016-10-08 08:10:20  60384   0.0   0.0
 1  2   2016-10-07 12:38:39  60224   0.0   0.0
 1  2   2016-10-07 12:24:08  60272   0.0   0.0
 1  2   2016-10-07 12:09:55  60304   0.0   0.0
 1  2   2016-10-07 11:51:43  60240   0.0   0.0
 1  2   2016-10-07 11:45:36  60272   0.0   0.0
 1  2   2016-10-07 10:32:17  60304   0.0   0.0
 1  2   2016-10-07 10:24:06  60352   0.0   0.0
 1  2   2016-10-07 10:18:29  60480   0.0   0.0
 1  2   2016-10-07 10:12:57  60512   0.0   0.0
 1  2   2016-10-07 10:07:21  60464   0.0   0.0
 1  2   2016-10-07 10:01:50  60464   0.0   0.0
 1  2   2016-10-07 09:56:19  60464   0.0   0.0
 1  2   2016-10-07 09:50:48  60464   0.0   0.0
 1  2   2016-10-07 09:45:19  60464   0.0   0.0
 1  2   2016-10-07 09:39:50  60480   0.0   0.0
 1  2   2016-10-07 09:34:19  60496   0.0   0.0
 1  2   2016-10-07 09:28:50  60480   0.0   0.0
 1  2   2016-10-07 09:23:21  60480   0.0   0.0
 1  2   2016-10-07 09:17:51  60448   0.0   0.0
 1  2   2016-10-07 09:12:23  60496   0.0   0.0
 1  2   2016-10-07 09:06:51  60560   0.0   0.0
 1  2   2016-10-07 09:01:18  60544   0.0   0.0
 1  2   2016-10-07 08:55:48  60544   0.0   0.0
 1  2   2016-10-07 08:50:17  60576   0.0   0.0
 1  2   2016-10-07 08:44:49  60608   0.0   0.0
 1  2   2016-10-07 08:38:52  60528   0.0   0.0
 1  2   2016-10-06 17:04:44  60528   0.0   0.0
 1  2   2016-10-06 16:59:13  60320   0.0   0.0
 1  2   2016-10-06 15:53:10  60560   0.0   0.0
 1  2   2016-10-06 15:47:19  60544   0.0   0.0
 1  2   2016-10-06 15:31:41  60496   0.0   0.0
 1  2   2016-10-06 15:20:21  60464   0.0   0.0
 1  2   2016-10-06 15:14:49  60464   0.0   0.0
 1  2   2016-10-06 15:09:19  60448   0.0   0.0
 1  2   2016-10-06 15:03:50  60400   0.0   0.0
 1  2   2016-10-06 14:58:20  60464   0.0   0.0
 1  2   2016-10-06 14:52:51  60432   0.0   0.0
 1  2   2016-10-06 14:47:21  60480   0.0   0.0
 1  2   2016-10-06 14:41:52  60432   0.0   0.0
 1  2   2016-10-06 14:36:20  60480   0.0   0.0
 1  2   2016-10-06 14:30:47  60368   0.0   0.0
 1  2   2016-10-06 14:25:18  60384   0.0   0.0
 1  2   2016-10-06 14:19:49  60432   0.0   0.0
 1  2   2016-10-06 14:14:19  60432   0.0   0.0
 1  2   2016-10-06 14:08:46  60400   0.0   0.0
 1  2   2016-10-06 14:03:15  60400   0.0   0.0
 1  2   2016-10-06 13:57:42  60400   0.0   0.0
 1  2   2016-10-06 13:52:13  60384   0.0   0.0
 1  2   2016-10-06 13:46:41  60448   0.0   0.0
 1  2   2016-10-06 13:41:10  60480   0.0   0.0
 1  2   2016-10-06 13:35:38  60416   0.0   0.0
 1  2   2016-10-06 13:30:08  60448   0.0   0.0
 1  2   2016-10-06 13:24:37  60384   0.0   0.0
 1  2   2016-10-06 13:19:04  60384   0.0   0.0
 1  2   2016-10-06 13:13:32  60384   0.0   0.0
 1  2   2016-10-06 13:07:59  60480   0.0   0.0
 1  2   2016-10-06 13:02:28  60432   0.0   0.0
 1  2   2016-10-06 12:56:54  60352   0.0   0.0
 1  2   2016-10-06 12:51:22  60352   0.0   0.0
 1  2   2016-10-06 12:45:49  60400   0.0   0.0
 1  2   2016-10-06 12:40:18  60384   0.0   0.0
 1  2   2016-10-06 12:34:44  60320   0.0   0.0
 1  2   2016-10-06 12:29:11  60288   0.0   0.0
 1  2   2016-10-06 12:23:41  60464   0.0   0.0
 1  2   2016-10-06 12:18:09  60384   0.0   0.0
 1  2   2016-10-06 12:12:37  60416   0.0   0.0
 1  2   2016-10-06 12:07:08  60320   0.0   0.0
 1  2   2016-10-06 12:01:39  60320   0.0   0.0
 1  2   2016-10-06 11:56:10  60368   0.0   0.0
 1  2   2016-10-06 11:50:39  60272   0.0   0.0
 1  2   2016-10-06 11:45:10  60448   0.0   0.0
 1  2   2016-10-06 11:39:40  60352   0.0   0.0
 1  2   2016-10-06 11:34:10  60368   0.0   0.0
 1  2   2016-10-06 11:28:38  60336   0.0   0.0
 1  2   2016-10-06 11:23:08  60272   0.0   0.0
 1  2   2016-10-06 11:17:36  60384   0.0   0.0
 1  2   2016-10-06 11:12:04  60320   0.0   0.0
 1  2   2016-10-06 11:06:32  60368   0.0   0.0
 1  2   2016-10-06 11:01:00  60368   0.0   0.0
 1  2   2016-10-06 10:55:30  60416   0.0   0.0
 1  2   2016-10-06 10:49:59  60416   0.0   0.0
 1  2   2016-10-06 10:44:30  60464   0.0   0.0
 1  2   2016-10-06 10:39:00  60320   0.0   0.0
 1  2   2016-10-06 10:33:30  60432   0.0   0.0
 1  2   2016-10-06 10:27:59  60464   0.0   0.0
 1  2   2016-10-06 10:22:30  60384   0.0   0.0
 1  2   2016-10-06 10:17:01  60384   0.0   0.0
 1  2   2016-10-06 10:11:30  60336   0.0   0.0
 1  2   2016-10-06 10:06:01  60400   0.0   0.0
 1  2   2016-10-06 10:00:31  60384   0.0   0.0
 1  2   2016-10-06 09:55:03  60368   0.0   0.0
 1  2   2016-10-06 09:49:32  60368   0.0   0.0
 1  2   2016-10-06 09:44:03  60416   0.0   0.0
 1  2   2016-10-06 09:38:32  60368   0.0   0.0
 1  2   2016-10-06 09:33:01  60368   0.0   0.0
 1  2   2016-10-06 09:27:33  60416   0.0   0.0
 1  2   2016-10-06 09:22:02  60384   0.0   0.0
 1  2   2016-10-06 09:16:30  60400   0.0   0.0
 1  2   2016-10-06 09:10:58  60384   0.0   0.0
 1  2   2016-10-06 09:05:28  60448   0.0   0.0
 1  2   2016-10-06 08:59:58  60480   0.0   0.0
 1  2   2016-10-06 08:54:29  60464   0.0   0.0
 1  2   2016-10-06 08:48:59  60448   0.0   0.0
 1  2   2016-10-06 08:43:30  60464   0.0   0.0
 1  2   2016-10-06 08:38:00  60432   0.0   0.0
 1  2   2016-10-06 08:32:31  60496   0.0   0.0
 1  2   2016-10-06 08:27:04  60496   0.0   0.0
 1  2   2016-10-06 02:31:09  0   0.0   0.0
 1  2   2016-10-06 02:25:47  60592  35.3  100.0
 1  2   2016-10-06 02:20:27  60576  34.9  100.0
 1  2   2016-10-06 02:15:09  60624  35.9  100.0
 1  2   2016-10-06 02:09:51  60624  35.9  100.0
 1  2   2016-10-06 02:04:33  0   0.0   0.0
 1  2   2016-10-06 01:59:14  60560  35.4  100.0
 1  2   2016-10-06 01:53:56  60560  35.4  100.0
 1  2   2016-10-06 01:48:38  60560  35.4  100.0
 1  2   2016-10-06 01:43:19  60544  35.4  100.0
 1  2   2016-10-06 01:38:00  0   0.0   0.0
 1  2   2016-10-06 01:32:41  60528  35.8  100.0
 1  2   2016-10-06 01:27:23  60528  35.8  100.0
 1  2   2016-10-06 01:22:03  60528  35.8  100.0
 1  2   2016-10-06 01:16:45  0   0.0   0.0
 1  2   2016-10-06 01:11:25  60528  35.8  100.0
 1  2   2016-10-06 01:06:05  60496  35.6  100.0
 1  2   2016-10-06 01:00:48  0   0.0   0.0
 1  2   2016-10-06 00:55:22  60496  35.6  100.0
 1  2   2016-10-06 00:50:04  60496  38.2  100.0
 1  2   2016-10-06 00:44:47  60496  38.2  100.0
 1  2   2016-10-06 00:39:28  60496  38.2  100.0
 1  2   2016-10-06 00:34:09  60496  38.2  100.0
 1  2   2016-10-06 00:28:51  60496  38.2  100.0
 1  2   2016-10-06 00:23:33  0   0.0   0.0
 1  2   2016-10-06 00:18:15  60496  38.2  100.0
 1  2   2016-10-06 00:12:55  60496  38.2  100.0
 1  2   2016-10-06 00:07:35  60496  38.2  100.0
 1  2   2016-10-06 00:02:14  60496  38.2  100.0
 1  2   2016-10-05 23:56:56  60496  38.2  100.0
 1  2   2016-10-05 23:51:39  60496  38.2  100.0
 1  2   2016-10-05 23:46:20  60496  38.2  100.0
 1  2   2016-10-05 23:41:01  60496  38.2  100.0
 1  2   2016-10-05 23:35:42  0   0.0   0.0
 1  2   2016-10-05 23:30:20  0   0.0   0.0
 1  2   2016-10-05 23:24:58  60496  38.2  100.0
 1  2   2016-10-05 23:19:39  60544  39.2  100.0
 1  2   2016-10-05 23:14:19  60544  39.2  100.0
 1  2   2016-10-05 23:09:00  60544  39.2  100.0
 1  2   2016-10-05 23:03:39  0   0.0   0.0
 1  2   2016-10-05 22:58:19  60544  39.2  100.0
 1  2   2016-10-05 22:53:01  60544  39.2  100.0
 1  2   2016-10-05 22:47:40  0   0.0   0.0
 1  2   2016-10-05 22:42:21  0   0.0   0.0
 1  2   2016-10-05 22:37:02  60544  39.2  100.0
 1  2   2016-10-05 22:31:44  0   0.0   0.0
 1  2   2016-10-05 22:26:26  60544  39.2  100.0
 1  2   2016-10-05 22:21:06  0   0.0   0.0
 1  2   2016-10-05 22:15:47  0   0.0   0.0
 1  2   2016-10-05 22:10:25  60544  39.2  100.0
 1  2   2016-10-05 22:05:07  60544  39.2  100.0
 1  2   2016-10-05 21:59:47  60544  39.2  100.0
 1  2   2016-10-05 21:54:27  60544  39.2  100.0
 1  2   2016-10-05 21:49:05  60512  39.2  100.0
 1  2   2016-10-05 21:43:46  60496  39.6  100.0
 1  2   2016-10-05 21:38:26  60496  39.6  100.0
 1  2   2016-10-05 21:33:08  0   0.0   0.0
 1  2   2016-10-05 21:27:49  0   0.0   0.0
 1  2   2016-10-05 21:22:28  60544  39.6  100.0
 1  2   2016-10-05 21:17:09  60752  40.0  100.0
 1  2   2016-10-05 21:11:50  60752  40.0  100.0
 1  2   2016-10-05 21:06:29  60752  40.0  100.0
 1  2   2016-10-05 21:01:03  60752  40.0  100.0
 1  2   2016-10-05 20:55:44  60736  40.2  100.0
 1  2   2016-10-05 20:50:21  60464  40.3  100.0
 1  2   2016-10-05 20:45:00  60480  40.5  100.0
 1  2   2016-10-05 20:39:32  60480  40.5  100.0
 1  2   2016-10-05 20:34:11  60576  41.1  100.0
 1  2   2016-10-05 20:28:53  60576  41.1  100.0
 1  2   2016-10-05 20:23:33  0   0.0   0.0
 1  2   2016-10-05 20:18:15  60576  41.1  100.0
 1  2   2016-10-05 20:12:55  60576  41.1  100.0
 1  2   2016-10-05 20:07:34  60544  41.3  100.0
 1  2   2016-10-05 20:02:14  60368  41.6  100.0
 1  2   2016-10-05 19:56:56  60368  43.2  100.0
 1  2   2016-10-05 19:51:37  60368  43.2  100.0
 1  2   2016-10-05 19:46:17  0   0.0   0.0
 1  2   2016-10-05 19:41:00  0   0.0   0.0
 1  2   2016-10-05 19:35:40  60368  43.2  100.0
 1  2   2016-10-05 19:30:22  60368  43.2  100.0
 1  2   2016-10-05 19:25:05  60368  43.2  100.0
 1  2   2016-10-05 19:19:47  60368  43.2  100.0
 1  2   2016-10-05 19:14:27  60368  43.2  100.0
 1  2   2016-10-05 19:09:09  60368  43.2  100.0
 1  2   2016-10-05 19:03:50  60368  43.2  100.0
 1  2   2016-10-05 18:57:33  60352  43.2  100.0
 1  2   2016-10-05 18:51:17  60320  43.4  100.0
 1  2   2016-10-05 18:45:13  60320  43.4  100.0
 1  2   2016-10-05 18:39:53  60592  43.9  100.0
 1  2   2016-10-05 18:34:33  60592  43.9  100.0
 1  2   2016-10-05 18:29:13  60592  43.9  100.0
 1  2   2016-10-05 18:23:52  0   0.0   0.0
 1  2   2016-10-05 18:18:33  60592  43.9  100.0
 1  2   2016-10-05 18:13:12  60544  43.9  100.0
 1  2   2016-10-05 18:07:54  60576  43.9  100.0
 1  2   2016-10-05 18:02:33  60672  44.3  100.0
 1  2   2016-10-05 17:57:13  0   0.0   0.0
 1  2   2016-10-05 17:51:52  60672  44.3  100.0
 1  2   2016-10-05 17:46:32  60496  44.5  100.0
 1  2   2016-10-05 17:41:12  60576  44.8  100.0
 1  2   2016-10-05 17:35:52  60640  45.0  100.0
 1  2   2016-10-05 17:30:31  60432  45.3  100.0
 1  2   2016-10-05 17:24:27  60464  45.7  100.0
 1  2   2016-10-05 17:19:04  60464  45.7  100.0
 1  2   2016-10-05 17:13:29  60448  45.7  100.0
 1  2   2016-10-05 17:07:57  60480  45.7  100.0
 1  2   2016-10-05 17:01:42  60576  45.6  100.0
 1  2   2016-10-05 16:56:13  60576  45.7  100.0
 1  2   2016-10-05 16:50:37  60448  45.8  100.0
 1  2   2016-10-05 16:45:00  60528  45.7  100.0
 1  2   2016-10-05 16:39:30  60480  45.6  100.0
 1  2   2016-10-05 16:33:48  60448  45.7  100.0
 1  2   2016-10-05 16:28:09  60496  45.7  100.0
 1  2   2016-10-05 16:22:39  60480  45.7  100.0
 1  2   2016-10-05 16:17:08  60512  45.7  100.0
 1  2   2016-10-05 16:11:37  60416  45.7  100.0
 1  2   2016-10-05 16:06:05  60352  45.5  100.0
 1  2   2016-10-05 16:00:33  60432  45.6  100.0
 1  2   2016-10-05 15:55:02  60368  45.7  100.0
 1  2   2016-10-05 15:49:24  60400  45.7  100.0
 1  2   2016-10-05 15:43:49  60432  45.7  100.0
 1  2   2016-10-05 15:38:19  60448  45.7  100.0
 1  2   2016-10-05 15:32:49  60336  45.7  100.0
 1  2   2016-10-05 15:27:19  60352  45.6  100.0
 1  2   2016-10-05 15:21:48  60352  45.4  100.0
 1  2   2016-10-05 15:16:19  60400  45.3  100.0
 1  2   2016-10-05 15:10:51  60400  45.3  100.0
 1  2   2016-10-05 15:05:11  60400  45.2  100.0
 1  2   2016-10-05 14:59:41  60464  45.2  100.0
 1  2   2016-10-05 14:54:11  60544  45.2  100.0
 1  2   2016-10-05 14:48:32  60400  45.3  100.0
 1  2   2016-10-05 14:43:03  60528  45.3  100.0
 1  2   2016-10-05 14:37:33  60512  45.3  100.0
 1  2   2016-10-05 14:32:05  60480  45.5  100.0
 1  2   2016-10-05 14:26:34  60496  45.5  100.0
 1  2   2016-10-05 14:20:49  60432  45.5  100.0
 1  2   2016-10-05 14:14:37  60544  45.5  100.0
 1  2   2016-10-05 14:08:56  60352  45.6  100.0
 1  2   2016-10-05 14:03:26  60384  45.5  100.0
 1  2   2016-10-05 13:57:58  60496  45.3  100.0
 1  2   2016-10-05 13:52:27  60416  45.4  100.0
 1  2   2016-10-05 13:46:56  60544  45.3  100.0
 1  2   2016-10-05 13:41:28  60448  45.3  100.0
 1  2   2016-10-05 13:35:59  60496  45.1  100.0
 1  2   2016-10-05 13:30:29  60416  45.2  100.0
 1  2   2016-10-05 13:24:59  60496  45.2  100.0
 1  2   2016-10-05 13:19:28  60464  45.2  100.0
 1  2   2016-10-05 13:13:55  60528  45.2  100.0
 1  2   2016-10-05 13:08:25  60496  45.2  100.0
 1  2   2016-10-05 13:02:50  60480  45.2  100.0
 1  2   2016-10-05 12:57:21  60480  45.3  100.0
 1  2   2016-10-05 12:51:51  60480  45.3  100.0
 1  2   2016-10-05 12:46:21  60592  45.3  100.0
 1  2   2016-10-05 12:40:50  60464  45.4  100.0
 1  2   2016-10-05 12:35:21  60528  45.4  100.0
 1  2   2016-10-05 12:29:51  60480  45.5  100.0
 1  2   2016-10-05 12:24:22  60496  45.6  100.0
 1  2   2016-10-05 12:18:50  60480  45.6  100.0
 1  2   2016-10-05 12:13:20  60448  45.6  100.0
 1  2   2016-10-05 12:07:49  60528  45.5  100.0
 1  2   2016-10-05 12:02:20  60480  45.3  100.0
 1  2   2016-10-05 11:56:51  60464  45.1  100.0
 1  2   2016-10-05 11:51:20  60512  45.1  100.0
 1  2   2016-10-05 11:45:51  60560  45.0  100.0
 1  2   2016-10-05 11:40:22  60544  45.0  100.0
 1  2   2016-10-05 11:34:51  60560  44.8  100.0
 1  2   2016-10-05 11:29:23  60512  44.8  100.0
 1  2   2016-10-05 11:23:53  60528  44.6  100.0
 1  2   2016-10-05 11:18:23  60544  44.5  100.0
 1  2   2016-10-05 11:12:54  60544  44.5  100.0
 1  2   2016-10-05 11:07:24  60512  44.4  100.0
 1  2   2016-10-05 11:01:54  60544  44.4  100.0
 1  2   2016-10-05 10:56:23  60608  44.4  100.0
 1  2   2016-10-05 10:50:54  60560  44.3  100.0
 1  2   2016-10-05 10:45:23  60560  44.2  100.0
 1  2   2016-10-05 10:39:55  60544  44.2  100.0
 1  2   2016-10-05 10:34:25  60624  44.0  100.0
 1  2   2016-10-05 10:28:55  60576  44.0  100.0
 1  2   2016-10-05 10:23:25  60624  43.9  100.0
 1  2   2016-10-05 10:17:56  60576  43.9  100.0
 1  2   2016-10-05 10:12:26  60608  43.8  100.0
 1  2   2016-10-05 10:06:57  60688  43.7  100.0
 1  2   2016-10-05 10:01:27  60624  43.5  100.0
 1  2   2016-10-05 09:55:56  60608  43.4  100.0
 1  2   2016-10-05 09:50:26  60624  43.2  100.0
 1  2   2016-10-05 09:44:56  60784  43.0  100.0
 1  2   2016-10-05 09:39:26  60704  42.8  100.0
 1  2   2016-10-05 09:33:57  60752  42.6  100.0
 1  2   2016-10-05 09:28:29  60704  42.3  100.0
 1  2   2016-10-05 09:22:59  60704  42.1  100.0
 1  2   2016-10-05 09:17:32  60896  41.8  100.0
 1  2   2016-10-05 09:11:55  60736  41.6  100.0
 1  2   2016-10-05 09:06:27  60720  41.2  100.0
 1  2   2016-10-05 09:00:56  60704  40.5  100.0
 1  2   2016-10-05 08:55:27  60688  40.0  100.0
 1  2   2016-10-05 08:49:59  60848  39.5  100.0
 1  2   2016-10-03 23:16:19  0   0.0   0.0
 1  2   2016-10-03 23:11:02  60688   0.0   0.0
 1  2   2016-10-03 23:05:47  60704   0.0   0.0
 1  2   2016-10-03 23:00:31  60704   0.0   0.0
 1  2   2016-10-03 22:55:13  60704   0.0   0.0
 1  2   2016-10-03 22:49:57  60704   0.0   0.0
 1  2   2016-10-03 22:44:41  60720   0.0   0.0
 1  2   2016-10-03 22:39:24  60688   0.0   0.0
 1  2   2016-10-03 22:34:08  0   0.0   0.0
 1  2   2016-10-03 22:28:52  60688   0.0   0.0
 1  2   2016-10-03 22:23:37  0   0.0   0.0
 1  2   2016-10-03 22:18:20  60784   0.0   0.0
 1  2   2016-10-03 22:13:04  60688   0.0   0.0
 1  2   2016-10-03 22:07:47  60688   0.0   0.0
 1  2   2016-10-03 22:02:32  60688   0.0   0.0
 1  2   2016-10-03 21:57:15  60688   0.0   0.0
 1  2   2016-10-03 21:51:57  60688   0.0   0.0
 1  2   2016-10-03 21:46:41  60640   0.0   0.0
 1  2   2016-10-03 21:41:25  60640   0.0   0.0
 1  2   2016-10-03 21:36:07  60640   0.0   0.0
 1  2   2016-10-03 21:30:52  0   0.0   0.0
 1  2   2016-10-03 21:25:36  60640   0.0   0.0
 1  2   2016-10-03 21:20:19  0   0.0   0.0
 1  2   2016-10-03 21:15:04  0   0.0   0.0
 1  2   2016-10-03 21:09:48  60640   0.0   0.0
 1  2   2016-10-03 21:04:32  60640   0.0   0.0
 1  2   2016-10-03 20:59:16  0   0.0   0.0
 1  2   2016-10-03 20:53:55  60704   0.0   0.0
 1  2   2016-10-03 20:48:39  60736   0.0   0.0
 1  2   2016-10-03 20:43:22  60640   0.0   0.0
 1  2   2016-10-03 20:38:07  60640   0.0   0.0
 1  2   2016-10-03 20:32:50  0   0.0   0.0
 1  2   2016-10-03 20:27:34  60752   0.0   0.0
 1  2   2016-10-03 20:22:17  60752   0.0   0.0
 1  2   2016-10-03 20:17:01  0   0.0   0.0
 1  2   2016-10-03 20:11:44  0   0.0   0.0
 1  2   2016-10-03 20:06:29  60752   0.0   0.0
 1  2   2016-10-03 20:01:11  60752   0.0   0.0
 1  2   2016-10-03 19:55:55  60656   0.0   0.0
 1  2   2016-10-03 19:50:38  60960   0.0   0.0
 1  2   2016-10-03 19:45:22  0   0.0   0.0
 1  2   2016-10-03 19:40:07  60768   0.0   0.0
 1  2   2016-10-03 19:34:51  60768   0.0   0.0
 1  2   2016-10-03 19:29:34  60768   0.0   0.0
 1  2   2016-10-03 19:24:17  60736   0.0   0.0
 1  2   2016-10-03 19:19:01  60608   0.0   0.0
 1  2   2016-10-03 19:13:43  60752   0.0   0.0
 1  2   2016-10-03 19:08:28  60752   0.0   0.0
 1  2   2016-10-03 19:03:11  60752   0.0   0.0
 1  2   2016-10-03 18:57:53  60752   0.0   0.0
 1  2   2016-10-03 18:52:37  60752   0.0   0.0
 1  2   2016-10-03 18:47:21  60752   0.0   0.0
 1  2   2016-10-03 18:42:05  60752   0.0   0.0
 1  2   2016-10-03 18:36:48  0   0.0   0.0
 1  2   2016-10-03 18:31:32  0   0.0   0.0
 1  2   2016-10-03 18:26:15  60672   0.0   0.0
 1  2   2016-10-03 18:20:51  60832   0.0   0.0
 1  2   2016-10-03 18:15:34  60832   0.0   0.0
 1  2   2016-10-03 18:10:17  60832   0.0   0.0
 1  2   2016-10-03 18:05:01  60880   0.0   0.0
 1  2   2016-10-03 17:59:44  60928   0.0   0.0
 1  2   2016-10-03 17:54:28  0   0.0   0.0
 1  2   2016-10-03 17:49:11  60576   0.0   0.0
 1  2   2016-10-03 17:43:55  0   0.0   0.0
 1  2   2016-10-03 17:38:39  60576   0.0   0.0
 1  2   2016-10-03 17:33:22  0   0.0   0.0
 1  2   2016-10-03 17:28:06  60848   0.0   0.0
 1  2   2016-10-03 17:22:49  0   0.0   0.0
 1  2   2016-10-03 17:17:32  60784   0.0   0.0
 1  2   2016-10-03 17:12:15  0   0.0   0.0
 1  2   2016-10-03 17:07:00  60880   0.0   0.0
 1  2   2016-10-03 17:01:43  60880   0.0   0.0
 1  2   2016-10-03 16:56:25  60880   0.0   0.0
 1  2   2016-10-03 16:51:07  60592   0.0   0.0
 1  2   2016-10-03 16:45:51  60608   0.0   0.0
 1  2   2016-10-03 16:40:34  60560   0.0   0.0
 1  2   2016-10-03 16:35:18  60592   0.0   0.0
 1  2   2016-10-03 16:30:00  0   0.0   0.0
 1  2   2016-10-03 16:24:28  60720   0.0   0.0
 1  2   2016-10-03 16:19:11  60720   0.0   0.0
 1  2   2016-10-03 16:13:33  60736   0.0   0.0
 1  2   2016-10-03 16:08:04  60656   0.0   0.0
 1  2   2016-10-03 16:02:38  60624   0.0   0.0
 1  2   2016-10-03 15:57:12  60672   0.0   0.0
 1  2   2016-10-03 15:51:27  60704   0.0   0.0
 1  2   2016-10-03 15:46:00  60688   0.0   0.0
 1  2   2016-10-03 15:40:33  60672   0.0   0.0
 1  2   2016-10-03 15:35:06  60656   0.0   0.0
 1  2   2016-10-03 15:29:40  60704   0.0   0.0
 1  2   2016-10-03 15:24:14  60608   0.0   0.0
 1  2   2016-10-03 15:18:46  60672   0.0   0.0
 1  2   2016-10-03 15:13:16  60624   0.0   0.0
 1  2   2016-10-03 15:07:41  60640   0.0   0.0
 1  2   2016-10-03 15:02:14  60624   0.0   0.0
 1  2   2016-10-03 14:55:38  60656   0.0   0.0
 1  2   2016-10-03 14:50:04  60608   0.0   0.0
 1  2   2016-10-03 14:29:14  60656   0.0   0.0
 1  2   2016-10-03 14:23:47  60640   0.0   0.0
 1  2   2016-10-03 14:18:16  60688   0.0   0.0
 1  2   2016-10-03 14:12:48  60576   0.0   0.0
 1  2   2016-10-03 14:07:21  60672   0.0   0.0
 1  2   2016-10-03 14:01:55  60624   0.0   0.0
 1  2   2016-10-03 13:55:08  60656   0.0   0.0
 1  2   2016-10-03 13:49:39  60624   0.0   0.0
 1  2   2016-10-03 13:44:12  60688   0.0   0.0
 1  2   2016-10-03 13:38:44  60640   0.0   0.0
 1  2   2016-10-03 13:33:17  60672   0.0   0.0
 1  2   2016-10-03 13:27:48  60624   0.0   0.0
 1  2   2016-10-03 13:22:20  60608   0.0   0.0
 1  2   2016-10-03 13:16:52  60672   0.0   0.0
 1  2   2016-10-03 13:11:23  60656   0.0   0.0
 1  2   2016-10-03 13:05:55  60656   0.0   0.0
 1  2   2016-10-03 13:00:27  60640   0.0   0.0
 1  2   2016-10-03 12:55:00  60672   0.0   0.0
 1  2   2016-10-03 12:49:32  60704   0.0   0.0
 1  2   2016-10-03 12:44:03  60640   0.0   0.0
 1  2   2016-10-03 12:38:32  60688   0.0   0.0
 1  2   2016-10-03 12:26:48  60672   0.0   0.0
 1  2   2016-10-03 12:21:16  60704   0.0   0.0
 1  2   2016-10-03 12:15:44  60672   0.0   0.0
 1  2   2016-10-03 12:10:13  60688   0.0   0.0
 1  2   2016-10-03 12:04:34  60704   0.0   0.0
 1  2   2016-10-03 11:59:00  60688   0.0   0.0
 1  2   2016-10-03 11:53:29  60592   0.0   0.0
 1  2   2016-10-03 11:48:00  60560   0.0   0.0
 1  2   2016-10-03 11:42:30  60544   0.0   0.0
 1  2   2016-10-03 11:36:57  60560   0.0   0.0
 1  2   2016-10-03 11:31:26  60496   0.0   0.0
 1  2   2016-10-03 11:25:57  60496   0.0   0.0
 1  2   2016-10-03 11:20:19  60544   0.0   0.0
 1  2   2016-10-03 11:14:47  60496   0.0   0.0
 1  2   2016-10-03 11:09:18  60480   0.0   0.0
 1  2   2016-10-03 11:03:46  60496   0.0   0.0
 1  2   2016-10-03 10:58:14  60512   0.0   0.0
 1  2   2016-10-03 10:52:42  60512   0.0   0.0
 1  2   2016-10-03 10:47:11  60512   0.0   0.0
 1  2   2016-10-03 10:41:35  60448   0.0   0.0
 1  2   2016-10-03 10:36:06  60528   0.0   0.0
 1  2   2016-10-03 10:30:37  60480   0.0   0.0
 1  2   2016-10-03 10:25:06  60320   0.0   0.0
 1  2   2016-10-03 10:19:37  60320   0.0   0.0
 1  2   2016-10-03 10:14:07  60320   0.0   0.0
 1  2   2016-10-03 10:08:37  60368   0.0   0.0
 1  2   2016-10-03 10:03:07  60400   0.0   0.0
 1  2   2016-10-03 09:57:38  60432   0.0   0.0
 1  2   2016-10-03 09:52:08  60432   0.0   0.0
 1  2   2016-10-03 09:46:39  60512   0.0   0.0
 1  2   2016-10-03 09:41:09  60544   0.0   0.0
 1  2   2016-10-03 09:35:40  60544   0.0   0.0
 1  2   2016-10-03 09:30:11  60624   0.0   0.0
 1  2   2016-10-03 09:24:41  60624   0.0   0.0
 1  2   2016-10-03 09:19:11  60672   0.0   0.0
 1  2   2016-10-03 09:13:42  60640   0.0   0.0
 1  2   2016-10-03 09:08:12  60624   0.0   0.0
 1  2   2016-10-03 09:02:42  60640   0.0   0.0
 1  2   2016-10-03 08:57:13  60672   0.0   0.0
 1  2   2016-10-03 08:51:44  60640   0.0   0.0
 1  2   2016-10-03 08:46:14  60640   0.0   0.0
 1  2   2016-10-03 08:40:44  60608   0.0   0.0
 1  2   2016-10-03 08:35:14  60640   0.0   0.0
 1  2   2016-10-03 08:29:46  60608   0.0   0.0
 1  2   2016-10-03 08:24:16  60640   0.0   0.0
 1  2   2016-10-03 08:18:50  60576   0.0   0.0
 1  2   2016-10-03 03:13:44  60608   0.0   0.0
 1  2   2016-10-03 03:08:25  0   0.0   0.0
 1  2   2016-10-03 03:03:07  0   0.0   0.0
 1  2   2016-10-03 02:57:49  0   0.0   0.0
 1  2   2016-10-03 02:52:31  0   0.0   0.0
 1  2   2016-10-03 02:47:13  60608   0.0   0.0
 1  2   2016-10-03 02:41:54  0   0.0   0.0
 1  2   2016-10-03 02:36:35  60608   0.0   0.0
 1  2   2016-10-03 02:31:14  60608   0.0   0.0
 1  2   2016-10-03 02:25:56  60608   0.0   0.0
 1  2   2016-10-03 02:20:37  0   0.0   0.0
 1  2   2016-10-03 02:15:19  0   0.0   0.0
 1  2   2016-10-03 02:09:58  60608   0.0   0.0
 1  2   2016-10-03 02:04:40  60592   0.0   0.0
 1  2   2016-10-03 01:59:22  0   0.0   0.0
 1  2   2016-10-03 01:54:05  0   0.0   0.0
 1  2   2016-10-03 01:48:46  60592   0.0   0.0
 1  2   2016-10-03 01:43:27  60592   0.0   0.0
 1  2   2016-10-03 01:38:07  60592   0.0   0.0
 1  2   2016-10-03 01:32:50  0   0.0   0.0
 1  2   2016-10-03 01:27:31  60624   0.0   0.0
 1  2   2016-10-03 01:22:12  60624   0.0   0.0
 1  2   2016-10-03 01:16:52  0   0.0   0.0
 1  2   2016-10-03 01:11:34  60608   0.0   0.0
 1  2   2016-10-03 01:06:16  60608   0.0   0.0
 1  2   2016-10-03 01:00:56  60608   0.0   0.0
 1  2   2016-10-03 00:55:37  60608   0.0   0.0
 1  2   2016-10-03 00:50:17  60608   0.0   0.0
 1  2   2016-10-03 00:45:00  0   0.0   0.0
 1  2   2016-10-03 00:39:42  60528   0.0   0.0
 1  2   2016-10-03 00:34:23  0   0.0   0.0
 1  2   2016-10-03 00:29:04  0   0.0   0.0
 1  2   2016-10-03 00:23:46  0   0.0   0.0
 1  2   2016-10-03 00:18:29  60528   0.0   0.0
 1  2   2016-10-03 00:13:10  60528   0.0   0.0
 1  2   2016-10-03 00:07:51  60528   0.0   0.0
 1  2   2016-10-03 00:02:33  60528   0.0   0.0
 1  2   2016-10-02 23:57:16  0   0.0   0.0
 1  2   2016-10-02 23:51:57  60528   0.0   0.0
 1  2   2016-10-02 23:46:38  60528   0.0   0.0
 1  2   2016-10-02 23:41:20  60528   0.0   0.0
 1  2   2016-10-02 23:36:03  0   0.0   0.0
 1  2   2016-10-02 23:30:44  0   0.0   0.0
 1  2   2016-10-02 23:25:25  60528   0.0   0.0
 1  2   2016-10-02 23:20:07  60528   0.0   0.0
 1  2   2016-10-02 23:14:50  0   0.0   0.0
 1  2   2016-10-02 23:09:30  60528   0.0   0.0
 1  2   2016-10-02 23:04:10  60576   0.0   0.0
 1  2   2016-10-02 22:58:52  0   0.0   0.0
 1  2   2016-10-02 22:53:34  0   0.0   0.0
 1  2   2016-10-02 22:48:15  60560   0.0   0.0
 1  2   2016-10-02 22:42:57  60560   0.0   0.0
 1  2   2016-10-02 22:37:36  60560   0.0   0.0
 1  2   2016-10-02 22:32:15  60432   0.0   0.0
 1  2   2016-10-02 22:26:56  60576   0.0   0.0
 1  2   2016-10-02 22:21:36  60576   0.0   0.0
 1  2   2016-10-02 22:16:15  60560   0.0   0.0
 1  2   2016-10-02 22:10:58  0   0.0   0.0
 1  2   2016-10-02 22:05:39  60656   0.0   0.0
 1  2   2016-10-02 22:00:19  0   0.0   0.0
 1  2   2016-10-02 21:55:00  60656   0.0   0.0
 1  2   2016-10-02 21:49:41  60608   0.0   0.0
 1  2   2016-10-02 21:44:21  60624   0.0   0.0
 1  2   2016-10-02 21:39:00  60640   0.0   0.0
 1  2   2016-10-02 21:33:40  60688   0.0   0.0
 1  2   2016-10-02 21:28:21  60624   0.0   0.0
 1  2   2016-10-02 21:23:03  60624   0.0   0.0
 1  2   2016-10-02 21:17:43  60624   0.0   0.0
 1  2   2016-10-02 21:12:25  60816   0.0   0.0
 1  2   2016-10-02 21:07:05  0   0.0   0.0
 1  2   2016-10-02 21:01:46  60816   0.0   0.0
 1  2   2016-10-02 20:56:26  60816   0.0   0.0
 1  2   2016-10-02 20:51:07  0   0.0   0.0
 1  2   2016-10-02 20:45:47  60640   0.0   0.0
 1  2   2016-10-02 20:40:28  60640   0.0   0.0
 1  2   2016-10-02 20:35:09  60640   0.0   0.0
 1  2   2016-10-02 20:29:48  60640   0.0   0.0
 1  2   2016-10-02 20:24:29  0   0.0   0.0
 1  2   2016-10-02 20:19:10  60640   0.0   0.0
 1  2   2016-10-02 20:13:50  60640   0.0   0.0
 1  2   2016-10-02 20:08:30  60640   0.0   0.0
 1  2   2016-10-02 20:03:09  60512   0.0   0.0
 1  2   2016-10-02 19:57:51  0   0.0   0.0
 1  2   2016-10-02 19:52:33  0   0.0   0.0
 1  2   2016-10-02 19:47:12  60400   0.0   0.0
 1  2   2016-10-02 19:41:52  60352   0.0   0.0
 1  2   2016-10-02 19:36:33  0   0.0   0.0
 1  2   2016-10-02 19:31:14  60544   0.0   0.0
 1  2   2016-10-02 19:25:53  60704   0.0   0.0
 1  2   2016-10-02 19:20:35  60784   0.0   0.0
 1  2   2016-10-02 19:15:17  0   0.0   0.0
 1  2   2016-10-02 19:09:58  0   0.0   0.0
 1  2   2016-10-02 19:04:39  0   0.0   0.0
 1  2   2016-10-02 18:59:18  60784   0.0   0.0
 1  2   2016-10-02 18:53:59  60448   0.0   0.0
 1  2   2016-10-02 18:48:39  0   0.0   0.0
 1  2   2016-10-02 18:43:20  0   0.0   0.0
 1  2   2016-10-02 18:38:01  0   0.0   0.0
 1  2   2016-10-02 18:32:43  60688   0.0   0.0
 1  2   2016-10-02 18:27:24  60688   0.0   0.0
 1  2   2016-10-02 18:22:04  60544   0.0   0.0
 1  2   2016-10-02 18:16:44  0   0.0   0.0
 1  2   2016-10-02 18:11:26  60384   0.0   0.0
 1  2   2016-10-02 18:06:07  60384   0.0   0.0
 1  2   2016-10-02 18:00:48  60480   0.0   0.0
 1  2   2016-10-02 17:55:28  60480   0.0   0.0
 1  2   2016-10-02 17:50:08  60480   0.0   0.0
 1  2   2016-10-02 17:44:48  60480   0.0   0.0
 1  2   2016-10-02 17:39:27  60272   0.0   0.0
 1  2   2016-10-02 17:34:08  60400   0.0   0.0
 1  2   2016-10-02 17:28:48  60400   0.0   0.0
 1  2   2016-10-02 17:23:30  0   0.0   0.0
 1  2   2016-10-02 17:18:10  60432   0.0   0.0
 1  2   2016-10-02 17:12:51  60432   0.0   0.0
 1  2   2016-10-02 17:07:30  60432   0.0   0.0
 1  2   2016-10-02 17:02:13  0   0.0   0.0
 1  2   2016-10-02 16:56:55  60224   0.0   0.0
 1  2   2016-10-02 16:51:34  60384   0.0   0.0
 1  2   2016-10-02 16:46:14  60544   0.0   0.0
 1  2   2016-10-02 16:40:55  60544   0.0   0.0
 1  2   2016-10-02 16:35:36  0   0.0   0.0
 1  2   2016-10-02 16:30:16  60384   0.0   0.0
 1  2   2016-10-02 16:24:57  60416   0.0   0.0
 1  2   2016-10-02 16:19:38  60416   0.0   0.0
 1  2   2016-10-02 16:14:19  60160   0.0   0.0
 1  2   2016-10-02 16:08:59  60160   0.0   0.0
 1  2   2016-10-02 16:03:39  60160   0.0   0.0
 1  2   2016-10-02 15:58:19  60160   0.0   0.0
 1  2   2016-10-02 15:53:00  60320   0.0   0.0
 1  2   2016-10-02 15:47:41  0   0.0   0.0
 1  2   2016-10-02 15:42:23  60320   0.0   0.0
 1  2   2016-10-02 15:37:04  60320   0.0   0.0
 1  2   2016-10-02 15:31:45  60320   0.0   0.0
 1  2   2016-10-02 15:26:23  60304   0.0   0.0
 1  2   2016-10-02 15:21:04  0   0.0   0.0
 1  2   2016-10-02 15:15:44  60528   0.0   0.0
 1  2   2016-10-02 15:10:23  60464   0.0   0.0
 1  2   2016-10-02 15:05:05  60544   0.0   0.0
 1  2   2016-10-02 14:59:43  60480   0.0   0.0
 1  2   2016-10-02 14:54:24  0   0.0   0.0
 1  2   2016-10-02 14:48:49  60480   0.0   0.0
 1  2   2016-10-02 14:43:18  60480   0.0   0.0
 1  2   2016-10-02 14:37:59  60480   0.0   0.0
 1  2   2016-10-02 14:32:34  60480   0.0   0.0
 1  2   2016-10-02 14:27:14  60480   0.0   0.0
 1  2   2016-10-02 14:21:55  60480   0.0   0.0
 1  2   2016-10-02 14:15:25  0   0.0   0.0
 1  2   2016-10-02 14:10:02  0   0.0   0.0
 1  2   2016-10-02 14:04:40  0   0.0   0.0
 1  2   2016-10-02 13:59:19  60528   0.0   0.0
 1  2   2016-10-02 13:54:00  60576   0.0   0.0
 1  2   2016-10-02 13:48:40  60576   0.0   0.0
 1  2   2016-10-02 13:43:12  60432   0.0   0.0
 1  2   2016-10-02 13:37:52  60432   0.0   0.0
 1  2   2016-10-02 13:32:08  60480   0.0   0.0
 1  2   2016-10-02 13:26:43  60432   0.0   0.0
 1  2   2016-10-02 13:21:22  0   0.0   0.0
 1  2   2016-10-02 13:16:02  60368   0.0   0.0
 1  2   2016-10-02 13:10:42  60368   0.0   0.0
 1  2   2016-10-02 13:05:21  60368   0.0   0.0
 1  2   2016-10-02 12:59:54  60384   0.0   0.0
 1  2   2016-10-02 12:54:33  60416   0.0   0.0
 1  2   2016-10-02 12:49:12  60416   0.0   0.0
 1  2   2016-10-02 12:43:51  60448   0.0   0.0
 1  2   2016-10-02 12:37:56  60400   0.0   0.0
 1  2   2016-10-02 12:32:26  60400   0.0   0.0
 1  2   2016-10-02 12:26:44  60384   0.0   0.0
 1  2   2016-10-02 12:21:11  60416   0.0   0.0
 1  2   2016-10-02 12:15:35  60416   0.0   0.0
 1  2   2016-10-02 12:09:02  60400   0.0   0.0
 1  2   2016-10-02 12:03:29  60384   0.0   0.0
 1  2   2016-10-02 10:57:15  60512   0.0   0.0
 1  2   2016-10-02 10:51:21  60496   0.0   0.0
 1  2   2016-10-02 10:45:04  60480   0.0   0.0
 1  2   2016-10-02 10:39:31  60576   0.0   0.0
 1  2   2016-10-02 10:33:50  60528   0.0   0.0
 1  2   2016-10-02 10:28:03  60528   0.0   0.0
 1  2   2016-10-02 10:22:17  60480   0.0   0.0
 1  2   2016-10-02 10:16:45  60464   0.0   0.0
 1  2   2016-10-02 10:11:08  60528   0.0   0.0
 1  2   2016-10-02 10:05:27  60528   0.0   0.0
 1  2   2016-10-02 09:59:58  60400   0.0   0.0
 1  2   2016-10-02 09:54:28  60496   0.0   0.0
 1  2   2016-10-02 09:48:57  60512   0.0   0.0
 1  2   2016-10-02 09:43:27  60576   0.0   0.0
 1  2   2016-10-02 09:37:49  60528   0.0   0.0
 1  2   2016-10-02 09:32:19  60560   0.0   0.0
 1  2   2016-10-02 09:26:04  60672   0.0   0.0
 1  2   2016-10-02 09:20:34  60544   0.0   0.0
 1  2   2016-10-02 09:15:03  60576   0.0   0.0
 1  2   2016-10-02 09:09:33  60576   0.0   0.0
 1  2   2016-10-02 09:03:45  60528   0.0   0.0
 1  2   2016-10-02 08:57:33  60592   0.0   0.0
 1  2   2016-10-02 08:51:08  60640   0.0   0.0
 1  2   2016-10-02 08:45:35  60624   0.0   0.0
 1  2   2016-10-02 08:40:02  60864   0.0   0.0
 1  2   2016-10-02 08:31:00  60624   0.0   0.0
 1  2   2016-10-02 08:25:19  60832   0.0   0.0
 1  2   2016-10-01 15:52:01  60224   0.0   0.0
 1  2   2016-10-01 15:46:17  60192   0.0   0.0
 1  2   2016-10-01 15:40:42  60256   0.0   0.0
 1  2   2016-10-01 15:35:11  60224   0.0   0.0
 1  2   2016-10-01 15:29:32  60160   0.0   0.0
 1  2   2016-10-01 15:23:55  60080   0.0   0.0
 1  2   2016-10-01 15:18:22  60000   0.0   0.0
 1  2   2016-10-01 15:12:45  60016   0.0   0.0
 1  2   2016-10-01 15:07:16  60032   0.0   0.0
 1  2   2016-10-01 15:01:46  60000   0.0   0.0
 1  2   2016-10-01 14:56:17  59984   0.0   0.0
 1  2   2016-10-01 14:50:47  60000   0.0   0.0
 1  2   2016-10-01 14:45:18  60000   0.0   0.0
 1  2   2016-10-01 14:39:49  60000   0.0   0.0
 1  2   2016-10-01 14:34:19  59984   0.0   0.0
 1  2   2016-10-01 14:28:49  59984   0.0   0.0
 1  2   2016-10-01 14:23:20  59968   0.0   0.0
 1  2   2016-10-01 14:17:50  59968   0.0   0.0
 1  2   2016-10-01 14:12:20  59968   0.0   0.0
 1  2   2016-10-01 14:06:51  59952   0.0   0.0
 1  2   2016-10-01 14:01:21  59952   0.0   0.0
 1  2   2016-10-01 13:55:52  59968   0.0   0.0
 1  2   2016-10-01 13:50:22  59872   0.0   0.0
 1  2   2016-10-01 13:44:52  59872   0.0   0.0
 1  2   2016-10-01 13:39:23  59840   0.0   0.0
 1  2   2016-10-01 13:33:53  59840   0.0   0.0
 1  2   2016-10-01 13:28:25  59872   0.0   0.0
 1  2   2016-10-01 13:22:56  59936   0.0   0.0
 1  2   2016-10-01 13:17:26  59840   0.0   0.0
 1  2   2016-10-01 13:11:55  59936   0.0   0.0
 1  2   2016-10-01 13:06:27  59904   0.0   0.0
 1  2   2016-10-01 13:00:57  59904   0.0   0.0
 1  2   2016-10-01 12:55:27  59936   0.0   0.0
 1  2   2016-10-01 12:49:58  59888   0.0   0.0
 1  2   2016-10-01 12:44:27  59904   0.0   0.0
 1  2   2016-10-01 12:38:59  59888   0.0   0.0
 1  2   2016-10-01 12:33:30  59920   0.0   0.0
 1  2   2016-10-01 12:28:01  59920   0.0   0.0
 1  2   2016-10-01 12:22:31  59888   0.0   0.0
 1  2   2016-10-01 12:17:01  59840   0.0   0.0
 1  2   2016-10-01 12:11:32  59888   0.0   0.0
 1  2   2016-10-01 12:06:03  59920   0.0   0.0
 1  2   2016-10-01 12:00:33  59904   0.0   0.0
 1  2   2016-10-01 11:55:03  59952   0.0   0.0
 1  2   2016-10-01 11:49:34  59904   0.0   0.0
 1  2   2016-10-01 11:44:05  59872   0.0   0.0
 1  2   2016-10-01 11:38:35  59904   0.0   0.0
 1  2   2016-10-01 11:33:05  59984   0.0   0.0
 1  2   2016-10-01 11:27:36  60000   0.0   0.0
 1  2   2016-10-01 11:22:07  60016   0.0   0.0
 1  2   2016-10-01 11:16:37  60048   0.0   0.0
 1  2   2016-10-01 11:11:07  60048   0.0   0.0
 1  2   2016-10-01 11:05:37  60048   0.0   0.0
 1  2   2016-10-01 11:00:08  60080   0.0   0.0
 1  2   2016-10-01 10:54:38  60064   0.0   0.0
 1  2   2016-10-01 10:49:09  60064   0.0   0.0
 1  2   2016-10-01 10:43:39  60080   0.0   0.0
 1  2   2016-10-01 10:38:10  60048   0.0   0.0
 1  2   2016-10-01 10:32:40  60096   0.0   0.0
 1  2   2016-10-01 10:27:10  60096   0.0   0.0
 1  2   2016-10-01 10:21:39  60096   0.0   0.0
 1  2   2016-10-01 10:16:10  60064   0.0   0.0
 1  2   2016-10-01 10:10:40  60064   0.0   0.0
 1  2   2016-10-01 10:05:10  60048   0.0   0.0
 1  2   2016-10-01 09:59:41  60112   0.0   0.0
 1  2   2016-10-01 09:54:12  60128   0.0   0.0
 1  2   2016-10-01 09:48:42  60128   0.0   0.0
 1  2   2016-10-01 09:43:13  60128   0.0   0.0
 1  2   2016-10-01 09:37:43  60144   0.0   0.0
 1  2   2016-10-01 09:32:14  60096   0.0   0.0
 1  2   2016-10-01 09:26:46  60096   0.0   0.0
 1  2   2016-10-01 09:21:16  60144   0.0   0.0
 1  2   2016-10-01 09:15:46  60160   0.0   0.0
 1  2   2016-10-01 09:10:17  60176   0.0   0.0
 1  2   2016-10-01 09:04:47  60176   0.0   0.0
 1  2   2016-10-01 08:59:18  60160   0.0   0.0
 1  2   2016-10-01 08:53:47  60192   0.0   0.0
 1  2   2016-10-01 08:48:19  60224   0.0   0.0
 1  2   2016-10-01 08:42:49  60240   0.0   0.0
 1  2   2016-10-01 08:37:20  60224   0.0   0.0
 1  2   2016-10-01 08:31:50  60304   0.0   0.0
 1  2   2016-10-01 08:26:21  60224   0.0   0.0
 1  2   2016-10-01 08:20:52  60288   0.0   0.0
 1  2   2016-10-01 08:15:26  60560   0.0   0.0
 1  2   2016-09-30 23:56:20  60336   0.0   0.0
 1  2   2016-09-30 23:51:02  0   0.0   0.0
 1  2   2016-09-30 23:45:43  0   0.0   0.0
 1  2   2016-09-30 23:40:22  60208   0.0   0.0
 1  2   2016-09-30 23:35:02  60096   0.0   0.0
 1  2   2016-09-30 23:29:45  60320   0.0   0.0
 1  2   2016-09-30 23:24:25  60224   0.0   0.0
 1  2   2016-09-30 23:19:06  60000   0.0   0.0
 1  2   2016-09-30 23:13:47  60000   0.0   0.0
 1  2   2016-09-30 23:08:28  60000   0.0   0.0
 1  2   2016-09-30 23:03:08  60528   0.0   0.0
 1  2   2016-09-30 22:57:50  0   0.0   0.0
 1  2   2016-09-30 22:52:30  0   0.0   0.0
 1  2   2016-09-30 22:47:08  60528   0.0   0.0
 1  2   2016-09-30 22:41:46  60528   0.0   0.0
 1  2   2016-09-30 22:36:25  60528   0.0   0.0
 1  2   2016-09-30 22:31:04  60528   0.0   0.0
 1  2   2016-09-30 22:25:45  60096   0.0   0.0
 1  2   2016-09-30 22:20:24  0   0.0   0.0
 1  2   2016-09-30 22:15:06  0   0.0   0.0
 1  2   2016-09-30 22:09:49  60096   0.0   0.0
 1  2   2016-09-30 22:04:28  60096   0.0   0.0
 1  2   2016-09-30 21:59:10  0   0.0   0.0
 1  2   2016-09-30 21:53:50  0   0.0   0.0
 1  2   2016-09-30 21:48:30  60208   0.0   0.0
 1  2   2016-09-30 21:43:10  0   0.0   0.0
 1  2   2016-09-30 21:37:51  0   0.0   0.0
 1  2   2016-09-30 21:32:32  60432   0.0   0.0
 1  2   2016-09-30 21:27:14  0   0.0   0.0
 1  2   2016-09-30 21:21:56  60432   0.0   0.0
 1  2   2016-09-30 21:16:37  60432   0.0   0.0
 1  2   2016-09-30 21:11:19  60320   0.0   0.0
 1  2   2016-09-30 21:05:58  60320   0.0   0.0
 1  2   2016-09-30 21:00:38  60432   0.0   0.0
 1  2   2016-09-30 20:55:18  60336   0.0   0.0
 1  2   2016-09-30 20:49:57  60288   0.0   0.0
 1  2   2016-09-30 20:44:39  60288   0.0   0.0
 1  2   2016-09-30 20:39:20  60240   0.0   0.0
 1  2   2016-09-30 20:33:57  60304   0.0   0.0
 1  2   2016-09-30 20:28:39  60416   0.0   0.0
 1  2   2016-09-30 20:23:17  0   0.0   0.0
 1  2   2016-09-30 20:17:58  0   0.0   0.0
 1  2   2016-09-30 20:12:39  60320   0.0   0.0
 1  2   2016-09-30 20:07:14  60320   0.0   0.0
 1  2   2016-09-30 20:01:50  60320   0.0   0.0
 1  2   2016-09-30 19:56:29  60320   0.0   0.0
 1  2   2016-09-30 19:51:02  60336   0.0   0.0
 1  2   2016-09-30 19:45:42  60352   0.0   0.0
 1  2   2016-09-30 19:40:24  0   0.0   0.0
 1  2   2016-09-30 19:35:06  0   0.0   0.0
 1  2   2016-09-30 19:29:46  60352   0.0   0.0
 1  2   2016-09-30 19:24:26  0   0.0   0.0
 1  2   2016-09-30 19:19:07  60352   0.0   0.0
 1  2   2016-09-30 19:13:49  60352   0.0   0.0
 1  2   2016-09-30 19:08:29  60256   0.0   0.0
 1  2   2016-09-30 19:03:11  60128   0.0   0.0
 1  2   2016-09-30 18:57:53  60128   0.0   0.0
 1  2   2016-09-30 18:52:33  0   0.0   0.0
 1  2   2016-09-30 18:47:12  60128   0.0   0.0
 1  2   2016-09-30 18:41:52  60320   0.0   0.0
 1  2   2016-09-30 18:36:32  60144   0.0   0.0
 1  2   2016-09-30 18:31:12  60192   0.0   0.0
 1  2   2016-09-30 18:25:55  0   0.0   0.0
 1  2   2016-09-30 18:20:34  60192   0.0   0.0
 1  2   2016-09-30 18:15:14  60144   0.0   0.0
 1  2   2016-09-30 18:09:55  60144   0.0   0.0
 1  2   2016-09-30 18:04:36  60144   0.0   0.0
 1  2   2016-09-30 17:59:16  0   0.0   0.0
 1  2   2016-09-30 17:53:55  60208   0.0   0.0
 1  2   2016-09-30 17:48:36  60208   0.0   0.0
 1  2   2016-09-30 17:43:17  60208   0.0   0.0
 1  2   2016-09-30 17:37:58  0   0.0   0.0
 1  2   2016-09-30 17:32:40  0   0.0   0.0
 1  2   2016-09-30 17:27:21  60208   0.0   0.0
 1  2   2016-09-30 17:22:04  0   0.0   0.0
 1  2   2016-09-30 17:16:45  60208   0.0   0.0
 1  2   2016-09-30 17:11:25  60208   0.0   0.0
 1  2   2016-09-30 17:06:05  60288   0.0   0.0
 1  2   2016-09-30 17:00:47  60272   0.0   0.0
 1  2   2016-09-30 16:55:27  0   0.0   0.0
 1  2   2016-09-30 16:50:09  60272   0.0   0.0
 1  2   2016-09-30 16:44:51  0   0.0   0.0
 1  2   2016-09-30 16:39:32  0   0.0   0.0
 1  2   2016-09-30 16:34:13  0   0.0   0.0
 1  2   2016-09-30 16:28:56  60272   0.0   0.0
 1  2   2016-09-30 16:23:37  0   0.0   0.0
 1  2   2016-09-30 16:18:18  60272   0.0   0.0
 1  2   2016-09-30 16:12:58  60272   0.0   0.0
 1  2   2016-09-30 16:07:40  60304   0.0   0.0
 1  2   2016-09-30 16:02:11  60256   0.0   0.0
 1  2   2016-09-30 15:56:41  60272   0.0   0.0
 1  2   2016-09-30 15:51:14  60272   0.0   0.0
 1  2   2016-09-30 15:45:44  60256   0.0   0.0
 1  2   2016-09-30 15:40:14  60288   0.0   0.0
 1  2   2016-09-30 15:34:45  60256   0.0   0.0
 1  2   2016-09-30 15:29:15  60272   0.0   0.0
 1  2   2016-09-30 15:23:46  60240   0.0   0.0
 1  2   2016-09-30 15:18:16  60240   0.0   0.0
 1  2   2016-09-30 15:12:46  60240   0.0   0.0
 1  2   2016-09-30 15:07:17  60240   0.0   0.0
 1  2   2016-09-30 15:01:49  60272   0.0   0.0
 1  2   2016-09-30 14:56:18  60240   0.0   0.0
 1  2   2016-09-30 14:50:49  60272   0.0   0.0
 1  2   2016-09-30 14:45:20  60272   0.0   0.0
 1  2   2016-09-30 14:39:50  60272   0.0   0.0
 1  2   2016-09-30 14:34:19  60272   0.0   0.0
 1  2   2016-09-30 14:28:49  60272   0.0   0.0
 1  2   2016-09-30 14:23:18  60272   0.0   0.0
 1  2   2016-09-30 14:17:48  60272   0.0   0.0
 1  2   2016-09-30 14:12:15  60272   0.0   0.0
 1  2   2016-09-30 14:06:44  60272   0.0   0.0
 1  2   2016-09-30 14:01:14  60272   0.0   0.0
 1  2   2016-09-30 13:55:44  60240   0.0   0.0
 1  2   2016-09-30 13:50:15  60256   0.0   0.0
 1  2   2016-09-30 13:44:43  60240   0.0   0.0
 1  2   2016-09-30 13:39:13  60240   0.0   0.0
 1  2   2016-09-30 13:33:42  60272   0.0   0.0
 1  2   2016-09-30 13:28:13  60240   0.0   0.0
 1  2   2016-09-30 13:22:43  60208   0.0   0.0
 1  2   2016-09-30 13:17:13  60208   0.0   0.0
 1  2   2016-09-30 13:11:44  60208   0.0   0.0
 1  2   2016-09-30 13:06:14  60208   0.0   0.0
 1  2   2016-09-30 13:00:45  60176   0.0   0.0
 1  2   2016-09-30 12:55:15  60192   0.0   0.0
 1  2   2016-09-30 12:49:45  60256   0.0   0.0
 1  2   2016-09-30 12:44:16  60224   0.0   0.0
 1  2   2016-09-30 12:38:47  60224   0.0   0.0
 1  2   2016-09-30 12:33:19  60224   0.0   0.0
 1  2   2016-09-30 12:27:50  60272   0.0   0.0
 1  2   2016-09-30 12:22:19  60224   0.0   0.0
 1  2   2016-09-30 12:16:50  60224   0.0   0.0
 1  2   2016-09-30 12:11:22  60272   0.0   0.0
 1  2   2016-09-30 12:05:54  60256   0.0   0.0
 1  2   2016-09-30 12:00:23  60240   0.0   0.0
 1  2   2016-09-30 11:54:53  60240   0.0   0.0
 1  2   2016-09-30 11:49:25  60224   0.0   0.0
 1  2   2016-09-30 11:43:54  60144   0.0   0.0
 1  2   2016-09-30 11:38:25  60032   0.0   0.0
 1  2   2016-09-30 11:32:55  59952   0.0   0.0
 1  2   2016-09-30 11:27:26  59968   0.0   0.0
 1  2   2016-09-30 11:21:56  60000   0.0   0.0
 1  2   2016-09-30 11:16:28  59936   0.0   0.0
 1  2   2016-09-30 11:10:57  59888   0.0   0.0
 1  2   2016-09-30 11:05:28  59936   0.0   0.0
 1  2   2016-09-30 10:59:59  59920  57.1  100.0
 1  2   2016-09-30 10:54:29  59936  56.6  100.0
 1  2   2016-09-30 10:48:59  59856  56.0  100.0
 1  2   2016-09-30 10:43:30  59792  55.6  100.0
 1  2   2016-09-30 10:38:00  59872  55.4  100.0
 1  2   2016-09-30 10:32:30  59840  55.1  100.0
 1  2   2016-09-30 10:27:02  59808  55.1  100.0
 1  2   2016-09-30 10:21:31  59808  54.9  100.0
 1  2   2016-09-30 10:16:02  59808  54.6  100.0
 1  2   2016-09-30 10:10:33  59728  54.7  100.0
 1  2   2016-09-30 10:05:03  59792  54.5  100.0
 1  2   2016-09-30 09:59:33  59808  54.2  100.0
 1  2   2016-09-30 09:54:03  59856  54.0  100.0
 1  2   2016-09-30 09:48:35  59968  53.8  100.0
 1  2   2016-09-30 09:43:05  59984  53.7  100.0
 1  2   2016-09-30 09:37:35  60096  53.3  100.0
 1  2   2016-09-30 09:32:05  60160  53.1  100.0
 1  2   2016-09-30 09:26:36  60176  52.8  100.0
 1  2   2016-09-30 09:21:07  60224  52.4  100.0
 1  2   2016-09-30 09:15:37  60208  52.0  100.0
 1  2   2016-09-30 09:10:06  60176  51.6  100.0
 1  2   2016-09-30 09:04:37  60208  51.3  100.0
 1  2   2016-09-30 08:59:08  60176  50.7  100.0
 1  2   2016-09-30 08:53:38  60208  50.2  100.0
 1  2   2016-09-30 08:48:09  60224  49.5  100.0
 1  2   2016-09-30 08:42:39  60192  48.7  100.0
 1  2   2016-09-30 08:37:10  60224  48.7  100.0
 1  2   2016-09-30 08:31:41  60224  47.5  100.0
 1  2   2016-09-30 08:26:11  60240  46.4  100.0
 1  2   2016-09-30 08:20:41  60336  45.7  100.0
 1  2   2016-09-30 08:15:11  60368  44.7  100.0
 1  2   2016-09-30 08:09:43  60352  43.9  100.0
 1  2   2016-09-30 08:04:16  60512  43.4  100.0
 1  2   2016-09-30 00:28:08  60224  52.0  100.0
 1  2   2016-09-30 00:22:48  60224  52.0  100.0
 1  2   2016-09-30 00:17:29  60496  52.2  100.0
 1  2   2016-09-30 00:12:08  60496  52.2  100.0
 1  2   2016-09-30 00:06:50  60496  52.2  100.0
 1  2   2016-09-30 00:01:31  60496  52.2  100.0
 1  2   2016-09-29 23:56:12  60496  52.2  100.0
 1  2   2016-09-29 23:50:51  0   0.0   0.0
 1  2   2016-09-29 23:45:33  0   0.0   0.0
 1  2   2016-09-29 23:40:14  60496  52.2  100.0
 1  2   2016-09-29 23:34:53  0   0.0   0.0
 1  2   2016-09-29 23:29:34  0   0.0   0.0
 1  2   2016-09-29 23:24:16  60496  52.2  100.0
 1  2   2016-09-29 23:18:58  60496  52.2  100.0
 1  2   2016-09-29 23:13:38  60496  52.2  100.0
 1  2   2016-09-29 23:08:18  0   0.0   0.0
 1  2   2016-09-29 23:02:58  60496  52.2  100.0
 1  2   2016-09-29 22:57:38  0   0.0   0.0
 1  2   2016-09-29 22:52:19  0   0.0   0.0
 1  2   2016-09-29 22:47:00  59984  50.5  100.0
 1  2   2016-09-29 22:41:41  0   0.0   0.0
 1  2   2016-09-29 22:36:23  0   0.0   0.0
 1  2   2016-09-29 22:31:03  0   0.0   0.0
 1  2   2016-09-29 22:25:43  0   0.0   0.0
 1  2   2016-09-29 22:20:24  0   0.0   0.0
 1  2   2016-09-29 22:15:05  59984  50.5  100.0
 1  2   2016-09-29 22:09:46  60208  50.5  100.0
 1  2   2016-09-29 22:04:25  60352  50.2  100.0
 1  2   2016-09-29 21:59:07  60352  50.2  100.0
 1  2   2016-09-29 21:53:47  0   0.0   0.0
 1  2   2016-09-29 21:48:27  60352  50.2  100.0
 1  2   2016-09-29 21:43:08  0   0.0   0.0
 1  2   2016-09-29 21:37:51  60352  50.2  100.0
 1  2   2016-09-29 21:32:32  0   0.0   0.0
 1  2   2016-09-29 21:27:12  60352  50.2  100.0
 1  2   2016-09-29 21:21:52  60160  50.2  100.0
 1  2   2016-09-29 21:16:33  60416  50.7  100.0
 1  2   2016-09-29 21:11:14  60416  50.7  100.0
 1  2   2016-09-29 21:05:56  0   0.0   0.0
 1  2   2016-09-29 21:00:36  60448  51.5  100.0
 1  2   2016-09-29 20:55:14  60448  51.5  100.0
 1  2   2016-09-29 20:49:55  60480  52.2  100.0
 1  2   2016-09-29 20:44:35  60480  52.2  100.0
 1  2   2016-09-29 20:39:13  60384  52.2  100.0
 1  2   2016-09-29 20:33:52  60288  52.1  100.0
 1  2   2016-09-29 20:28:33  60496  51.8  100.0
 1  2   2016-09-29 20:23:13  60304  51.7  100.0
 1  2   2016-09-29 20:17:53  60304  51.7  100.0
 1  2   2016-09-29 20:12:33  0   0.0   0.0
 1  2   2016-09-29 20:07:15  60240  54.3  100.0
 1  2   2016-09-29 20:01:55  60240  54.3  100.0
 1  2   2016-09-29 19:56:35  0   0.0   0.0
 1  2   2016-09-29 19:51:15  60240  54.3  100.0
 1  2   2016-09-29 19:45:54  0   0.0   0.0
 1  2   2016-09-29 19:40:34  60240  54.3  100.0
 1  2   2016-09-29 19:35:14  0   0.0   0.0
 1  2   2016-09-29 19:29:52  60432  54.4  100.0
 1  2   2016-09-29 19:24:31  0   0.0   0.0
 1  2   2016-09-29 19:19:10  60528  55.1  100.0
 1  2   2016-09-29 19:13:49  60528  55.1  100.0
 1  2   2016-09-29 19:08:31  60336  55.5  100.0
 1  2   2016-09-29 19:03:12  60336  55.5  100.0
 1  2   2016-09-29 18:57:48  60336  55.5  100.0
 1  2   2016-09-29 18:52:27  0   0.0   0.0
 1  2   2016-09-29 18:47:07  60336  55.5  100.0
 1  2   2016-09-29 18:41:49  0   0.0   0.0
 1  2   2016-09-29 18:36:27  60368  55.5  100.0
 1  2   2016-09-29 18:31:09  60288  55.6  100.0
 1  2   2016-09-29 18:25:50  0   0.0   0.0
 1  2   2016-09-29 18:20:30  60288  55.6  100.0
 1  2   2016-09-29 18:15:07  60304  55.9  100.0
 1  2   2016-09-29 18:09:49  60224  56.2  100.0
 1  2   2016-09-29 18:04:26  60256  56.2  100.0
 1  2   2016-09-29 17:59:07  60368  56.6  100.0
 1  2   2016-09-29 17:53:49  60368  56.6  100.0
 1  2   2016-09-29 17:48:30  0   0.0   0.0
 1  2   2016-09-29 17:43:13  60368  56.6  100.0
 1  2   2016-09-29 17:37:55  60368  56.6  100.0
 1  2   2016-09-29 17:32:34  0   0.0   0.0
 1  2   2016-09-29 17:27:14  60368  56.6  100.0
 1  2   2016-09-29 17:21:55  60368  56.6  100.0
 1  2   2016-09-29 17:16:36  60368  56.6  100.0
 1  2   2016-09-29 17:11:16  60480  56.7  100.0
 1  2   2016-09-29 17:05:57  60240  57.0  100.0
 1  2   2016-09-29 17:00:37  60240  57.0  100.0
 1  2   2016-09-29 16:55:20  60288  58.5  100.0
 1  2   2016-09-29 16:49:58  60288  58.5  100.0
 1  2   2016-09-29 16:44:38  0   0.0   0.0
 1  2   2016-09-29 16:39:20  60352  59.0  100.0
 1  2   2016-09-29 16:34:00  60304  59.0  100.0
 1  2   2016-09-29 16:28:42  60384  59.3  100.0
 1  2   2016-09-29 16:23:23  60384  59.3  100.0
 1  2   2016-09-29 16:18:04  60384  59.3  100.0
 1  2   2016-09-29 16:12:45  60384  59.3  100.0
 1  2   2016-09-29 16:07:25  60384  59.3  100.0
 1  2   2016-09-29 16:01:56  60304  59.0  100.0
 1  2   2016-09-29 15:56:26  60320  59.1  100.0
 1  2   2016-09-29 15:50:58  60368  59.0  100.0
 1  2   2016-09-29 15:45:29  60320  59.2  100.0
 1  2   2016-09-29 15:39:59  60320  59.0  100.0
 1  2   2016-09-29 15:34:29  60336  58.9  100.0
 1  2   2016-09-29 15:29:01  60336  58.8  100.0
 1  2   2016-09-29 15:23:31  60336  59.0  100.0
 1  2   2016-09-29 15:18:01  60320  59.2  100.0
 1  2   2016-09-29 15:12:32  60352  58.8  100.0
 1  2   2016-09-29 15:07:01  60336  59.0  100.0
 1  2   2016-09-29 15:01:31  60336  59.0  100.0
 1  2   2016-09-29 14:56:01  60272  59.0  100.0
 1  2   2016-09-29 14:50:29  60336  59.1  100.0
 1  2   2016-09-29 14:44:58  60304  59.0  100.0
 1  2   2016-09-29 14:39:26  60288  59.0  100.0
 1  2   2016-09-29 14:33:56  60352  58.7  100.0
 1  2   2016-09-29 14:28:25  60320  58.5  100.0
 1  2   2016-09-29 14:22:55  60336  58.7  100.0
 1  2   2016-09-29 14:17:24  60288  58.7  100.0
 1  2   2016-09-29 14:11:52  60320  58.5  100.0
 1  2   2016-09-29 14:06:22  60304  58.4  100.0
 1  2   2016-09-29 14:00:48  60368  58.0  100.0
 1  2   2016-09-29 13:55:17  60320  58.2  100.0
 1  2   2016-09-29 13:49:45  60304  58.2  100.0
 1  2   2016-09-29 13:44:15  60304  58.4  100.0
 1  2   2016-09-29 13:38:44  60336  58.3  100.0
 1  2   2016-09-29 13:33:14  60352  58.3  100.0
 1  2   2016-09-29 13:27:43  60304  58.4  100.0
 1  2   2016-09-29 13:22:11  60256  58.8  100.0
 1  2   2016-09-29 13:16:40  60272  58.3  100.0
 1  2   2016-09-29 13:11:06  60256  58.0  100.0
 1  2   2016-09-29 13:05:34  60256  58.0  100.0
 1  2   2016-09-29 13:00:00  60256  58.3  100.0
 1  2   2016-09-29 12:54:28  60272  58.4  100.0
 1  2   2016-09-29 12:48:59  60320  58.3  100.0
 1  2   2016-09-29 12:43:29  60288  58.5  100.0
 1  2   2016-09-29 12:37:57  60320  58.9  100.0
 1  2   2016-09-29 12:32:24  60304  59.0  100.0
 1  2   2016-09-29 12:26:55  60288  58.8  100.0
 1  2   2016-09-29 12:21:24  60320  58.7  100.0
 1  2   2016-09-29 12:15:54  60336  59.2  100.0
 1  2   2016-09-29 12:10:24  60368  59.0  100.0
 1  2   2016-09-29 12:04:53  60368  59.6  100.0
 1  2   2016-09-29 11:59:22  60288  59.4  100.0
 1  2   2016-09-29 11:53:50  60288  59.6  100.0
 1  2   2016-09-29 11:48:19  60256  59.2  100.0
 1  2   2016-09-29 11:42:49  60256  59.3  100.0
 1  2   2016-09-29 11:37:18  60224  59.1  100.0
 1  2   2016-09-29 11:31:49  60256  58.7  100.0
 1  2   2016-09-29 11:26:21  60256  58.8  100.0
 1  2   2016-09-29 11:20:50  60304  58.7  100.0
 1  2   2016-09-29 11:15:21  60256  58.7  100.0
 1  2   2016-09-29 11:09:51  60224  58.7  100.0
 1  2   2016-09-29 11:04:22  60160  58.9  100.0
 1  2   2016-09-29 10:58:53  60128  58.8  100.0
 1  2   2016-09-29 10:53:22  60064  58.4  100.0
 1  2   2016-09-29 10:47:51  60048  57.3  100.0
 1  2   2016-09-29 10:42:19  60000  57.1  100.0
 1  2   2016-09-29 10:36:50  59936  57.0  100.0
 1  2   2016-09-29 10:31:21  59952  56.8  100.0
 1  2   2016-09-29 10:25:52  59968  56.5  100.0
 1  2   2016-09-29 10:20:21  59984  55.9  100.0
 1  2   2016-09-29 10:14:52  60032  55.5  100.0
 1  2   2016-09-29 10:09:23  59808  54.8  100.0
 1  2   2016-09-29 10:03:52  59856  54.1  100.0
 1  2   2016-09-29 09:58:23  59824  53.8  100.0
 1  2   2016-09-29 09:52:53  59856  53.5  100.0
 1  2   2016-09-29 09:47:24  59904  53.2  100.0
 1  2   2016-09-29 09:41:54  60032  52.9  100.0
 1  2   2016-09-29 09:36:25  60080  52.6  100.0
 1  2   2016-09-29 09:30:57  60112  52.1  100.0
 1  2   2016-09-29 09:25:27  60224  51.6  100.0
 1  2   2016-09-29 09:19:58  60288  51.2  100.0
 1  2   2016-09-29 09:14:29  60240  50.5  100.0
 1  2   2016-09-29 09:08:59  60176  49.9  100.0
 1  2   2016-09-29 09:03:29  60304  49.0  100.0
 1  2   2016-09-29 08:58:00  60288  48.7  100.0
 1  2   2016-09-29 08:52:30  60336  48.1  100.0
 1  2   2016-09-29 08:47:00  60320  47.3  100.0
 1  2   2016-09-29 08:41:31  60384  46.5  100.0
 1  2   2016-09-29 08:36:02  60320  45.9  100.0
 1  2   2016-09-29 08:30:32  60384  45.0  100.0
 1  2   2016-09-29 08:25:02  60432  44.2  100.0
 1  2   2016-09-29 08:19:33  60384  43.4  100.0
 1  2   2016-09-29 08:14:03  60416  42.6  100.0
 1  2   2016-09-29 08:08:35  60416  41.8  100.0
 1  2   2016-09-29 08:03:08  60592  41.3  100.0
 1  2   2016-09-29 02:57:02  0   0.0   0.0
 1  2   2016-09-29 02:51:43  0   0.0   0.0
 1  2   2016-09-29 02:46:25  60304  45.0  100.0
 1  2   2016-09-29 02:41:06  60304  45.0  100.0
 1  2   2016-09-29 02:35:48  60304  45.0  100.0
 1  2   2016-09-29 02:30:31  0   0.0   0.0
 1  2   2016-09-29 02:25:11  60288  45.0  100.0
 1  2   2016-09-29 02:19:52  60288  45.1  100.0
 1  2   2016-09-29 02:14:32  0   0.0   0.0
 1  2   2016-09-29 02:09:13  0   0.0   0.0
 1  2   2016-09-29 02:03:52  60288  45.1  100.0
 1  2   2016-09-29 01:58:31  60288  45.1  100.0
 1  2   2016-09-29 01:53:12  0   0.0   0.0
 1  2   2016-09-29 01:47:52  60320  45.3  100.0
 1  2   2016-09-29 01:42:33  0   0.0   0.0
 1  2   2016-09-29 01:37:14  0   0.0   0.0
 1  2   2016-09-29 01:31:55  0   0.0   0.0
 1  2   2016-09-29 01:26:37  60432  45.7  100.0
 1  2   2016-09-29 01:21:18  60432  45.7  100.0
 1  2   2016-09-29 01:15:59  60432  45.7  100.0
 1  2   2016-09-29 01:10:39  60432  45.7  100.0
 1  2   2016-09-29 01:05:19  60320  45.8  100.0
 1  2   2016-09-29 01:00:02  0   0.0   0.0
 1  2   2016-09-29 00:54:43  60512  45.9  100.0
 1  2   2016-09-29 00:49:19  60512  45.9  100.0
 1  2   2016-09-29 00:44:01  0   0.0   0.0
 1  2   2016-09-29 00:38:42  0   0.0   0.0
 1  2   2016-09-29 00:33:25  0   0.0   0.0
 1  2   2016-09-29 00:28:05  60560  45.9  100.0
 1  2   2016-09-29 00:22:40  60176  46.0  100.0
 1  2   2016-09-29 00:17:17  60400  46.0  100.0
 1  2   2016-09-29 00:11:53  60400  46.2  100.0
 1  2   2016-09-29 00:06:31  60400  46.2  100.0
 1  2   2016-09-29 00:01:12  60544  46.8  100.0
 1  2   2016-09-28 23:55:45  60544  46.8  100.0
 1  2   2016-09-28 23:50:26  0   0.0   0.0
 1  2   2016-09-28 23:45:06  60544  46.8  100.0
 1  2   2016-09-28 23:39:47  60544  46.8  100.0
 1  2   2016-09-28 23:34:25  60416  47.1  100.0
 1  2   2016-09-28 23:28:56  60416  47.1  100.0
 1  2   2016-09-28 23:23:32  60592  47.4  100.0
 1  2   2016-09-28 23:18:09  60592  47.4  100.0
 1  2   2016-09-28 23:12:50  60592  47.4  100.0
 1  2   2016-09-28 23:07:30  60400  47.4  100.0
 1  2   2016-09-28 23:02:12  60512  47.4  100.0
 1  2   2016-09-28 22:56:50  60464  47.4  100.0
 1  2   2016-09-28 22:51:28  60416  47.4  100.0
 1  2   2016-09-28 22:46:09  60704  47.6  100.0
 1  2   2016-09-28 22:40:30  60704  47.6  100.0
 1  2   2016-09-28 22:34:50  0   0.0   0.0
 1  2   2016-09-28 22:29:22  60512  47.6  100.0
 1  2   2016-09-28 22:23:41  60416  47.6  100.0
 1  2   2016-09-28 22:18:18  0   0.0   0.0
 1  2   2016-09-28 22:12:58  60336  47.8  100.0
 1  2   2016-09-28 22:07:40  0   0.0   0.0
 1  2   2016-09-28 22:02:20  60352  48.3  100.0
 1  2   2016-09-28 21:56:58  0   0.0   0.0
 1  2   2016-09-28 21:51:22  60352  48.3  100.0
 1  2   2016-09-28 21:46:04  60352  48.3  100.0
 1  2   2016-09-28 21:40:45  60352  48.3  100.0
 1  2   2016-09-28 21:35:22  60352  48.3  100.0
 1  2   2016-09-28 21:29:51  60512  48.4  100.0
 1  2   2016-09-28 21:24:30  60416  48.8  100.0
 1  2   2016-09-28 21:19:10  60416  48.8  100.0
 1  2   2016-09-28 21:13:50  60480  48.8  100.0
 1  2   2016-09-28 21:08:02  60480  48.8  100.0
 1  2   2016-09-28 21:02:33  0   0.0   0.0
 1  2   2016-09-28 20:57:15  60480  48.8  100.0
 1  2   2016-09-28 20:51:46  0   0.0   0.0
 1  2   2016-09-28 20:46:27  59952  48.9  100.0
 1  2   2016-09-28 20:41:09  0   0.0   0.0
 1  2   2016-09-28 20:35:41  59952  48.9  100.0
 1  2   2016-09-28 20:30:22  59952  48.9  100.0
 1  2   2016-09-28 20:24:54  60384  50.2  100.0
 1  2   2016-09-28 20:19:34  60384  50.2  100.0
 1  2   2016-09-28 20:14:13  60384  50.2  100.0
 1  2   2016-09-28 20:08:46  60384  50.2  100.0
 1  2   2016-09-28 20:03:26  60320  50.2  100.0
 1  2   2016-09-28 19:58:01  60416  50.4  100.0
 1  2   2016-09-28 19:52:25  60576  51.9  100.0
 1  2   2016-09-28 19:47:05  60576  51.9  100.0
 1  2   2016-09-28 19:41:37  60576  51.9  100.0
 1  2   2016-09-28 19:36:17  0   0.0   0.0
 1  2   2016-09-28 19:30:58  60576  51.9  100.0
 1  2   2016-09-28 19:25:36  60400  51.9  100.0
 1  2   2016-09-28 19:20:16  0   0.0   0.0
 1  2   2016-09-28 19:14:57  0   0.0   0.0
 1  2   2016-09-28 19:09:33  60304  53.7  100.0
 1  2   2016-09-28 19:04:01  0   0.0   0.0
 1  2   2016-09-28 18:58:41  60304  53.7  100.0
 1  2   2016-09-28 18:53:21  60288  53.7  100.0
 1  2   2016-09-28 18:48:03  0   0.0   0.0
 1  2   2016-09-28 18:42:43  0   0.0   0.0
 1  2   2016-09-28 18:37:24  60384  55.7  100.0
 1  2   2016-09-28 18:32:05  60384  55.7  100.0
 1  2   2016-09-28 18:26:44  0   0.0   0.0
 1  2   2016-09-28 18:21:25  60384  55.7  100.0
 1  2   2016-09-28 18:16:04  60384  55.7  100.0
 1  2   2016-09-28 18:10:44  60384  55.7  100.0
 1  2   2016-09-28 18:05:24  59968  55.7  100.0
 1  2   2016-09-28 17:59:56  60288  55.9  100.0
 1  2   2016-09-28 17:54:38  0   0.0   0.0
 1  2   2016-09-28 17:49:17  60448  56.5  100.0
 1  2   2016-09-28 17:43:58  0   0.0   0.0
 1  2   2016-09-28 17:38:38  60400  57.1  100.0
 1  2   2016-09-28 17:33:21  0   0.0   0.0
 1  2   2016-09-28 17:28:03  60304  58.1  100.0
 1  2   2016-09-28 17:22:41  60352  58.1  100.0
 1  2   2016-09-28 17:17:23  0   0.0   0.0
 1  2   2016-09-28 17:12:05  60416  58.2  100.0
 1  2   2016-09-28 17:06:47  60384  58.2  100.0
 1  2   2016-09-28 17:01:26  60368  58.5  100.0
 1  2   2016-09-28 16:55:18  60368  58.5  100.0
 1  2   2016-09-28 16:49:58  60384  58.2  100.0
 1  2   2016-09-28 16:44:38  0   0.0   0.0
 1  2   2016-09-28 16:39:17  60384  58.2  100.0
 1  2   2016-09-28 16:34:00  60400  58.6  100.0
 1  2   2016-09-28 16:28:42  0   0.0   0.0
 1  2   2016-09-28 16:23:21  60400  58.6  100.0
 1  2   2016-09-28 16:18:01  60400  57.9  100.0
 1  2   2016-09-28 16:12:42  60400  57.9  100.0
 1  2   2016-09-28 16:06:58  60400  57.9  100.0
 1  2   2016-09-28 16:01:36  60400  57.9  100.0
 1  2   2016-09-28 15:56:17  0   0.0   0.0
 1  2   2016-09-28 15:50:57  60400  57.9  100.0
 1  2   2016-09-28 15:45:27  60384  58.2  100.0
 1  2   2016-09-28 15:39:58  60432  58.0  100.0
 1  2   2016-09-28 15:34:27  60400  58.1  100.0
 1  2   2016-09-28 15:28:58  60416  58.1  100.0
 1  2   2016-09-28 15:23:28  60400  58.0  100.0
 1  2   2016-09-28 15:17:58  60432  58.0  100.0
 1  2   2016-09-28 15:12:31  60416  57.9  100.0
 1  2   2016-09-28 15:06:58  60416  58.2  100.0
 1  2   2016-09-28 15:01:28  60416  58.2  100.0
 1  2   2016-09-28 14:55:55  60400  58.3  100.0
 1  2   2016-09-28 14:50:24  60368  58.7  100.0
 1  2   2016-09-28 14:44:54  60288  58.2  100.0
 1  2   2016-09-28 14:39:23  60288  58.7  100.0
 1  2   2016-09-28 14:33:53  60272  58.8  100.0
 1  2   2016-09-28 14:28:24  60304  58.7  100.0
 1  2   2016-09-28 14:22:55  60288  58.6  100.0
 1  2   2016-09-28 14:17:26  60256  58.4  100.0
 1  2   2016-09-28 14:11:54  60256  58.4  100.0
 1  2   2016-09-28 14:06:24  60256  58.7  100.0
 1  2   2016-09-28 14:00:54  60288  59.1  100.0
 1  2   2016-09-28 13:55:23  60304  58.8  100.0
 1  2   2016-09-28 13:49:53  60240  58.7  100.0
 1  2   2016-09-28 13:44:23  60240  58.4  100.0
 1  2   2016-09-28 13:38:54  60192  58.7  100.0
 1  2   2016-09-28 13:33:25  60240  58.6  100.0
 1  2   2016-09-28 13:27:55  60192  58.7  100.0
 1  2   2016-09-28 13:22:25  60208  59.0  100.0
 1  2   2016-09-28 13:16:54  60144  59.1  100.0
 1  2   2016-09-28 13:11:24  60160  59.5  100.0
 1  2   2016-09-28 13:05:55  60192  59.4  100.0
 1  2   2016-09-28 13:00:25  60176  59.6  100.0
 1  2   2016-09-28 12:54:56  60160  59.2  100.0
 1  2   2016-09-28 12:49:27  60208  59.4  100.0
 1  2   2016-09-28 12:43:53  60176  59.4  100.0
 1  2   2016-09-28 12:38:22  60176  59.0  100.0
 1  2   2016-09-28 12:32:50  60192  59.2  100.0
 1  2   2016-09-28 12:27:22  60224  59.4  100.0
 1  2   2016-09-28 12:21:52  60128  59.5  100.0
 1  2   2016-09-28 12:16:24  60160  59.4  100.0
 1  2   2016-09-28 12:10:53  60208  59.6  100.0
 1  2   2016-09-28 12:05:21  60176  59.2  100.0
 1  2   2016-09-28 11:59:51  60208  59.2  100.0
 1  2   2016-09-28 11:54:22  60160  59.3  100.0
 1  2   2016-09-28 11:48:52  60192  59.6  100.0
 1  2   2016-09-28 11:43:23  60144  59.3  100.0
 1  2   2016-09-28 11:37:53  60080  59.5  100.0
 1  2   2016-09-28 11:32:23  60016  59.4  100.0
 1  2   2016-09-28 11:26:54  60000  59.2  100.0
 1  2   2016-09-28 11:21:24  59984  58.6  100.0
 1  2   2016-09-28 11:15:55  59968  58.4  100.0
 1  2   2016-09-28 11:10:25  60016  57.5  100.0
 1  2   2016-09-28 11:04:56  60048  56.5  100.0
 1  2   2016-09-28 10:59:25  60016  55.9  100.0
 1  2   2016-09-28 10:53:55  59936  55.6  100.0
 1  2   2016-09-28 10:48:25  59872  55.4  100.0
 1  2   2016-09-28 10:42:55  59840  55.4  100.0
 1  2   2016-09-28 10:37:24  59856  55.0  100.0
 1  2   2016-09-28 10:31:53  59776  54.6  100.0
 1  2   2016-09-28 10:26:23  59776  54.0  100.0
 1  2   2016-09-28 10:20:53  59824  53.3  100.0
 1  2   2016-09-28 10:15:24  59776  52.9  100.0
 1  2   2016-09-28 10:09:54  59888  52.3  100.0
 1  2   2016-09-28 10:04:24  59824  51.7  100.0
 1  2   2016-09-28 09:58:54  59952  51.4  100.0
 1  2   2016-09-28 09:53:25  60080  51.0  100.0
 1  2   2016-09-28 09:47:55  59984  50.9  100.0
 1  2   2016-09-28 09:42:26  60064  51.0  100.0
 1  2   2016-09-28 09:36:57  60064  50.8  100.0
 1  2   2016-09-28 09:31:27  60176  50.5  100.0
 1  2   2016-09-28 09:20:29  60112  50.2  100.0
 1  2   2016-09-28 09:15:01  60176  50.1  100.0
 1  2   2016-09-28 09:09:31  60192  49.7  100.0
 1  2   2016-09-28 09:04:01  60208  49.1  100.0
 1  2   2016-09-28 08:58:32  60144  48.8  100.0
 1  2   2016-09-28 08:53:01  60096  48.7  100.0
 1  2   2016-09-28 08:47:32  60160  48.6  100.0
 1  2   2016-09-28 08:42:02  60192  47.8  100.0
 1  2   2016-09-28 08:36:32  60224  47.1  100.0
 1  2   2016-09-28 08:31:03  60256  46.3  100.0
 1  2   2016-09-28 08:25:34  60208  45.7  100.0
 1  2   2016-09-28 08:20:05  60272  44.9  100.0
 1  2   2016-09-28 08:14:24  60256  44.2  100.0
 1  2   2016-09-28 08:08:51  60256  43.4  100.0
 1  2   2016-09-28 08:03:09  60288  42.7  100.0
 1  2   2016-09-28 07:57:38  60256  42.2  100.0
 1  2   2016-09-28 07:52:09  60384  41.6  100.0
 1  2   2016-09-28 07:46:41  60352  41.0  100.0
 1  2   2016-09-28 02:39:25  0   0.0   0.0
 1  2   2016-09-28 02:34:09  60448   0.0   0.0
 1  2   2016-09-28 02:28:53  60448   0.0   0.0
 1  2   2016-09-28 02:23:37  0   0.0   0.0
 1  2   2016-09-28 02:18:21  0   0.0   0.0
 1  2   2016-09-28 02:13:05  60448   0.0   0.0
 1  2   2016-09-28 02:07:48  60448   0.0   0.0
 1  2   2016-09-28 02:02:31  60224   0.0   0.0
 1  2   2016-09-28 01:57:15  60224   0.0   0.0
 1  2   2016-09-28 01:51:59  60224   0.0   0.0
 1  2   2016-09-28 01:46:43  60224   0.0   0.0
 1  2   2016-09-28 01:41:27  60288   0.0   0.0
 1  2   2016-09-28 01:36:11  60352   0.0   0.0
 1  2   2016-09-28 01:30:54  0   0.0   0.0
 1  2   2016-09-28 01:25:39  0   0.0   0.0
 1  2   2016-09-28 01:20:23  0   0.0   0.0
 1  2   2016-09-28 01:15:06  60352   0.0   0.0
 1  2   2016-09-28 01:09:50  60352   0.0   0.0
 1  2   2016-09-28 01:04:35  60368   0.0   0.0
 1  2   2016-09-28 00:59:19  60368   0.0   0.0
 1  2   2016-09-28 00:54:03  0   0.0   0.0
 1  2   2016-09-28 00:48:46  60368   0.0   0.0
 1  2   2016-09-28 00:43:29  60512   0.0   0.0
 1  2   2016-09-28 00:38:14  60272   0.0   0.0
 1  2   2016-09-28 00:32:57  60272   0.0   0.0
 1  2   2016-09-28 00:27:40  60256   0.0   0.0
 1  2   2016-09-28 00:22:24  60256   0.0   0.0
 1  2   2016-09-28 00:17:09  0   0.0   0.0
 1  2   2016-09-28 00:11:53  60256   0.0   0.0
 1  2   2016-09-28 00:06:37  60256   0.0   0.0
 1  2   2016-09-28 00:01:20  60416   0.0   0.0
 1  2   2016-09-27 23:56:02  60304   0.0   0.0
 1  2   2016-09-27 23:50:47  0   0.0   0.0
 1  2   2016-09-27 23:45:30  0   0.0   0.0
 1  2   2016-09-27 23:40:14  60304   0.0   0.0
 1  2   2016-09-27 23:34:58  60304   0.0   0.0
 1  2   2016-09-27 23:29:43  60304   0.0   0.0
 1  2   2016-09-27 23:24:27  0   0.0   0.0
 1  2   2016-09-27 23:19:11  0   0.0   0.0
 1  2   2016-09-27 23:13:54  60272   0.0   0.0
 1  2   2016-09-27 23:08:37  60224   0.0   0.0
 1  2   2016-09-27 23:03:22  60336   0.0   0.0
 1  2   2016-09-27 22:58:06  60336   0.0   0.0
 1  2   2016-09-27 22:52:48  60272   0.0   0.0
 1  2   2016-09-27 22:47:32  0   0.0   0.0
 1  2   2016-09-27 22:42:16  60160   0.0   0.0
 1  2   2016-09-27 22:37:00  60160   0.0   0.0
 1  2   2016-09-27 22:31:45  60160   0.0   0.0
 1  2   2016-09-27 22:26:29  0   0.0   0.0
 1  2   2016-09-27 22:21:12  0   0.0   0.0
 1  2   2016-09-27 22:15:57  60160   0.0   0.0
 1  2   2016-09-27 22:10:40  0   0.0   0.0
 1  2   2016-09-27 22:05:24  60160   0.0   0.0
 1  2   2016-09-27 22:00:07  0   0.0   0.0
 1  2   2016-09-27 21:54:50  60160   0.0   0.0
 1  2   2016-09-27 21:49:33  0   0.0   0.0
 1  2   2016-09-27 21:44:14  60128   0.0   0.0
 1  2   2016-09-27 21:38:58  0   0.0   0.0
 1  2   2016-09-27 21:33:41  60464   0.0   0.0
 1  2   2016-09-27 21:28:25  60432   0.0   0.0
 1  2   2016-09-27 21:23:09  60432   0.0   0.0
 1  2   2016-09-27 21:17:53  60432   0.0   0.0
 1  2   2016-09-27 21:12:37  59904   0.0   0.0
 1  2   2016-09-27 21:07:21  59904   0.0   0.0
 1  2   2016-09-27 21:02:04  59904   0.0   0.0
 1  2   2016-09-27 20:56:48  59952   0.0   0.0
 1  2   2016-09-27 20:51:31  60352   0.0   0.0
 1  2   2016-09-27 20:46:14  60496   0.0   0.0
 1  2   2016-09-27 20:40:58  60144   0.0   0.0
 1  2   2016-09-27 20:35:42  60096   0.0   0.0
 1  2   2016-09-27 20:30:26  60096   0.0   0.0
 1  2   2016-09-27 20:25:10  60096   0.0   0.0
 1  2   2016-09-27 20:19:53  60096   0.0   0.0
 1  2   2016-09-27 20:14:30  0   0.0   0.0
 1  2   2016-09-27 20:09:14  60336   0.0   0.0
 1  2   2016-09-27 20:03:57  60336   0.0   0.0
 1  2   2016-09-27 19:58:41  60352   0.0   0.0
 1  2   2016-09-27 19:53:25  0   0.0   0.0
 1  2   2016-09-27 19:48:08  60288   0.0   0.0
 1  2   2016-09-27 19:42:50  0   0.0   0.0
 1  2   2016-09-27 19:37:34  60352   0.0   0.0
 1  2   2016-09-27 19:32:18  60352   0.0   0.0
 1  2   2016-09-27 19:27:01  60352   0.0   0.0
 1  2   2016-09-27 19:21:45  60304   0.0   0.0
 1  2   2016-09-27 19:16:28  60304   0.0   0.0
 1  2   2016-09-27 19:11:11  60304   0.0   0.0
 1  2   2016-09-27 19:05:55  60304   0.0   0.0
 1  2   2016-09-27 19:00:39  60304   0.0   0.0
 1  2   2016-09-27 18:55:23  60304   0.0   0.0
 1  2   2016-09-27 18:50:02  60304   0.0   0.0
 1  2   2016-09-27 18:44:46  60304   0.0   0.0
 1  2   2016-09-27 18:39:29  60288   0.0   0.0
 1  2   2016-09-27 18:34:13  60384   0.0   0.0
 1  2   2016-09-27 18:28:56  60384   0.0   0.0
 1  2   2016-09-27 18:23:39  60352   0.0   0.0
 1  2   2016-09-27 18:18:23  60352   0.0   0.0
 1  2   2016-09-27 18:13:06  60352   0.0   0.0
 1  2   2016-09-27 18:07:50  60304   0.0   0.0
 1  2   2016-09-27 18:02:32  60320   0.0   0.0
 1  2   2016-09-27 17:57:16  60384   0.0   0.0
 1  2   2016-09-27 17:51:48  60384   0.0   0.0
 1  2   2016-09-27 17:46:31  60368   0.0   0.0
 1  2   2016-09-27 17:41:14  60320   0.0   0.0
 1  2   2016-09-27 17:35:56  0   0.0   0.0
 1  2   2016-09-27 17:30:39  0   0.0   0.0
 1  2   2016-09-27 17:25:23  60352   0.0   0.0
 1  2   2016-09-27 17:20:08  0   0.0   0.0
 1  2   2016-09-27 17:14:51  60336   0.0   0.0
 1  2   2016-09-27 17:09:34  0   0.0   0.0
 1  2   2016-09-27 17:04:17  60272   0.0   0.0
 1  2   2016-09-27 16:59:01  60272   0.0   0.0
 1  2   2016-09-27 16:53:45  60320   0.0   0.0
 1  2   2016-09-27 16:48:28  60288   0.0   0.0
 1  2   2016-09-27 16:43:10  60368   0.0   0.0
 1  2   2016-09-27 16:37:54  60448   0.0   0.0
 1  2   2016-09-27 16:32:38  60448   0.0   0.0
 1  2   2016-09-27 16:27:09  60320   0.0   0.0
 1  2   2016-09-27 16:21:42  60320   0.0   0.0
 1  2   2016-09-27 16:16:11  60320   0.0   0.0
 1  2   2016-09-27 16:10:44  60320   0.0   0.0
 1  2   2016-09-27 16:05:15  60336   0.0   0.0
 1  2   2016-09-27 15:59:47  60304   0.0   0.0
 1  2   2016-09-27 15:54:19  60304   0.0   0.0
 1  2   2016-09-27 15:48:50  60304   0.0   0.0
 1  2   2016-09-27 15:43:24  60288   0.0   0.0
 1  2   2016-09-27 15:37:56  60256   0.0   0.0
 1  2   2016-09-27 15:32:18  60272   0.0   0.0
 1  2   2016-09-27 15:26:40  60240   0.0   0.0
 1  2   2016-09-27 15:19:53  60176   0.0   0.0
 1  2   2016-09-27 15:14:23  60176   0.0   0.0
 1  2   2016-09-27 15:07:56  60176   0.0   0.0
 1  2   2016-09-27 15:00:54  60176   0.0   0.0
 1  2   2016-09-27 14:55:26  60160   0.0   0.0
 1  2   2016-09-27 14:49:53  60160   0.0   0.0
 1  2   2016-09-27 14:44:15  60160   0.0   0.0
 1  2   2016-09-27 14:38:46  60160   0.0   0.0
 1  2   2016-09-27 14:33:06  60176   0.0   0.0
 1  2   2016-09-27 14:27:39  60176   0.0   0.0
 1  2   2016-09-27 14:22:11  60128   0.0   0.0
 1  2   2016-09-27 14:16:44  60160   0.0   0.0
 1  2   2016-09-27 14:11:16  60144   0.0   0.0
 1  2   2016-09-27 14:05:40  60144   0.0   0.0
 1  2   2016-09-27 14:00:10  60160   0.0   0.0
 1  2   2016-09-27 13:54:39  60128   0.0   0.0
 1  2   2016-09-27 13:49:07  60176   0.0   0.0
 1  2   2016-09-27 13:42:57  60176   0.0   0.0
 1  2   2016-09-27 13:36:53  60144   0.0   0.0
 1  2   2016-09-27 13:30:46  60160   0.0   0.0
 1  2   2016-09-27 13:23:59  60160   0.0   0.0
 1  2   2016-09-27 13:18:26  60144   0.0   0.0
 1  2   2016-09-27 13:12:58  60080   0.0   0.0
 1  2   2016-09-27 13:07:31  60048   0.0   0.0
 1  2   2016-09-27 13:02:04  60144   0.0   0.0
 1  2   2016-09-27 12:56:30  60080   0.0   0.0
 1  2   2016-09-27 12:51:01  60064   0.0   0.0
 1  2   2016-09-27 12:44:38  60080   0.0   0.0
 1  2   2016-09-27 12:39:05  60096   0.0   0.0
 1  2   2016-09-27 12:33:38  60112   0.0   0.0
 1  2   2016-09-27 12:28:11  60112   0.0   0.0
 1  2   2016-09-27 12:22:45  60112   0.0   0.0
 1  2   2016-09-27 12:17:19  60096   0.0   0.0
 1  2   2016-09-27 12:11:52  60128   0.0   0.0
 1  2   2016-09-27 12:06:25  60128   0.0   0.0
 1  2   2016-09-27 12:00:59  60080   0.0   0.0
 1  2   2016-09-27 11:55:30  59936   0.0   0.0
 1  2   2016-09-27 11:49:56  59904   0.0   0.0
 1  2   2016-09-27 11:44:28  59904   0.0   0.0
 1  2   2016-09-27 11:38:59  59904   0.0   0.0
 1  2   2016-09-27 11:33:31  59920   0.0   0.0
 1  2   2016-09-27 11:28:04  59872   0.0   0.0
 1  2   2016-09-27 11:22:38  59904   0.0   0.0
 1  2   2016-09-27 11:17:11  59920   0.0   0.0
 1  2   2016-09-27 11:11:42  59888   0.0   0.0
 1  2   2016-09-27 11:00:31  60048   0.0   0.0
 1  2   2016-09-27 10:54:57  60064   0.0   0.0
 1  2   2016-09-27 10:49:27  60096   0.0   0.0
 1  2   2016-09-27 10:43:59  60016   0.0   0.0
 1  2   2016-09-27 10:38:29  59920   0.0   0.0
 1  2   2016-09-27 10:32:59  59936   0.0   0.0
 1  2   2016-09-27 10:27:17  59840   0.0   0.0
 1  2   2016-09-27 10:21:21  59872   0.0   0.0
 1  2   2016-09-27 10:15:48  59968   0.0   0.0
 1  2   2016-09-27 10:10:17  60016   0.0   0.0
 1  2   2016-09-27 10:04:48  60096   0.0   0.0
 1  2   2016-09-27 09:59:19  60144   0.0   0.0
 1  2   2016-09-27 09:53:49  60192   0.0   0.0
 1  2   2016-09-27 09:48:19  60256   0.0   0.0
 1  2   2016-09-27 09:42:50  60224   0.0   0.0
 1  2   2016-09-27 09:37:12  60256   0.0   0.0
 1  2   2016-09-27 09:31:27  60192   0.0   0.0
 1  2   2016-09-27 09:25:58  60256   0.0   0.0
 1  2   2016-09-27 09:20:29  60224   0.0   0.0
 1  2   2016-09-27 09:14:56  60256   0.0   0.0
 1  2   2016-09-27 09:09:26  60240   0.0   0.0
 1  2   2016-09-27 09:03:57  60256   0.0   0.0
 1  2   2016-09-27 08:58:23  60224   0.0   0.0
 1  2   2016-09-27 08:52:54  60240   0.0   0.0
 1  2   2016-09-27 08:47:23  60304   0.0   0.0
 1  2   2016-09-27 08:41:55  60288   0.0   0.0
 1  2   2016-09-27 08:36:24  60288   0.0   0.0
 1  2   2016-09-27 08:30:58  60592   0.0   0.0
 1  2   2016-09-27 03:27:00  60176   0.0   0.0
 1  2   2016-09-27 03:21:43  0   0.0   0.0
 1  2   2016-09-27 03:16:23  60176   0.0   0.0
 1  2   2016-09-27 03:11:05  0   0.0   0.0
 1  2   2016-09-27 03:05:46  60224   0.0   0.0
 1  2   2016-09-27 03:00:25  60128   0.0   0.0
 1  2   2016-09-27 02:55:05  60048   0.0   0.0
 1  2   2016-09-27 02:49:48  60048   0.0   0.0
 1  2   2016-09-27 02:44:30  60048   0.0   0.0
 1  2   2016-09-27 02:39:11  0   0.0   0.0
 1  2   2016-09-27 02:33:50  60048   0.0   0.0
 1  2   2016-09-27 02:28:32  0   0.0   0.0
 1  2   2016-09-27 02:23:15  0   0.0   0.0
 1  2   2016-09-27 02:17:56  0   0.0   0.0
 1  2   2016-09-27 02:12:36  60224   0.0   0.0
 1  2   2016-09-27 02:07:16  60064   0.0   0.0
 1  2   2016-09-27 02:01:55  60112   0.0   0.0
 1  2   2016-09-27 01:56:37  0   0.0   0.0
 1  2   2016-09-27 01:51:19  60112   0.0   0.0
 1  2   2016-09-27 01:45:58  60352   0.0   0.0
 1  2   2016-09-27 01:40:37  60352   0.0   0.0
 1  2   2016-09-27 01:35:17  0   0.0   0.0
 1  2   2016-09-27 01:29:58  0   0.0   0.0
 1  2   2016-09-27 01:24:35  60080   0.0   0.0
 1  2   2016-09-27 01:19:14  60160   0.0   0.0
 1  2   2016-09-27 01:13:52  60240   0.0   0.0
 1  2   2016-09-27 01:08:34  0   0.0   0.0
 1  2   2016-09-27 01:03:17  0   0.0   0.0
 1  2   2016-09-27 00:57:56  60448   0.0   0.0
 1  2   2016-09-27 00:52:37  0   0.0   0.0
 1  2   2016-09-27 00:47:17  60048   0.0   0.0
 1  2   2016-09-27 00:42:00  60288   0.0   0.0
 1  2   2016-09-27 00:36:42  60288   0.0   0.0
 1  2   2016-09-27 00:31:22  0   0.0   0.0
 1  2   2016-09-27 00:26:04  0   0.0   0.0
 1  2   2016-09-27 00:20:44  60288   0.0   0.0
 1  2   2016-09-27 00:15:26  60128   0.0   0.0
 1  2   2016-09-27 00:10:04  60128   0.0   0.0
 1  2   2016-09-27 00:04:44  60208   0.0   0.0
 1  2   2016-09-26 23:59:24  0   0.0   0.0
 1  2   2016-09-26 23:54:05  60288   0.0   0.0
 1  2   2016-09-26 23:48:47  60288   0.0   0.0
 1  2   2016-09-26 23:43:28  60384   0.0   0.0
 1  2   2016-09-26 23:38:10  0   0.0   0.0
 1  2   2016-09-26 23:32:50  60352   0.0   0.0
 1  2   2016-09-26 23:27:32  60352   0.0   0.0
 1  2   2016-09-26 23:22:14  60352   0.0   0.0
 1  2   2016-09-26 23:16:56  0   0.0   0.0
 1  2   2016-09-26 23:11:37  60352   0.0   0.0
 1  2   2016-09-26 23:06:18  60352   0.0   0.0
 1  2   2016-09-26 23:00:57  60352   0.0   0.0
 1  2   2016-09-26 22:55:39  60352   0.0   0.0
 1  2   2016-09-26 22:50:22  0   0.0   0.0
 1  2   2016-09-26 22:45:03  60352   0.0   0.0
 1  2   2016-09-26 22:39:43  0   0.0   0.0
 1  2   2016-09-26 22:34:22  60352   0.0   0.0
 1  2   2016-09-26 22:29:03  0   0.0   0.0
 1  2   2016-09-26 22:23:43  60512   0.0   0.0
 1  2   2016-09-26 22:18:24  0   0.0   0.0
 1  2   2016-09-26 22:13:05  60512   0.0   0.0
 1  2   2016-09-26 22:07:42  60512   0.0   0.0
 1  2   2016-09-26 22:02:23  0   0.0   0.0
 1  2   2016-09-26 21:57:05  60144   0.0   0.0
 1  2   2016-09-26 21:51:47  0   0.0   0.0
 1  2   2016-09-26 21:46:27  60144   0.0   0.0
 1  2   2016-09-26 21:41:05  60144   0.0   0.0
 1  2   2016-09-26 21:35:47  60288   0.0   0.0
 1  2   2016-09-26 21:30:29  0   0.0   0.0
 1  2   2016-09-26 21:25:10  60288   0.0   0.0
 1  2   2016-09-26 21:19:50  60272   0.0   0.0
 1  2   2016-09-26 21:14:30  60272   0.0   0.0
 1  2   2016-09-26 21:09:11  60272   0.0   0.0
 1  2   2016-09-26 21:03:50  0   0.0   0.0
 1  2   2016-09-26 20:58:32  60352   0.0   0.0
 1  2   2016-09-26 20:53:10  60128   0.0   0.0
 1  2   2016-09-26 20:47:50  60192   0.0   0.0
 1  2   2016-09-26 20:42:29  60272   0.0   0.0
 1  2   2016-09-26 20:37:09  60272   0.0   0.0
 1  2   2016-09-26 20:31:50  0   0.0   0.0
 1  2   2016-09-26 20:26:29  60272   0.0   0.0
 1  2   2016-09-26 20:21:09  60272   0.0   0.0
 1  2   2016-09-26 20:15:49  0   0.0   0.0
 1  2   2016-09-26 20:10:29  60272   0.0   0.0
 1  2   2016-09-26 20:05:09  60272   0.0   0.0
 1  2   2016-09-26 19:59:49  60272   0.0   0.0
 1  2   2016-09-26 19:54:30  0   0.0   0.0
 1  2   2016-09-26 19:49:10  60160   0.0   0.0
 1  2   2016-09-26 19:43:50  60272   0.0   0.0
 1  2   2016-09-26 19:38:30  60208   0.0   0.0
 1  2   2016-09-26 19:33:11  60272   0.0   0.0
 1  2   2016-09-26 19:27:51  60272   0.0   0.0
 1  2   2016-09-26 19:22:31  60272   0.0   0.0
 1  2   2016-09-26 19:17:13  60224   0.0   0.0
 1  2   2016-09-26 19:11:54  60224   0.0   0.0
 1  2   2016-09-26 19:06:35  0   0.0   0.0
 1  2   2016-09-26 19:01:15  60224   0.0   0.0
 1  2   2016-09-26 18:55:55  60224   0.0   0.0
 1  2   2016-09-26 18:50:34  0   0.0   0.0
 1  2   2016-09-26 18:45:15  60256   0.0   0.0
 1  2   2016-09-26 18:39:58  0   0.0   0.0
 1  2   2016-09-26 18:34:39  60256   0.0   0.0
 1  2   2016-09-26 18:29:20  60256   0.0   0.0
 1  2   2016-09-26 18:23:56  60256   0.0   0.0
 1  2   2016-09-26 18:18:36  60256   0.0   0.0
 1  2   2016-09-26 18:13:17  60240   0.0   0.0
 1  2   2016-09-26 18:07:57  60272   0.0   0.0
 1  2   2016-09-26 18:02:37  60272   0.0   0.0
 1  2   2016-09-26 17:57:17  60320   0.0   0.0
 1  2   2016-09-26 17:51:57  60336   0.0   0.0
 1  2   2016-09-26 17:46:37  60336   0.0   0.0
 1  2   2016-09-26 17:41:08  60224   0.0   0.0
 1  2   2016-09-26 17:35:49  60256   0.0   0.0
 1  2   2016-09-26 17:30:23  60336   0.0   0.0
 1  2   2016-09-26 17:25:01  0   0.0   0.0
 1  2   2016-09-26 17:19:32  60288   0.0   0.0
 1  2   2016-09-26 17:14:14  60288   0.0   0.0
 1  2   2016-09-26 17:08:57  60288   0.0   0.0
 1  2   2016-09-26 17:03:38  60288   0.0   0.0
 1  2   2016-09-26 16:58:18  60288   0.0   0.0
 1  2   2016-09-26 16:52:58  60304   0.0   0.0
 1  2   2016-09-26 16:47:39  60352   0.0   0.0
 1  2   2016-09-26 16:42:20  60336   0.0   0.0
 1  2   2016-09-26 16:36:59  60272   0.0   0.0
 1  2   2016-09-26 16:31:41  0   0.0   0.0
 1  2   2016-09-26 16:26:21  60224   0.0   0.0
 1  2   2016-09-26 16:20:44  60224   0.0   0.0
 1  2   2016-09-26 16:15:23  0   0.0   0.0
 1  2   2016-09-26 16:09:49  60240   0.0   0.0
 1  2   2016-09-26 16:04:28  0   0.0   0.0
 1  2   2016-09-26 15:59:07  60272   0.0   0.0
 1  2   2016-09-26 15:53:37  60256   0.0   0.0
 1  2   2016-09-26 15:48:07  60240   0.0   0.0
 1  2   2016-09-26 15:42:29  60224   0.0   0.0
 1  2   2016-09-26 15:36:08  60144   0.0   0.0
 1  2   2016-09-26 15:30:39  60160   0.0   0.0
 1  2   2016-09-26 15:24:27  60176   0.0   0.0
 1  2   2016-09-26 15:18:55  60160   0.0   0.0
 1  2   2016-09-26 15:13:21  60160   0.0   0.0
 1  2   2016-09-26 15:07:51  60160   0.0   0.0
 1  2   2016-09-26 15:02:22  60144   0.0   0.0
 1  2   2016-09-26 14:56:52  60128   0.0   0.0
 1  2   2016-09-26 14:51:22  60144   0.0   0.0
 1  2   2016-09-26 14:45:35  60160   0.0   0.0
 1  2   2016-09-26 14:40:05  60144   0.0   0.0
 1  2   2016-09-26 14:34:34  60144   0.0   0.0
 1  2   2016-09-26 14:29:03  60128   0.0   0.0
 1  2   2016-09-26 14:23:34  60160   0.0   0.0
 1  2   2016-09-26 14:18:05  60160   0.0   0.0
 1  2   2016-09-26 14:12:35  60176   0.0   0.0
 1  2   2016-09-26 14:07:06  60128   0.0   0.0
 1  2   2016-09-26 14:01:37  60176   0.0   0.0
 1  2   2016-09-26 13:56:07  60144   0.0   0.0
 1  2   2016-09-26 13:50:35  60160   0.0   0.0
 1  2   2016-09-26 13:45:05  60160   0.0   0.0
 1  2   2016-09-26 13:39:36  60176   0.0   0.0
 1  2   2016-09-26 13:34:07  60192   0.0   0.0
 1  2   2016-09-26 13:28:36  60176   0.0   0.0
 1  2   2016-09-26 13:23:06  60176   0.0   0.0
 1  2   2016-09-26 13:17:35  60160   0.0   0.0
 1  2   2016-09-26 13:11:58  60160   0.0   0.0
 1  2   2016-09-26 13:05:56  60144   0.0   0.0
 1  2   2016-09-26 13:00:24  60192   0.0   0.0
 1  2   2016-09-26 12:54:55  60192   0.0   0.0
 1  2   2016-09-26 12:49:18  60192   0.0   0.0
 1  2   2016-09-26 12:43:43  60160   0.0   0.0
 1  2   2016-09-26 12:38:15  60176   0.0   0.0
 1  2   2016-09-26 12:32:46  60160   0.0   0.0
 1  2   2016-09-26 11:26:58  60080   0.0   0.0
 1  2   2016-09-26 11:21:11  60096   0.0   0.0
 1  2   2016-09-26 11:15:14  60048   0.0   0.0
 1  2   2016-09-26 11:09:43  60048   0.0   0.0
 1  2   2016-09-26 11:04:01  60080   0.0   0.0
 1  2   2016-09-26 10:57:40  60000   0.0   0.0
 1  2   2016-09-26 10:52:00  59984   0.0   0.0
 1  2   2016-09-26 10:46:31  60000   0.0   0.0
 1  2   2016-09-26 10:41:00  59968   0.0   0.0
 1  2   2016-09-26 10:35:31  59952   0.0   0.0
 1  2   2016-09-26 10:29:59  59952   0.0   0.0
 1  2   2016-09-26 10:24:30  59952   0.0   0.0
 1  2   2016-09-26 10:19:00  59920   0.0   0.0
 1  2   2016-09-26 10:13:31  60032   0.0   0.0
 1  2   2016-09-26 10:08:01  60000   0.0   0.0
 1  2   2016-09-26 10:02:33  60096   0.0   0.0
 1  2   2016-09-26 09:57:02  60096   0.0   0.0
 1  2   2016-09-26 09:51:32  60160   0.0   0.0
 1  2   2016-09-26 09:46:03  60128   0.0   0.0
 1  2   2016-09-26 09:40:33  60128   0.0   0.0
 1  2   2016-09-26 09:35:04  60096   0.0   0.0
 1  2   2016-09-26 09:29:34  60208   0.0   0.0
 1  2   2016-09-26 09:24:06  60144   0.0   0.0
 1  2   2016-09-26 09:18:36  60224   0.0   0.0
 1  2   2016-09-26 09:13:07  60192   0.0   0.0
 1  2   2016-09-26 09:07:36  60224   0.0   0.0
 1  2   2016-09-26 09:02:06  60208   0.0   0.0
 1  2   2016-09-26 08:56:37  60176   0.0   0.0
 1  2   2016-09-26 08:51:02  60240   0.0   0.0
 1  2   2016-09-26 08:45:32  60272   0.0   0.0
 1  2   2016-09-26 08:40:04  60272   0.0   0.0
 1  2   2016-09-26 08:34:33  60208   0.0   0.0
 1  2   2016-09-26 08:29:04  60384   0.0   0.0
 1  2   2016-09-26 08:23:34  60288   0.0   0.0
 1  2   2016-09-26 08:18:06  60320   0.0   0.0
 1  2   2016-09-26 08:12:35  60304   0.0   0.0
 1  2   2016-09-26 08:07:05  60304   0.0   0.0
 1  2   2016-09-26 08:01:36  60400   0.0   0.0
 1  2   2016-09-26 07:56:09  60512   0.0   0.0
 1  2   2016-09-26 01:53:01  60560   0.0   0.0
 1  2   2016-09-26 01:47:42  60560   0.0   0.0
 1  2   2016-09-26 01:42:24  60560   0.0   0.0
 1  2   2016-09-26 01:37:06  0   0.0   0.0
 1  2   2016-09-26 01:31:45  60560   0.0   0.0
 1  2   2016-09-26 01:26:27  60320   0.0   0.0
 1  2   2016-09-26 01:21:09  60320   0.0   0.0
 1  2   2016-09-26 01:15:51  0   0.0   0.0
 1  2   2016-09-26 01:10:32  0   0.0   0.0
 1  2   2016-09-26 01:05:13  60320   0.0   0.0
 1  2   2016-09-26 00:59:52  60304   0.0   0.0
 1  2   2016-09-26 00:54:33  0   0.0   0.0
 1  2   2016-09-26 00:49:14  0   0.0   0.0
 1  2   2016-09-26 00:43:52  0   0.0   0.0
 1  2   2016-09-26 00:38:34  60080   0.0   0.0
 1  2   2016-09-26 00:33:13  60048   0.0   0.0
 1  2   2016-09-26 00:27:55  0   0.0   0.0
 1  2   2016-09-26 00:22:35  60416   0.0   0.0
 1  2   2016-09-26 00:17:15  60416   0.0   0.0
 1  2   2016-09-26 00:11:57  60416   0.0   0.0
 1  2   2016-09-26 00:06:39  60416   0.0   0.0
 1  2   2016-09-26 00:01:19  60416   0.0   0.0
 1  2   2016-09-25 23:56:00  0   0.0   0.0
 1  2   2016-09-25 23:50:42  60416   0.0   0.0
 1  2   2016-09-25 23:45:22  60416   0.0   0.0
 1  2   2016-09-25 23:40:03  60064   0.0   0.0
 1  2   2016-09-25 23:34:44  0   0.0   0.0
 1  2   2016-09-25 23:29:23  60064   0.0   0.0
 1  2   2016-09-25 23:24:04  0   0.0   0.0
 1  2   2016-09-25 23:18:46  0   0.0   0.0
 1  2   2016-09-25 23:13:28  60064   0.0   0.0
 1  2   2016-09-25 23:08:09  60064   0.0   0.0
 1  2   2016-09-25 23:02:45  60080   0.0   0.0
 1  2   2016-09-25 22:57:27  60096   0.0   0.0
 1  2   2016-09-25 22:52:09  0   0.0   0.0
 1  2   2016-09-25 22:46:50  60096   0.0   0.0
 1  2   2016-09-25 22:41:29  60224   0.0   0.0
 1  2   2016-09-25 22:36:09  60416   0.0   0.0
 1  2   2016-09-25 22:30:49  60608   0.0   0.0
 1  2   2016-09-25 22:25:30  60208   0.0   0.0
 1  2   2016-09-25 22:20:09  60208   0.0   0.0
 1  2   2016-09-25 22:14:50  60208   0.0   0.0
 1  2   2016-09-25 22:09:29  60224   0.0   0.0
 1  2   2016-09-25 22:04:10  60224   0.0   0.0
 1  2   2016-09-25 21:58:51  60224   0.0   0.0
 1  2   2016-09-25 21:53:31  0   0.0   0.0
 1  2   2016-09-25 21:48:13  60464   0.0   0.0
 1  2   2016-09-25 21:42:56  60464   0.0   0.0
 1  2   2016-09-25 21:37:36  0   0.0   0.0
 1  2   2016-09-25 21:32:17  60464   0.0   0.0
 1  2   2016-09-25 21:26:58  0   0.0   0.0
 1  2   2016-09-25 21:21:38  60464   0.0   0.0
 1  2   2016-09-25 21:16:20  60352   0.0   0.0
 1  2   2016-09-25 21:11:03  60352   0.0   0.0
 1  2   2016-09-25 21:05:42  60176   0.0   0.0
 1  2   2016-09-25 21:00:22  60016   0.0   0.0
 1  2   2016-09-25 20:55:03  0   0.0   0.0
 1  2   2016-09-25 20:49:44  60448   0.0   0.0
 1  2   2016-09-25 20:44:26  0   0.0   0.0
 1  2   2016-09-25 20:39:06  60368   0.0   0.0
 1  2   2016-09-25 20:33:48  60368   0.0   0.0
 1  2   2016-09-25 20:28:30  0   0.0   0.0
 1  2   2016-09-25 20:23:13  60368   0.0   0.0
 1  2   2016-09-25 20:17:53  60368   0.0   0.0
 1  2   2016-09-25 20:12:35  0   0.0   0.0
 1  2   2016-09-25 20:07:13  60368   0.0   0.0
 1  2   2016-09-25 20:01:55  59936   0.0   0.0
 1  2   2016-09-25 19:56:36  60048   0.0   0.0
 1  2   2016-09-25 19:51:16  60176   0.0   0.0
 1  2   2016-09-25 19:45:55  0   0.0   0.0
 1  2   2016-09-25 19:40:36  0   0.0   0.0
 1  2   2016-09-25 19:35:17  60080   0.0   0.0
 1  2   2016-09-25 19:29:56  0   0.0   0.0
 1  2   2016-09-25 19:24:38  60080   0.0   0.0
 1  2   2016-09-25 19:19:19  0   0.0   0.0
 1  2   2016-09-25 19:13:56  60112   0.0   0.0
 1  2   2016-09-25 19:08:39  0   0.0   0.0
 1  2   2016-09-25 19:03:19  0   0.0   0.0
 1  2   2016-09-25 18:58:00  60192   0.0   0.0
 1  2   2016-09-25 18:52:39  60208   0.0   0.0
 1  2   2016-09-25 18:47:21  0   0.0   0.0
 1  2   2016-09-25 18:42:03  0   0.0   0.0
 1  2   2016-09-25 18:36:44  0   0.0   0.0
 1  2   2016-09-25 18:31:25  0   0.0   0.0
 1  2   2016-09-25 18:26:03  0   0.0   0.0
 1  2   2016-09-25 18:20:45  60352   0.0   0.0
 1  2   2016-09-25 18:15:25  60352   0.0   0.0
 1  2   2016-09-25 18:10:02  0   0.0   0.0
 1  2   2016-09-25 18:04:45  60352   0.0   0.0
 1  2   2016-09-25 17:59:24  60352   0.0   0.0
 1  2   2016-09-25 17:54:05  60352   0.0   0.0
 1  2   2016-09-25 17:48:47  0   0.0   0.0
 1  2   2016-09-25 17:43:29  60352   0.0   0.0
 1  2   2016-09-25 17:38:10  60352   0.0   0.0
 1  2   2016-09-25 17:32:52  60352   0.0   0.0
 1  2   2016-09-25 17:27:33  0   0.0   0.0
 1  2   2016-09-25 17:22:13  0   0.0   0.0
 1  2   2016-09-25 17:16:52  60288   0.0   0.0
 1  2   2016-09-25 17:11:34  60224   0.0   0.0
 1  2   2016-09-25 17:06:16  60224   0.0   0.0
 1  2   2016-09-25 17:00:56  60256   0.0   0.0
 1  2   2016-09-25 16:55:37  60304   0.0   0.0
 1  2   2016-09-25 16:50:19  0   0.0   0.0
 1  2   2016-09-25 16:45:01  60304   0.0   0.0
 1  2   2016-09-25 16:39:42  0   0.0   0.0
 1  2   2016-09-25 16:34:24  0   0.0   0.0
 1  2   2016-09-25 16:29:05  60304   0.0   0.0
 1  2   2016-09-25 16:23:48  60304   0.0   0.0
 1  2   2016-09-25 16:18:28  60336   0.0   0.0
 1  2   2016-09-25 16:13:09  0   0.0   0.0
 1  2   2016-09-25 16:07:50  60224   0.0   0.0
 1  2   2016-09-25 16:02:29  60272   0.0   0.0
 1  2   2016-09-25 15:57:08  60272   0.0   0.0
 1  2   2016-09-25 15:51:38  60272   0.0   0.0
 1  2   2016-09-25 15:46:10  60288   0.0   0.0
 1  2   2016-09-25 15:40:41  60304   0.0   0.0
 1  2   2016-09-25 15:35:10  60272   0.0   0.0
 1  2   2016-09-25 15:29:42  60320   0.0   0.0
 1  2   2016-09-25 15:24:13  60288   0.0   0.0
 1  2   2016-09-25 15:18:42  60288   0.0   0.0
 1  2   2016-09-25 15:13:11  60256   0.0   0.0
 1  2   2016-09-25 15:07:41  60304   0.0   0.0
 1  2   2016-09-25 15:02:11  60288   0.0   0.0
 1  2   2016-09-25 14:56:42  60288   0.0   0.0
 1  2   2016-09-25 14:51:12  60272   0.0   0.0
 1  2   2016-09-25 14:45:43  60288   0.0   0.0
 1  2   2016-09-25 14:40:14  60304   0.0   0.0
 1  2   2016-09-25 14:34:44  60304   0.0   0.0
 1  2   2016-09-25 14:29:14  60320   0.0   0.0
 1  2   2016-09-25 14:23:41  60272   0.0   0.0
 1  2   2016-09-25 14:18:09  60320   0.0   0.0
 1  2   2016-09-25 14:12:41  60272   0.0   0.0
 1  2   2016-09-25 14:07:10  60272   0.0   0.0
 1  2   2016-09-25 14:01:41  60224   0.0   0.0
 1  2   2016-09-25 13:56:12  60256   0.0   0.0
 1  2   2016-09-25 13:50:41  60224   0.0   0.0
 1  2   2016-09-25 13:45:11  60224   0.0   0.0
 1  2   2016-09-25 13:39:42  60192   0.0   0.0
 1  2   2016-09-25 13:34:14  60224   0.0   0.0
 1  2   2016-09-25 13:28:44  60224   0.0   0.0
 1  2   2016-09-25 13:23:14  60208   0.0   0.0
 1  2   2016-09-25 13:17:44  60240   0.0   0.0
 1  2   2016-09-25 13:12:14  60224   0.0   0.0
 1  2   2016-09-25 13:06:43  60256   0.0   0.0
 1  2   2016-09-25 13:01:14  60176   0.0   0.0
 1  2   2016-09-25 12:55:44  60208   0.0   0.0
 1  2   2016-09-25 12:50:15  60192   0.0   0.0
 1  2   2016-09-25 12:44:45  60256   0.0   0.0
 1  2   2016-09-25 12:39:16  60272   0.0   0.0
 1  2   2016-09-25 12:33:46  60272   0.0   0.0
 1  2   2016-09-25 12:28:18  60272   0.0   0.0
 1  2   2016-09-25 12:22:50  60304   0.0   0.0
 1  2   2016-09-25 12:17:19  60304   0.0   0.0
 1  2   2016-09-25 12:11:50  60304   0.0   0.0
 1  2   2016-09-25 12:06:20  60320   0.0   0.0
 1  2   2016-09-25 12:00:51  60304   0.0   0.0
 1  2   2016-09-25 11:55:21  60256   0.0   0.0
 1  2   2016-09-25 11:49:52  60224   0.0   0.0
 1  2   2016-09-25 11:44:22  60208   0.0   0.0
 1  2   2016-09-25 11:38:52  60256   0.0   0.0
 1  2   2016-09-25 11:33:23  60208   0.0   0.0
 1  2   2016-09-25 11:27:53  60192   0.0   0.0
 1  2   2016-09-25 11:22:24  60192   0.0   0.0
 1  2   2016-09-25 11:16:55  60192   0.0   0.0
 1  2   2016-09-25 11:11:25  60096   0.0   0.0
 1  2   2016-09-25 11:05:53  60160   0.0   0.0
 1  2   2016-09-25 11:00:24  60160   0.0   0.0
 1  2   2016-09-25 10:54:52  60176   0.0   0.0
 1  2   2016-09-25 10:49:23  60192   0.0   0.0
 1  2   2016-09-25 10:43:53  60176   0.0   0.0
 1  2   2016-09-25 10:38:23  60192   0.0   0.0
 1  2   2016-09-25 10:32:54  60176   0.0   0.0
 1  2   2016-09-25 10:27:24  60144   0.0   0.0
 1  2   2016-09-25 10:21:55  60144   0.0   0.0
 1  2   2016-09-25 10:16:25  60160   0.0   0.0
 1  2   2016-09-25 10:10:56  60128   0.0   0.0
 1  2   2016-09-25 10:05:27  60176   0.0   0.0
 1  2   2016-09-25 09:59:57  60144   0.0   0.0
 1  2   2016-09-25 09:54:27  60192   0.0   0.0
 1  2   2016-09-25 09:48:58  60160   0.0   0.0
 1  2   2016-09-25 09:43:28  60224   0.0   0.0
 1  2   2016-09-25 09:37:59  60208   0.0   0.0
 1  2   2016-09-25 09:32:29  60240   0.0   0.0
 1  2   2016-09-25 09:26:59  60208   0.0   0.0
 1  2   2016-09-25 09:21:30  60208   0.0   0.0
 1  2   2016-09-25 09:16:02  60256   0.0   0.0
 1  2   2016-09-25 09:10:33  60288   0.0   0.0
 1  2   2016-09-25 09:05:03  60224   0.0   0.0
 1  2   2016-09-25 08:59:33  60256   0.0   0.0
 1  2   2016-09-25 08:54:04  60208   0.0   0.0
 1  2   2016-09-25 08:48:35  60288   0.0   0.0
 1  2   2016-09-25 08:43:05  60288   0.0   0.0
 1  2   2016-09-25 08:37:34  60272   0.0   0.0
 1  2   2016-09-25 08:32:06  60224   0.0   0.0
 1  2   2016-09-25 08:26:36  60256   0.0   0.0
 1  2   2016-09-25 08:21:07  60304   0.0   0.0
 1  2   2016-09-25 08:15:37  60304   0.0   0.0
 1  2   2016-09-25 08:10:07  60336   0.0   0.0
 1  2   2016-09-25 08:04:38  60352   0.0   0.0
 1  2   2016-09-25 07:59:08  60432   0.0   0.0
 1  2   2016-09-25 07:53:42  60416   0.0   0.0
 1  2   2016-09-24 03:49:03  60544   0.0   0.0
 1  2   2016-09-24 03:43:43  60544   0.0   0.0
 1  2   2016-09-24 03:38:25  60432   0.0   0.0
 1  2   2016-09-24 03:33:05  60432   0.0   0.0
 1  2   2016-09-24 03:27:47  0   0.0   0.0
 1  2   2016-09-24 03:22:28  0   0.0   0.0
 1  2   2016-09-24 03:17:09  60240   0.0   0.0
 1  2   2016-09-24 03:11:51  0   0.0   0.0
 1  2   2016-09-24 03:06:31  60304   0.0   0.0
 1  2   2016-09-24 03:01:13  60576   0.0   0.0
 1  2   2016-09-24 02:55:55  60576   0.0   0.0
 1  2   2016-09-24 02:50:37  0   0.0   0.0
 1  2   2016-09-24 02:45:19  0   0.0   0.0
 1  2   2016-09-24 02:39:59  60576   0.0   0.0
 1  2   2016-09-24 02:34:40  60576   0.0   0.0
 1  2   2016-09-24 02:29:21  60576   0.0   0.0
 1  2   2016-09-24 02:24:04  0   0.0   0.0
 1  2   2016-09-24 02:18:45  60576   0.0   0.0
 1  2   2016-09-24 02:13:27  60576   0.0   0.0
 1  2   2016-09-24 02:08:09  0   0.0   0.0
 1  2   2016-09-24 02:02:49  60576   0.0   0.0
 1  2   2016-09-24 01:57:31  0   0.0   0.0
 1  2   2016-09-24 01:52:11  60496   0.0   0.0
 1  2   2016-09-24 01:46:52  60496   0.0   0.0
 1  2   2016-09-24 01:41:31  60496   0.0   0.0
 1  2   2016-09-24 01:36:13  0   0.0   0.0
 1  2   2016-09-24 01:30:56  0   0.0   0.0
 1  2   2016-09-24 01:25:38  60320   0.0   0.0
 1  2   2016-09-24 01:20:17  60320   0.0   0.0
 1  2   2016-09-24 01:14:59  0   0.0   0.0
 1  2   2016-09-24 01:09:39  60320   0.0   0.0
 1  2   2016-09-24 01:04:20  0   0.0   0.0
 1  2   2016-09-24 00:59:00  0   0.0   0.0
 1  2   2016-09-24 00:53:42  60368   0.0   0.0
 1  2   2016-09-24 00:48:23  0   0.0   0.0
 1  2   2016-09-24 00:43:05  0   0.0   0.0
 1  2   2016-09-24 00:37:48  60368   0.0   0.0
 1  2   2016-09-24 00:32:27  60368   0.0   0.0
 1  2   2016-09-24 00:27:07  60256   0.0   0.0
 1  2   2016-09-24 00:21:47  60224   0.0   0.0
 1  2   2016-09-24 00:16:26  60448   0.0   0.0
 1  2   2016-09-24 00:11:06  60656   0.0   0.0
 1  2   2016-09-24 00:05:47  60656   0.0   0.0
 1  2   2016-09-24 00:00:27  0   0.0   0.0
 1  2   2016-09-23 23:55:09  60064   0.0   0.0
 1  2   2016-09-23 23:49:48  60064   0.0   0.0
 1  2   2016-09-23 23:44:29  60064   0.0   0.0
 1  2   2016-09-23 23:39:11  60064   0.0   0.0
 1  2   2016-09-23 23:33:54  0   0.0   0.0
 1  2   2016-09-23 23:28:34  0   0.0   0.0
 1  2   2016-09-23 23:23:10  60064   0.0   0.0
 1  2   2016-09-23 23:17:50  60624   0.0   0.0
 1  2   2016-09-23 23:12:31  60624   0.0   0.0
 1  2   2016-09-23 23:07:11  60624   0.0   0.0
 1  2   2016-09-23 23:01:50  60496   0.0   0.0
 1  2   2016-09-23 22:56:30  60368   0.0   0.0
 1  2   2016-09-23 22:51:11  60240   0.0   0.0
 1  2   2016-09-23 22:45:52  60512   0.0   0.0
 1  2   2016-09-23 22:40:33  60512   0.0   0.0
 1  2   2016-09-23 22:35:13  60512   0.0   0.0
 1  2   2016-09-23 22:29:53  60544   0.0   0.0
 1  2   2016-09-23 22:24:35  60480   0.0   0.0
 1  2   2016-09-23 22:19:17  60480   0.0   0.0
 1  2   2016-09-23 22:13:58  60480   0.0   0.0
 1  2   2016-09-23 22:08:40  0   0.0   0.0
 1  2   2016-09-23 22:03:20  60480   0.0   0.0
 1  2   2016-09-23 21:58:00  60416   0.0   0.0
 1  2   2016-09-23 21:52:40  60192   0.0   0.0
 1  2   2016-09-23 21:47:22  60400   0.0   0.0
 1  2   2016-09-23 21:42:03  0   0.0   0.0
 1  2   2016-09-23 21:36:43  60352   0.0   0.0
 1  2   2016-09-23 21:31:24  60448   0.0   0.0
 1  2   2016-09-23 21:26:05  0   0.0   0.0
 1  2   2016-09-23 21:20:46  60448   0.0   0.0
 1  2   2016-09-23 21:15:27  0   0.0   0.0
 1  2   2016-09-23 21:10:08  0   0.0   0.0
 1  2   2016-09-23 21:04:47  60448   0.0   0.0
 1  2   2016-09-23 20:59:26  60448   0.0   0.0
 1  2   2016-09-23 20:54:07  60016   0.0   0.0
 1  2   2016-09-23 20:48:46  60384   0.0   0.0
 1  2   2016-09-23 20:43:28  60240   0.0   0.0
 1  2   2016-09-23 20:38:09  0   0.0   0.0
 1  2   2016-09-23 20:32:49  60304   0.0   0.0
 1  2   2016-09-23 20:27:29  60416   0.0   0.0
 1  2   2016-09-23 20:22:10  60464   0.0   0.0
 1  2   2016-09-23 20:16:53  60464   0.0   0.0
 1  2   2016-09-23 20:11:34  60464   0.0   0.0
 1  2   2016-09-23 20:06:15  0   0.0   0.0
 1  2   2016-09-23 20:00:54  60384   0.0   0.0
 1  2   2016-09-23 19:55:35  60320   0.0   0.0
 1  2   2016-09-23 19:50:17  60320   0.0   0.0
 1  2   2016-09-23 19:44:59  60320   0.0   0.0
 1  2   2016-09-23 19:39:39  60304   0.0   0.0
 1  2   2016-09-23 19:34:20  0   0.0   0.0
 1  2   2016-09-23 19:29:02  60304   0.0   0.0
 1  2   2016-09-23 19:23:45  60304   0.0   0.0
 1  2   2016-09-23 19:18:27  0   0.0   0.0
 1  2   2016-09-23 19:13:08  60304   0.0   0.0
 1  2   2016-09-23 19:07:49  60304   0.0   0.0
 1  2   2016-09-23 19:02:32  60304   0.0   0.0
 1  2   2016-09-23 18:57:13  0   0.0   0.0
 1  2   2016-09-23 18:51:54  0   0.0   0.0
 1  2   2016-09-23 18:46:36  60304   0.0   0.0
 1  2   2016-09-23 18:41:19  0   0.0   0.0
 1  2   2016-09-23 18:35:59  60336   0.0   0.0
 1  2   2016-09-23 18:30:40  0   0.0   0.0
 1  2   2016-09-23 18:25:19  60368   0.0   0.0
 1  2   2016-09-23 18:20:01  60320   0.0   0.0
 1  2   2016-09-23 18:14:42  60320   0.0   0.0
 1  2   2016-09-23 18:09:24  60320   0.0   0.0
 1  2   2016-09-23 18:04:03  60320   0.0   0.0
 1  2   2016-09-23 17:58:44  60272   0.0   0.0
 1  2   2016-09-23 17:53:21  60272   0.0   0.0
 1  2   2016-09-23 17:48:03  60288   0.0   0.0
 1  2   2016-09-23 17:42:41  60304   0.0   0.0
 1  2   2016-09-23 17:37:19  0   0.0   0.0
 1  2   2016-09-23 17:32:01  60304   0.0   0.0
 1  2   2016-09-23 17:26:43  60304   0.0   0.0
 1  2   2016-09-23 17:21:24  0   0.0   0.0
 1  2   2016-09-23 17:16:04  60304   0.0   0.0
 1  2   2016-09-23 17:10:45  0   0.0   0.0
 1  2   2016-09-23 17:05:28  60304   0.0   0.0
 1  2   2016-09-23 17:00:09  60304   0.0   0.0
 1  2   2016-09-23 16:54:34  60400   0.0   0.0
 1  2   2016-09-23 16:49:14  60400   0.0   0.0
 1  2   2016-09-23 16:43:54  60400   0.0   0.0
 1  2   2016-09-23 16:38:34  60304   0.0   0.0
 1  2   2016-09-23 16:33:15  60224   0.0   0.0
 1  2   2016-09-23 16:27:55  60224   0.0   0.0
 1  2   2016-09-23 16:22:36  0   0.0   0.0
 1  2   2016-09-23 16:17:17  60272   0.0   0.0
 1  2   2016-09-23 16:11:56  60336   0.0   0.0
 1  2   2016-09-23 16:06:35  60160   0.0   0.0
 1  2   2016-09-23 16:01:05  60288   0.0   0.0
 1  2   2016-09-23 15:55:35  60272   0.0   0.0
 1  2   2016-09-23 15:50:07  60288   0.0   0.0
 1  2   2016-09-23 15:44:36  60304   0.0   0.0
 1  2   2016-09-23 15:39:08  60272   0.0   0.0
 1  2   2016-09-23 15:33:37  60304   0.0   0.0
 1  2   2016-09-23 15:28:08  60288   0.0   0.0
 1  2   2016-09-23 15:22:37  60320   0.0   0.0
 1  2   2016-09-23 15:17:06  60272   0.0   0.0
 1  2   2016-09-23 15:11:37  60304   0.0   0.0
 1  2   2016-09-23 15:06:07  60272   0.0   0.0
 1  2   2016-09-23 15:00:38  60304   0.0   0.0
 1  2   2016-09-23 14:55:10  60304   0.0   0.0
 1  2   2016-09-23 14:49:40  60320   0.0   0.0
 1  2   2016-09-23 14:44:12  60320   0.0   0.0
 1  2   2016-09-23 14:38:43  60352   0.0   0.0
 1  2   2016-09-23 14:33:12  60320   0.0   0.0
 1  2   2016-09-23 14:27:43  60336   0.0   0.0
 1  2   2016-09-23 14:22:13  60320   0.0   0.0
 1  2   2016-09-23 14:16:45  60352   0.0   0.0
 1  2   2016-09-23 14:11:14  60336   0.0   0.0
 1  2   2016-09-23 14:05:45  60336   0.0   0.0
 1  2   2016-09-23 14:00:16  60320   0.0   0.0
 1  2   2016-09-23 13:54:47  60336   0.0   0.0
 1  2   2016-09-23 13:49:15  60352   0.0   0.0
 1  2   2016-09-23 13:43:44  60368   0.0   0.0
 1  2   2016-09-23 13:38:14  60336   0.0   0.0
 1  2   2016-09-23 13:32:40  60384   0.0   0.0
 1  2   2016-09-23 13:27:08  60368   0.0   0.0
 1  2   2016-09-23 13:21:39  60400   0.0   0.0
 1  2   2016-09-23 13:16:10  60368   0.0   0.0
 1  2   2016-09-23 13:10:40  60384   0.0   0.0
 1  2   2016-09-23 13:05:09  60352   0.0   0.0
 1  2   2016-09-23 12:59:41  60368   0.0   0.0
 1  2   2016-09-23 12:54:10  60352   0.0   0.0
 1  2   2016-09-23 12:48:35  60368   0.0   0.0
 1  2   2016-09-23 12:43:00  60336   0.0   0.0
 1  2   2016-09-23 12:37:29  60352   0.0   0.0
 1  2   2016-09-23 12:31:48  60368   0.0   0.0
 1  2   2016-09-23 12:26:15  60384   0.0   0.0
 1  2   2016-09-23 12:20:30  60416   0.0   0.0
 1  2   2016-09-23 12:14:58  60400   0.0   0.0
 1  2   2016-09-23 12:09:28  60400   0.0   0.0
 1  2   2016-09-23 12:03:58  60400   0.0   0.0
 1  2   2016-09-23 11:58:29  60384   0.0   0.0
 1  2   2016-09-23 11:52:59  60352   0.0   0.0
 1  2   2016-09-23 11:47:13  60352   0.0   0.0
 1  2   2016-09-23 11:41:42  60368   0.0   0.0
 1  2   2016-09-23 11:36:11  60336   0.0   0.0
 1  2   2016-09-23 11:30:38  60336   0.0   0.0
 1  2   2016-09-23 11:25:09  60336   0.0   0.0
 1  2   2016-09-23 11:19:38  60272   0.0   0.0
 1  2   2016-09-23 11:14:05  60288   0.0   0.0
 1  2   2016-09-23 11:08:21  60240   0.0   0.0
 1  2   2016-09-23 11:02:17  60240   0.0   0.0
 1  2   2016-09-23 10:56:35  60224   0.0   0.0
 1  2   2016-09-23 10:50:59  60240   0.0   0.0
 1  2   2016-09-23 10:45:26  60272   0.0   0.0
 1  2   2016-09-23 10:39:53  60272   0.0   0.0
 1  2   2016-09-23 10:34:22  60320   0.0   0.0
 1  2   2016-09-23 10:28:52  60272   0.0   0.0
 1  2   2016-09-23 10:22:48  60336   0.0   0.0
 1  2   2016-09-23 10:17:16  60304   0.0   0.0
 1  2   2016-09-23 10:11:44  60368   0.0   0.0
 1  2   2016-09-23 10:06:12  60352   0.0   0.0
 1  2   2016-09-23 10:00:32  60400   0.0   0.0
 1  2   2016-09-23 09:55:03  60368   0.0   0.0
 1  2   2016-09-23 09:49:34  60304   0.0   0.0
 1  2   2016-09-23 09:44:05  60336   0.0   0.0
 1  2   2016-09-23 09:38:31  60384   0.0   0.0
 1  2   2016-09-23 09:33:00  60384   0.0   0.0
 1  2   2016-09-23 09:27:31  60384   0.0   0.0
 1  2   2016-09-23 09:22:00  60352   0.0   0.0
 1  2   2016-09-23 09:16:25  60352   0.0   0.0
 1  2   2016-09-23 09:10:35  60352   0.0   0.0
 1  2   2016-09-23 09:05:03  60336   0.0   0.0
 1  2   2016-09-23 08:59:33  60400   0.0   0.0
 1  2   2016-09-23 08:54:03  60432   0.0   0.0
 1  2   2016-09-23 08:48:27  60480   0.0   0.0
 1  2   2016-09-23 08:43:00  60704   0.0   0.0
 1  2   2016-09-23 08:31:13  60496   0.0   0.0
 1  2   2016-09-23 08:25:43  60384   0.0   0.0
 1  2   2016-09-23 08:20:02  60464   0.0   0.0
 1  2   2016-09-23 08:14:31  60448   0.0   0.0
 1  2   2016-09-23 08:09:04  60704   0.0   0.0
 1  2   2016-09-23 04:02:24  60496  44.7  100.0
 1  2   2016-09-23 03:57:04  60496  44.7  100.0
 1  2   2016-09-23 03:51:34  60496  44.7  100.0
 1  2   2016-09-23 03:46:14  60496  44.7  100.0
 1  2   2016-09-23 03:40:54  60496  44.7  100.0
 1  2   2016-09-23 03:35:33  60432  44.7  100.0
 1  2   2016-09-23 03:30:13  60304  44.9  100.0
 1  2   2016-09-23 03:24:53  60336  44.8  100.0
 1  2   2016-09-23 03:19:33  0   0.0   0.0
 1  2   2016-09-23 03:14:13  60336  44.8  100.0
 1  2   2016-09-23 03:08:55  0   0.0   0.0
 1  2   2016-09-23 03:03:30  60432  44.8  100.0
 1  2   2016-09-23 02:58:10  60256  44.9  100.0
 1  2   2016-09-23 02:52:51  60416  44.9  100.0
 1  2   2016-09-23 02:47:32  60416  44.9  100.0
 1  2   2016-09-23 02:42:13  60416  44.9  100.0
 1  2   2016-09-23 02:36:44  60480  44.8  100.0
 1  2   2016-09-23 02:31:24  60480  44.4  100.0
 1  2   2016-09-23 02:26:05  60416  43.9  100.0
 1  2   2016-09-23 02:20:46  0   0.0   0.0
 1  2   2016-09-23 02:15:25  60400  43.9  100.0
 1  2   2016-09-23 02:10:05  0   0.0   0.0
 1  2   2016-09-23 02:04:47  60400  44.0  100.0
 1  2   2016-09-23 01:59:26  60448  44.0  100.0
 1  2   2016-09-23 01:54:07  60496  44.0  100.0
 1  2   2016-09-23 01:48:48  0   0.0   0.0
 1  2   2016-09-23 01:43:30  60464  44.1  100.0
 1  2   2016-09-23 01:38:12  0   0.0   0.0
 1  2   2016-09-23 01:32:50  60448  44.1  100.0
 1  2   2016-09-23 01:27:31  60688  43.8  100.0
 1  2   2016-09-23 01:22:12  60688  43.8  100.0
 1  2   2016-09-23 01:16:51  60688  43.8  100.0
 1  2   2016-09-23 01:11:32  0   0.0   0.0
 1  2   2016-09-23 01:06:09  0   0.0   0.0
 1  2   2016-09-23 01:00:51  60688  43.8  100.0
 1  2   2016-09-23 00:55:33  60688  43.8  100.0
 1  2   2016-09-23 00:50:14  60688  43.8  100.0
 1  2   2016-09-23 00:44:55  0   0.0   0.0
 1  2   2016-09-23 00:39:35  60688  43.8  100.0
 1  2   2016-09-23 00:34:14  0   0.0   0.0
 1  2   2016-09-23 00:28:55  60688  43.8  100.0
 1  2   2016-09-23 00:23:11  60416  44.1  100.0
 1  2   2016-09-23 00:17:53  60416  44.1  100.0
 1  2   2016-09-23 00:12:34  60416  44.1  100.0
 1  2   2016-09-23 00:07:11  60416  44.1  100.0
 1  2   2016-09-23 00:01:52  59856  44.1  100.0
 1  2   2016-09-22 23:38:43  60416  44.8  100.0
 1  2   2016-09-22 23:33:25  60416  44.8  100.0
 1  2   2016-09-22 23:28:06  60416  44.8  100.0
 1  2   2016-09-22 23:22:48  0   0.0   0.0
 1  2   2016-09-22 23:17:26  60432  44.8  100.0
 1  2   2016-09-22 23:12:05  60640  44.9  100.0
 1  2   2016-09-22 23:06:44  60208  45.0  100.0
 1  2   2016-09-22 23:01:24  60208  45.0  100.0
 1  2   2016-09-22 22:56:04  0   0.0   0.0
 1  2   2016-09-22 22:50:41  60464  45.6  100.0
 1  2   2016-09-22 22:45:22  0   0.0   0.0
 1  2   2016-09-22 22:39:54  60464  45.6  100.0
 1  2   2016-09-22 22:34:36  60464  45.6  100.0
 1  2   2016-09-22 22:29:17  0   0.0   0.0
 1  2   2016-09-22 22:23:54  60464  45.6  100.0
 1  2   2016-09-22 22:18:31  60416  45.7  100.0
 1  2   2016-09-22 22:13:10  0   0.0   0.0
 1  2   2016-09-22 22:07:50  60352  45.9  100.0
 1  2   2016-09-22 22:02:20  60592  46.4  100.0
 1  2   2016-09-22 21:56:53  60592  46.4  100.0
 1  2   2016-09-22 21:51:33  60592  46.4  100.0
 1  2   2016-09-22 21:46:14  60592  46.4  100.0
 1  2   2016-09-22 21:40:44  60464  46.5  100.0
 1  2   2016-09-22 21:35:08  60464  46.7  100.0
 1  2   2016-09-22 21:29:41  60192  48.1  100.0
 1  2   2016-09-22 21:24:09  60192  48.1  100.0
 1  2   2016-09-22 21:18:49  0   0.0   0.0
 1  2   2016-09-22 21:13:30  60192  48.1  100.0
 1  2   2016-09-22 21:08:11  60192  48.1  100.0
 1  2   2016-09-22 21:02:52  0   0.0   0.0
 1  2   2016-09-22 20:57:26  60432  48.1  100.0
 1  2   2016-09-22 20:51:46  0   0.0   0.0
 1  2   2016-09-22 20:46:28  60672  49.0  100.0
 1  2   2016-09-22 20:41:07  60576  49.0  100.0
 1  2   2016-09-22 20:35:46  60480  49.4  100.0
 1  2   2016-09-22 20:30:27  0   0.0   0.0
 1  2   2016-09-22 20:25:09  60480  49.4  100.0
 1  2   2016-09-22 20:19:50  60480  49.4  100.0
 1  2   2016-09-22 20:14:31  0   0.0   0.0
 1  2   2016-09-22 20:09:10  60480  50.0  100.0
 1  2   2016-09-22 20:03:51  60432  50.4  100.0
 1  2   2016-09-22 19:58:30  60480  50.8  100.0
 1  2   2016-09-22 19:53:12  0   0.0   0.0
 1  2   2016-09-22 19:47:51  60240  51.9  100.0
 1  2   2016-09-22 19:42:19  60416  54.0  100.0
 1  2   2016-09-22 19:37:00  60416  54.0  100.0
 1  2   2016-09-22 19:31:27  60416  54.0  100.0
 1  2   2016-09-22 19:26:07  60416  54.0  100.0
 1  2   2016-09-22 19:20:47  60464  54.0  100.0
 1  2   2016-09-22 19:15:14  60352  54.4  100.0
 1  2   2016-09-22 19:09:26  60288  55.0  100.0
 1  2   2016-09-22 19:04:03  0   0.0   0.0
 1  2   2016-09-22 18:58:45  60288  55.0  100.0
 1  2   2016-09-22 18:53:24  60240  55.0  100.0
 1  2   2016-09-22 18:48:05  0   0.0   0.0
 1  2   2016-09-22 18:42:46  60192  55.8  100.0
 1  2   2016-09-22 18:37:28  0   0.0   0.0
 1  2   2016-09-22 18:32:09  60192  55.8  100.0
 1  2   2016-09-22 18:26:44  0   0.0   0.0
 1  2   2016-09-22 18:21:26  0   0.0   0.0
 1  2   2016-09-22 18:16:04  0   0.0   0.0
 1  2   2016-09-22 18:10:40  60192  55.8  100.0
 1  2   2016-09-22 18:05:20  60352  55.8  100.0
 1  2   2016-09-22 17:59:56  60320  55.9  100.0
 1  2   2016-09-22 17:54:36  60336  55.9  100.0
 1  2   2016-09-22 17:49:16  60384  55.9  100.0
 1  2   2016-09-22 17:43:58  60480  56.1  100.0
 1  2   2016-09-22 17:38:39  60480  56.1  100.0
 1  2   2016-09-22 17:33:21  0   0.0   0.0
 1  2   2016-09-22 17:28:03  60480  56.1  100.0
 1  2   2016-09-22 17:22:44  0   0.0   0.0
 1  2   2016-09-22 17:17:25  0   0.0   0.0
 1  2   2016-09-22 17:12:05  60480  56.1  100.0
 1  2   2016-09-22 17:06:44  0   0.0   0.0
 1  2   2016-09-22 17:01:24  60480  56.1  100.0
 1  2   2016-09-22 16:56:06  60288  56.3  100.0
 1  2   2016-09-22 16:50:38  60288  56.3  100.0
 1  2   2016-09-22 16:45:19  60352  56.4  100.0
 1  2   2016-09-22 16:39:56  60400  56.4  100.0
 1  2   2016-09-22 16:34:36  60448  56.4  100.0
 1  2   2016-09-22 16:28:38  60448  56.4  100.0
 1  2   2016-09-22 16:23:09  60464  56.4  100.0
 1  2   2016-09-22 16:17:41  60448  56.5  100.0
 1  2   2016-09-22 16:12:09  60384  56.7  100.0
 1  2   2016-09-22 16:06:39  60368  56.7  100.0
 1  2   2016-09-22 16:01:04  60336  56.6  100.0
 1  2   2016-09-22 15:55:34  60304  56.6  100.0
 1  2   2016-09-22 15:49:33  60352  56.5  100.0
 1  2   2016-09-22 15:43:54  60304  56.4  100.0
 1  2   2016-09-22 15:38:22  60336  56.3  100.0
 1  2   2016-09-22 15:32:52  60352  56.3  100.0
 1  2   2016-09-22 15:27:22  60304  56.4  100.0
 1  2   2016-09-22 15:21:53  60320   0.0   0.0
 1  2   2016-09-22 15:15:54  60336   0.0   0.0
 1  2   2016-09-22 15:10:21  60320   0.0   0.0
 1  2   2016-09-22 15:04:49  60320   0.0   0.0
 1  2   2016-09-22 14:59:19  60336   0.0   0.0
 1  2   2016-09-22 14:53:39  60368   0.0   0.0
 1  2   2016-09-22 14:47:47  60320   0.0   0.0
 1  2   2016-09-22 14:42:16  60368   0.0   0.0
 1  2   2016-09-22 14:36:45  60336   0.0   0.0
 1  2   2016-09-22 14:31:15  60352   0.0   0.0
 1  2   2016-09-22 14:25:44  60288   0.0   0.0
 1  2   2016-09-22 14:20:14  60336   0.0   0.0
 1  2   2016-09-22 14:14:43  60336   0.0   0.0
 1  2   2016-09-22 14:09:01  60384   0.0   0.0
 1  2   2016-09-22 14:03:22  60368   0.0   0.0
 1  2   2016-09-22 13:57:51  60336   0.0   0.0
 1  2   2016-09-22 13:52:20  60352   0.0   0.0
 1  2   2016-09-22 13:46:50  60240   0.0   0.0
 1  2   2016-09-22 13:41:21  60272   0.0   0.0
 1  2   2016-09-22 13:35:49  60288   0.0   0.0
 1  2   2016-09-22 13:30:16  60320   0.0   0.0
 1  2   2016-09-22 13:24:41  60320   0.0   0.0
 1  2   2016-09-22 13:19:10  60320   0.0   0.0
 1  2   2016-09-22 13:13:40  60304   0.0   0.0
 1  2   2016-09-22 13:08:10  60288   0.0   0.0
 1  2   2016-09-22 13:02:34  60304   0.0   0.0
 1  2   2016-09-22 12:57:04  60336   0.0   0.0
 1  2   2016-09-22 12:51:36  60336   0.0   0.0
 1  2   2016-09-22 12:46:05  60336   0.0   0.0
 1  2   2016-09-22 12:40:36  60336   0.0   0.0
 1  2   2016-09-22 12:35:06  60368   0.0   0.0
 1  2   2016-09-22 12:29:35  60368   0.0   0.0
 1  2   2016-09-22 12:24:06  60416   0.0   0.0
 1  2   2016-09-22 12:18:38  60448   0.0   0.0
 1  2   2016-09-22 12:13:06  60464   0.0   0.0
 1  2   2016-09-22 12:07:37  60448   0.0   0.0
 1  2   2016-09-22 12:02:06  60432   0.0   0.0
 1  2   2016-09-22 11:56:36  60384   0.0   0.0
 1  2   2016-09-22 11:51:07  60384   0.0   0.0
 1  2   2016-09-22 11:45:38  60368   0.0   0.0
 1  2   2016-09-22 11:40:08  60336   0.0   0.0
 1  2   2016-09-22 11:34:39  60416   0.0   0.0
 1  2   2016-09-22 11:29:09  60400   0.0   0.0
 1  2   2016-09-22 11:23:41  60416   0.0   0.0
 1  2   2016-09-22 11:18:10  60432   0.0   0.0
 1  2   2016-09-22 11:12:40  60448   0.0   0.0
 1  2   2016-09-22 11:07:13  60464   0.0   0.0
 1  2   2016-09-22 11:01:40  60448   0.0   0.0
 1  2   2016-09-22 10:56:10  60400   0.0   0.0
 1  2   2016-09-22 10:50:41  60496   0.0   0.0
 1  2   2016-09-22 10:45:09  60512   0.0   0.0
 1  2   2016-09-22 10:39:30  60432   0.0   0.0
 1  2   2016-09-22 10:34:01  60464   0.0   0.0
 1  2   2016-09-22 10:28:31  60528   0.0   0.0
 1  2   2016-09-22 10:23:01  60528   0.0   0.0
 1  2   2016-09-22 10:17:32  60512   0.0   0.0
 1  2   2016-09-22 10:12:02  60560   0.0   0.0
 1  2   2016-09-22 10:06:33  60560   0.0   0.0
 1  2   2016-09-22 10:01:03  60528   0.0   0.0
 1  2   2016-09-22 09:55:34  60576   0.0   0.0
 1  2   2016-09-22 09:50:04  60560   0.0   0.0
 1  2   2016-09-22 09:44:34  60528   0.0   0.0
 1  2   2016-09-22 09:39:05  60560   0.0   0.0
 1  2   2016-09-22 09:33:35  60496   0.0   0.0
 1  2   2016-09-22 09:28:06  60560   0.0   0.0
 1  2   2016-09-22 09:22:36  60512   0.0   0.0
 1  2   2016-09-22 09:17:05  60608   0.0   0.0
 1  2   2016-09-22 09:11:35  60560   0.0   0.0
 1  2   2016-09-22 09:06:05  60592   0.0   0.0
 1  2   2016-09-22 09:00:26  60608   0.0   0.0
 1  2   2016-09-22 08:54:54  60640   0.0   0.0
 1  2   2016-09-22 08:49:23  60624   0.0   0.0
 1  2   2016-09-22 08:43:54  60592   0.0   0.0
 1  2   2016-09-22 08:38:23  60672   0.0   0.0
 1  2   2016-09-22 08:32:51  60704   0.0   0.0
 1  2   2016-09-22 08:27:23  60704   0.0   0.0
 1  2   2016-09-20 13:02:17  60496   0.0   0.0
 1  2   2016-09-20 12:56:45  60480   0.0   0.0
 1  2   2016-09-20 12:51:16  60480   0.0   0.0
 1  2   2016-09-20 12:45:31  60448   0.0   0.0
 1  2   2016-09-20 12:40:00  60384   0.0   0.0
 1  2   2016-09-20 12:33:27  60416   0.0   0.0
 1  2   2016-09-20 12:27:33  60416   0.0   0.0
 1  2   2016-09-20 12:21:59  60400   0.0   0.0
 1  2   2016-09-20 12:16:17  60416   0.0   0.0
 1  2   2016-09-20 12:10:32  60400   0.0   0.0
 1  2   2016-09-20 12:05:00  60416   0.0   0.0
 1  2   2016-09-20 11:59:31  60432   0.0   0.0
 1  2   2016-09-20 11:54:01  60464   0.0   0.0
 1  2   2016-09-20 11:48:30  60416   0.0   0.0
 1  2   2016-09-20 11:42:57  60512   0.0   0.0
 1  2   2016-09-20 11:37:27  60512   0.0   0.0
 1  2   2016-09-20 11:31:58  60464   0.0   0.0
 1  2   2016-09-20 11:26:27  60512   0.0   0.0
 1  2   2016-09-20 11:20:34  60560   0.0   0.0
 1  2   2016-09-20 11:14:30  60464   0.0   0.0
 1  2   2016-09-20 11:08:34  60512   0.0   0.0
 1  2   2016-09-20 11:01:09  60528   0.0   0.0
 1  2   2016-09-20 10:55:40  60576   0.0   0.0
 1  2   2016-09-20 10:50:08  60592   0.0   0.0
 1  2   2016-09-20 10:44:11  60576   0.0   0.0
 1  2   2016-09-20 10:38:41  60640   0.0   0.0
 1  2   2016-09-20 10:33:11  60608   0.0   0.0
 1  2   2016-09-20 10:27:41  60640   0.0   0.0
 1  2   2016-09-20 10:22:11  60576   0.0   0.0
 1  2   2016-09-20 10:16:41  60624   0.0   0.0
 1  2   2016-09-20 10:11:11  60592   0.0   0.0
 1  2   2016-09-20 10:05:42  60576   0.0   0.0
 1  2   2016-09-20 10:00:11  60640   0.0   0.0
 1  2   2016-09-20 09:54:42  60592   0.0   0.0
 1  2   2016-09-20 09:49:04  60656   0.0   0.0
 1  2   2016-09-20 09:43:32  60656   0.0   0.0
 1  2   2016-09-20 09:38:02  60624   0.0   0.0
 1  2   2016-09-20 09:32:30  60608   0.0   0.0
 1  2   2016-09-20 09:26:57  60608   0.0   0.0
 1  2   2016-09-20 09:21:25  60624   0.0   0.0
 1  2   2016-09-20 09:15:56  60560   0.0   0.0
 1  2   2016-09-20 09:10:26  60704   0.0   0.0
 1  2   2016-09-20 09:04:55  60624   0.0   0.0
 1  2   2016-09-20 08:59:26  60704   0.0   0.0
 1  2   2016-09-20 08:53:57  60704   0.0   0.0
 1  2   2016-09-20 08:48:26  60752   0.0   0.0
 1  2   2016-09-20 08:42:47  60768   0.0   0.0
 1  2   2016-09-20 08:37:01  61008   0.0   0.0
 1  2   2016-09-18 20:12:28  60880   0.0   0.0
 1  2   2016-09-18 19:58:16  60752   0.0   0.0
 1  2   2016-09-18 19:52:48  60560   0.0   0.0
 1  2   2016-09-18 19:45:24  60672   0.0   0.0
 1  2   2016-09-18 19:39:34  60784   0.0   0.0
 1  2   2016-09-18 19:34:03  60784   0.0   0.0
 1  2   2016-09-18 19:28:29  60720   0.0   0.0
 1  2   2016-09-18 19:23:03  60592   0.0   0.0
 1  2   2016-09-18 18:59:19  60576   0.0   0.0
 1  2   2016-09-18 18:53:54  61120   0.0   0.0
 1  2   2016-09-18 18:48:33  0   0.0   0.0
 1  2   2016-09-18 18:43:06  60880   0.0   0.0
 1  2   2016-09-18 18:37:13  60784   0.0   0.0
 1  2   2016-09-18 18:31:45  0   0.0   0.0
 1  2   2016-09-18 18:26:20  60688   0.0   0.0
 1  2   2016-09-18 18:20:55  60688   0.0   0.0
 1  2   2016-09-18 18:15:24  60688   0.0   0.0
 1  2   2016-09-18 18:09:53  0   0.0   0.0
 1  2   2016-09-18 18:04:09  60688   0.0   0.0
 1  2   2016-09-18 17:58:34  0   0.0   0.0
 1  2   2016-09-18 17:53:04  60688   0.0   0.0
 1  2   2016-09-18 17:47:29  60720   0.0   0.0
 1  2   2016-09-18 17:42:09  0   0.0   0.0
 1  2   2016-09-18 17:36:47  60672   0.0   0.0
 1  2   2016-09-18 17:31:26  60592   0.0   0.0
 1  2   2016-09-18 17:26:06  60688   0.0   0.0
 1  2   2016-09-18 17:20:46  60672   0.0   0.0
 1  2   2016-09-18 17:15:28  60672   0.0   0.0
 1  2   2016-09-18 17:10:07  0   0.0   0.0
 1  2   2016-09-18 16:55:58  60560   0.0   0.0
 1  2   2016-09-18 16:50:26  60544   0.0   0.0
 1  2   2016-09-18 16:44:56  60544   0.0   0.0
 1  2   2016-09-18 16:39:27  60528   0.0   0.0
 1  2   2016-09-18 16:33:58  60544   0.0   0.0
 1  2   2016-09-18 16:28:27  60576   0.0   0.0
 1  2   2016-09-18 16:22:58  60576   0.0   0.0
 1  2   2016-09-18 16:17:28  60560   0.0   0.0
 1  2   2016-09-18 16:11:59  60560   0.0   0.0
 1  2   2016-09-18 16:06:29  60592   0.0   0.0
 1  2   2016-09-18 16:00:57  60544   0.0   0.0
 1  2   2016-09-18 15:46:49  60544   0.0   0.0
 1  2   2016-09-18 15:41:13  60576   0.0   0.0
 1  2   2016-09-18 15:35:30  60544   0.0   0.0
 1  2   2016-09-18 14:28:40  60608   0.0   0.0
 1  2   2016-09-18 14:22:26  60592   0.0   0.0
 1  2   2016-09-18 14:16:40  60512   0.0   0.0
 1  2   2016-09-18 14:10:36  60528   0.0   0.0
 1  2   2016-09-18 14:04:34  60512   0.0   0.0
 1  2   2016-09-18 13:58:11  60512   0.0   0.0
 1  2   2016-09-18 13:51:27  60512   0.0   0.0
 1  2   2016-09-18 13:45:47  60560   0.0   0.0
 1  2   2016-09-18 13:40:17  60512   0.0   0.0
 1  2   2016-09-18 13:34:42  60528   0.0   0.0
 1  2   2016-09-18 13:29:11  60528   0.0   0.0
 1  2   2016-09-18 13:23:32  60528   0.0   0.0
 1  2   2016-09-18 13:17:19  60512   0.0   0.0
 1  2   2016-09-18 13:11:33  60512   0.0   0.0
 1  2   2016-09-18 13:06:02  60560   0.0   0.0
 1  2   2016-09-18 13:00:28  60544   0.0   0.0
 1  2   2016-09-18 12:54:53  60544   0.0   0.0
 1  2   2016-09-18 12:49:12  60544   0.0   0.0
 1  2   2016-09-18 12:42:27  60512   0.0   0.0
 1  2   2016-09-18 12:27:33  60544   0.0   0.0
 1  2   2016-09-18 12:15:30  60512   0.0   0.0
 1  2   2016-09-18 10:38:51  60720   0.0   0.0
 1  2   2016-09-18 10:23:15  60704   0.0   0.0
 1  2   2016-09-18 09:37:20  60800   0.0   0.0
 1  2   2016-09-18 03:30:44  0   0.0   0.0
 1  2   2016-09-18 03:25:26  60816   0.0   0.0
 1  2   2016-09-18 03:20:07  0   0.0   0.0
 1  2   2016-09-18 03:14:47  60704   0.0   0.0
 1  2   2016-09-18 03:09:26  60560   0.0   0.0
 1  2   2016-09-18 03:04:04  60704   0.0   0.0
 1  2   2016-09-18 02:58:45  60672   0.0   0.0
 1  2   2016-09-18 02:53:27  60672   0.0   0.0
 1  2   2016-09-18 02:48:10  60672   0.0   0.0
 1  2   2016-09-18 02:42:52  0   0.0   0.0
 1  2   2016-09-18 02:37:32  60672   0.0   0.0
 1  2   2016-09-18 02:32:12  60672   0.0   0.0
 1  2   2016-09-18 02:26:52  60672   0.0   0.0
 1  2   2016-09-18 02:21:33  60912   0.0   0.0
 1  2   2016-09-18 02:16:13  60640   0.0   0.0
 1  2   2016-09-18 02:10:55  0   0.0   0.0
 1  2   2016-09-18 02:05:35  0   0.0   0.0
 1  2   2016-09-18 02:00:17  0   0.0   0.0
 1  2   2016-09-18 01:54:58  60704   0.0   0.0
 1  2   2016-09-18 01:49:40  60592   0.0   0.0
 1  2   2016-09-18 01:44:21  0   0.0   0.0
 1  2   2016-09-18 01:39:02  60592   0.0   0.0
 1  2   2016-09-18 01:33:40  60624   0.0   0.0
 1  2   2016-09-18 01:28:22  60800   0.0   0.0
 1  2   2016-09-18 01:23:05  0   0.0   0.0
 1  2   2016-09-18 01:17:44  60800   0.0   0.0
 1  2   2016-09-18 01:12:25  60640   0.0   0.0
 1  2   2016-09-18 01:07:07  0   0.0   0.0
 1  2   2016-09-18 01:01:50  0   0.0   0.0
 1  2   2016-09-18 00:56:31  60640   0.0   0.0
 1  2   2016-09-18 00:51:12  0   0.0   0.0
 1  2   2016-09-18 00:45:54  0   0.0   0.0
 1  2   2016-09-18 00:40:34  60640   0.0   0.0
 1  2   2016-09-18 00:35:15  60784   0.0   0.0
 1  2   2016-09-18 00:29:56  0   0.0   0.0
 1  2   2016-09-18 00:24:36  60784   0.0   0.0
 1  2   2016-09-18 00:19:18  0   0.0   0.0
 1  2   2016-09-18 00:13:59  60784   0.0   0.0
 1  2   2016-09-18 00:08:42  0   0.0   0.0
 1  2   2016-09-18 00:03:18  60720   0.0   0.0
 1  2   2016-09-17 23:57:57  60912   0.0   0.0
 1  2   2016-09-17 23:52:37  61008   0.0   0.0
 1  2   2016-09-17 23:47:18  60800   0.0   0.0
 1  2   2016-09-17 23:42:00  0   0.0   0.0
 1  2   2016-09-17 23:36:42  60800   0.0   0.0
 1  2   2016-09-17 23:31:22  60800   0.0   0.0
 1  2   2016-09-17 23:26:02  60800   0.0   0.0
 1  2   2016-09-17 23:20:43  60800   0.0   0.0
 1  2   2016-09-17 23:15:25  60800   0.0   0.0
 1  2   2016-09-17 23:10:07  0   0.0   0.0
 1  2   2016-09-17 23:04:49  0   0.0   0.0
 1  2   2016-09-17 22:59:31  60800   0.0   0.0
 1  2   2016-09-17 22:54:12  60800   0.0   0.0
 1  2   2016-09-17 22:48:54  0   0.0   0.0
 1  2   2016-09-17 22:43:36  0   0.0   0.0
 1  2   2016-09-17 22:38:18  60800   0.0   0.0
 1  2   2016-09-17 22:32:57  60800   0.0   0.0
 1  2   2016-09-17 22:27:35  60656   0.0   0.0
 1  2   2016-09-17 22:22:16  60896   0.0   0.0
 1  2   2016-09-17 22:16:57  60896   0.0   0.0
 1  2   2016-09-17 22:11:36  60896   0.0   0.0
 1  2   2016-09-17 22:06:19  60896   0.0   0.0
 1  2   2016-09-17 22:00:59  60896   0.0   0.0
 1  2   2016-09-17 21:55:39  60944   0.0   0.0
 1  2   2016-09-17 21:50:18  60528   0.0   0.0
 1  2   2016-09-17 21:45:00  61056   0.0   0.0
 1  2   2016-09-17 21:39:40  60720   0.0   0.0
 1  2   2016-09-17 21:34:22  0   0.0   0.0
 1  2   2016-09-17 21:29:02  60384   0.0   0.0
 1  2   2016-09-17 21:23:32  60528   0.0   0.0
 1  2   2016-09-17 21:18:12  60672   0.0   0.0
 1  2   2016-09-17 21:12:52  60672   0.0   0.0
 1  2   2016-09-17 21:07:32  60656   0.0   0.0
 1  2   2016-09-17 21:02:07  60656   0.0   0.0
 1  2   2016-09-17 20:56:48  60464   0.0   0.0
 1  2   2016-09-17 20:51:28  0   0.0   0.0
 1  2   2016-09-17 20:46:08  0   0.0   0.0
 1  2   2016-09-17 20:40:47  60672   0.0   0.0
 1  2   2016-09-17 20:35:27  60896   0.0   0.0
 1  2   2016-09-17 20:30:07  60896   0.0   0.0
 1  2   2016-09-17 20:24:47  60544   0.0   0.0
 1  2   2016-09-17 20:19:26  60896   0.0   0.0
 1  2   2016-09-17 20:14:07  60768   0.0   0.0
 1  2   2016-09-17 20:08:46  60768   0.0   0.0
 1  2   2016-09-17 20:03:27  0   0.0   0.0
 1  2   2016-09-17 19:58:07  60640   0.0   0.0
 1  2   2016-09-17 19:52:46  60560   0.0   0.0
 1  2   2016-09-17 19:47:27  60608   0.0   0.0
 1  2   2016-09-17 19:42:07  0   0.0   0.0
 1  2   2016-09-17 19:36:48  60608   0.0   0.0
 1  2   2016-09-17 19:31:28  0   0.0   0.0
 1  2   2016-09-17 19:26:09  60608   0.0   0.0
 1  2   2016-09-17 19:20:49  60608   0.0   0.0
 1  2   2016-09-17 19:15:28  60608   0.0   0.0
 1  2   2016-09-17 19:10:09  60608   0.0   0.0
 1  2   2016-09-17 19:04:48  60608   0.0   0.0
 1  2   2016-09-17 18:59:29  60736   0.0   0.0
 1  2   2016-09-17 18:54:09  60736   0.0   0.0
 1  2   2016-09-17 18:48:49  60640   0.0   0.0
 1  2   2016-09-17 18:43:29  0   0.0   0.0
 1  2   2016-09-17 18:38:09  0   0.0   0.0
 1  2   2016-09-17 18:32:50  60640   0.0   0.0
 1  2   2016-09-17 18:27:30  60560   0.0   0.0
 1  2   2016-09-17 18:22:09  60352   0.0   0.0
 1  2   2016-09-17 18:16:50  0   0.0   0.0
 1  2   2016-09-17 18:11:32  60352   0.0   0.0
 1  2   2016-09-17 18:06:12  60352   0.0   0.0
 1  2   2016-09-17 18:00:53  60352   0.0   0.0
 1  2   2016-09-17 17:55:32  60384   0.0   0.0
 1  2   2016-09-17 17:50:04  60496   0.0   0.0
 1  2   2016-09-17 17:44:33  60544   0.0   0.0
 1  2   2016-09-17 17:39:03  60592   0.0   0.0
 1  2   2016-09-17 17:33:34  60544   0.0   0.0
 1  2   2016-09-17 17:28:03  60576   0.0   0.0
 1  2   2016-09-17 17:22:33  60608   0.0   0.0
 1  2   2016-09-17 17:17:05  60576   0.0   0.0
 1  2   2016-09-17 17:11:34  60576   0.0   0.0
 1  2   2016-09-17 17:06:05  60592   0.0   0.0
 1  2   2016-09-17 17:00:34  60560   0.0   0.0
 1  2   2016-09-17 16:55:04  60560   0.0   0.0
 1  2   2016-09-17 16:49:34  60448   0.0   0.0
 1  2   2016-09-17 16:44:06  60448   0.0   0.0
 1  2   2016-09-17 16:38:35  60496   0.0   0.0
 1  2   2016-09-17 16:32:51  60496   0.0   0.0
 1  2   2016-09-17 16:27:10  60464   0.0   0.0
 1  2   2016-09-17 15:20:50  60496   0.0   0.0
 1  2   2016-09-17 15:15:06  60512   0.0   0.0
 1  2   2016-09-17 14:59:49  60512   0.0   0.0
 1  2   2016-09-17 14:53:47  60512   0.0   0.0
 1  2   2016-09-17 14:46:37  60464   0.0   0.0
 1  2   2016-09-17 14:31:54  60496   0.0   0.0
 1  2   2016-09-17 14:25:54  60496   0.0   0.0
 1  2   2016-09-17 14:19:22  60480   0.0   0.0
 1  2   2016-09-17 14:04:51  60512   0.0   0.0
 1  2   2016-09-17 11:57:53  60608   0.0   0.0
 1  2   2016-09-17 11:34:51  60576   0.0   0.0
 1  2   2016-09-17 11:28:52  60656   0.0   0.0
 1  2   2016-09-17 11:14:49  60656   0.0   0.0
 1  2   2016-09-17 10:59:07  60656   0.0   0.0
 1  2   2016-09-17 10:53:26  60640   0.0   0.0
 1  2   2016-09-17 10:47:41  60672   0.0   0.0
 1  2   2016-09-17 10:42:01  60672   0.0   0.0
 1  2   2016-09-17 10:36:29  60704   0.0   0.0
 1  2   2016-09-17 10:30:09  60640   0.0   0.0
 1  2   2016-09-17 10:24:40  60656   0.0   0.0
 1  2   2016-09-17 10:19:07  60624   0.0   0.0
 1  2   2016-09-17 10:11:54  60656   0.0   0.0
 1  2   2016-09-17 10:06:01  60704   0.0   0.0
 1  2   2016-09-17 10:00:29  60752   0.0   0.0
 1  2   2016-09-17 09:54:46  60992   0.0   0.0
 1  2   2016-09-17 09:42:45  60736   0.0   0.0
 1  2   2016-09-17 09:37:14  60752   0.0   0.0
 1  2   2016-09-17 09:31:43  60768   0.0   0.0
 1  2   2016-09-17 09:26:16  60800   0.0   0.0
 1  2   2016-09-17 09:20:44  60992   0.0   0.0
 1  2   2016-09-17 09:15:50  60768   0.0   0.0
 1  2   2016-09-17 09:09:49  60768   0.0   0.0
 1  2   2016-09-17 09:04:19  60720   0.0   0.0
 1  2   2016-09-17 08:58:09  60784   0.0   0.0
 1  2   2016-09-17 08:52:32  60784   0.0   0.0
 1  2   2016-09-17 08:47:03  60960   0.0   0.0
 1  2   2016-09-17 01:35:16  60496   0.0   0.0
 1  2   2016-09-17 01:28:54  60480   0.0   0.0
 1  2   2016-09-17 01:23:15  60656   0.0   0.0
 1  2   2016-09-17 01:17:47  60656   0.0   0.0
 1  2   2016-09-17 01:03:18  60640   0.0   0.0
 1  2   2016-09-17 00:47:43  60720   0.0   0.0
 1  2   2016-09-17 00:35:17  0   0.0   0.0
 1  2   2016-09-17 00:19:12  0   0.0   0.0
 1  2   2016-09-17 00:13:42  60720   0.0   0.0
 1  2   2016-09-16 23:59:21  60704   0.0   0.0
 1  2   2016-09-16 23:28:45  60688   0.0   0.0
 1  2   2016-09-16 23:16:57  0   0.0   0.0
 1  2   2016-09-16 22:10:45  60272   0.0   0.0
 1  2   2016-09-16 22:05:19  0   0.0   0.0
 1  2   2016-09-16 22:00:00  60672   0.0   0.0
 1  2   2016-09-16 20:49:12  60544   0.0   0.0
 1  2   2016-09-16 20:42:28  60640   0.0   0.0
 1  2   2016-09-16 20:36:55  60448   0.0   0.0
 1  2   2016-09-16 20:31:33  60400   0.0   0.0
 1  2   2016-09-16 20:26:14  0   0.0   0.0
 1  2   2016-09-16 20:20:44  0   0.0   0.0
 1  2   2016-09-16 20:14:20  60400   0.0   0.0
 1  2   2016-09-16 19:47:53  60496   0.0   0.0
 1  2   2016-09-16 19:11:06  60416   0.0   0.0
 1  2   2016-09-16 19:05:22  60416   0.0   0.0
 1  2   2016-09-16 18:58:12  60336   0.0   0.0
 1  2   2016-09-16 18:52:40  0   0.0   0.0
 1  2   2016-09-16 18:47:00  60528   0.0   0.0
 1  2   2016-09-16 17:40:36  60032   0.0   0.0
 1  2   2016-09-16 17:35:09  60080   0.0   0.0
 1  2   2016-09-16 17:29:17  60128   0.0   0.0
 1  2   2016-09-16 17:23:48  60080   0.0   0.0
 1  2   2016-09-16 17:18:03  60016   0.0   0.0
 1  2   2016-09-16 17:12:42  60016   0.0   0.0
 1  2   2016-09-16 17:07:12  60016   0.0   0.0
 1  2   2016-09-16 17:01:32  0   0.0   0.0
 1  2   2016-09-16 16:56:13  60016   0.0   0.0
 1  2   2016-09-16 16:50:51  59984   0.0   0.0
 1  2   2016-09-16 16:45:32  59952   0.0   0.0
 1  2   2016-09-16 16:40:15  0   0.0   0.0
 1  2   2016-09-16 16:34:54  59984   0.0   0.0
 1  2   2016-09-16 16:29:24  60016   0.0   0.0
 1  2   2016-09-16 15:21:36  60032  52.8  100.0
 1  2   2016-09-16 15:14:54  59952  52.7  100.0
 1  2   2016-09-16 15:09:15  60064  52.6  100.0
 1  2   2016-09-16 09:42:34  60448  50.3  100.0
 1  2   2016-09-16 08:27:57  60656  46.0  100.0
 1  2   2016-09-16 04:06:03  59760  50.1  100.0
 1  2   2016-09-16 04:00:27  59632  50.4  100.0
 1  2   2016-09-16 03:55:00  59520  50.6  100.0
 1  2   2016-09-16 03:49:38  59376  51.3  100.0
 1  2   2016-09-16 03:44:08  59392  51.6  100.0
 1  2   2016-09-16 03:38:45  59744  52.0  100.0
 1  2   2016-09-16 03:33:26  59840  52.5  100.0
 1  2   2016-09-16 03:28:06  59840  52.5  100.0
 1  2   2016-09-16 03:22:48  0   0.0   0.0
 1  2   2016-09-16 03:17:30  59840  52.5  100.0
 1  2   2016-09-16 03:12:07  0   0.0   0.0
 1  2   2016-09-16 03:06:48  0   0.0   0.0
 1  2   2016-09-16 03:01:28  59664  52.6  100.0
 1  2   2016-09-16 02:56:06  59616  52.5  100.0
 1  2   2016-09-16 02:50:30  0   0.0   0.0
 1  2   2016-09-16 02:45:11  0   0.0   0.0
 1  2   2016-09-16 02:39:54  59568  52.3  100.0
 1  2   2016-09-16 02:34:34  0   0.0   0.0
 1  2   2016-09-16 02:29:14  59568  52.3  100.0
 1  2   2016-09-16 02:23:56  59664  52.2  100.0
 1  2   2016-09-16 02:18:36  59536  52.2  100.0
 1  2   2016-09-16 02:13:19  0   0.0   0.0
 1  2   2016-09-16 02:07:58  59312  52.0  100.0
 1  2   2016-09-16 02:02:39  59568  51.8  100.0
 1  2   2016-09-16 01:57:20  59568  51.8  100.0
 1  2   2016-09-16 01:52:01  59568  51.7  100.0
 1  2   2016-09-16 01:46:42  59568  51.7  100.0
 1  2   2016-09-16 01:41:23  59632  51.8  100.0
 1  2   2016-09-16 01:36:05  0   0.0   0.0
 1  2   2016-09-16 01:30:46  59632  51.8  100.0
 1  2   2016-09-16 01:25:26  59632  51.8  100.0
 1  2   2016-09-16 01:20:08  59568  51.7  100.0
 1  2   2016-09-16 01:14:48  59616  51.7  100.0
 1  2   2016-09-16 01:09:29  0   0.0   0.0
 1  2   2016-09-16 01:04:11  59664  52.8  100.0
 1  2   2016-09-16 00:58:53  0   0.0   0.0
 1  2   2016-09-16 00:53:35  59664  52.8  100.0
 1  2   2016-09-16 00:48:17  0   0.0   0.0
 1  2   2016-09-16 00:42:58  59664  52.8  100.0
 1  2   2016-09-16 00:37:40  0   0.0   0.0
 1  2   2016-09-16 00:32:22  59664  52.8  100.0
 1  2   2016-09-16 00:27:03  59664  52.8  100.0
 1  2   2016-09-16 00:21:45  59664  52.8  100.0
 1  2   2016-09-16 00:16:26  59664  52.8  100.0
 1  2   2016-09-16 00:11:08  59664  52.8  100.0
 1  2   2016-09-16 00:05:47  0   0.0   0.0
 1  2   2016-09-16 00:00:28  59664  52.8  100.0
 1  2   2016-09-15 23:55:08  59664  52.8  100.0
 1  2   2016-09-15 23:49:50  59568  52.3  100.0
 1  2   2016-09-15 23:44:29  59568  52.3  100.0
 1  2   2016-09-15 23:39:11  59568  52.3  100.0
 1  2   2016-09-15 23:33:54  59568  52.3  100.0
 1  2   2016-09-15 23:28:35  0   0.0   0.0
 1  2   2016-09-15 23:23:15  59568  52.3  100.0
 1  2   2016-09-15 23:17:54  59488  52.2  100.0
 1  2   2016-09-15 23:12:37  0   0.0   0.0
 1  2   2016-09-15 23:07:19  0   0.0   0.0
 1  2   2016-09-15 23:02:00  0   0.0   0.0
 1  2   2016-09-15 22:56:39  59440  52.0  100.0
 1  2   2016-09-15 22:51:21  59744  53.2  100.0
 1  2   2016-09-15 22:46:04  59744  53.2  100.0
 1  2   2016-09-15 22:40:46  0   0.0   0.0
 1  2   2016-09-15 22:35:27  59744  53.2  100.0
 1  2   2016-09-15 22:30:06  0   0.0   0.0
 1  2   2016-09-15 22:24:46  59744  53.2  100.0
 1  2   2016-09-15 22:19:28  59520  53.7  100.0
 1  2   2016-09-15 22:14:11  59520  53.7  100.0
 1  2   2016-09-15 22:08:52  59520  53.7  100.0
 1  2   2016-09-15 22:03:32  59520  53.7  100.0
 1  2   2016-09-15 21:58:14  59520  53.7  100.0
 1  2   2016-09-15 21:52:53  59520  53.7  100.0
 1  2   2016-09-15 21:47:36  59328  54.1  100.0
 1  2   2016-09-15 21:42:16  59328  54.1  100.0
 1  2   2016-09-15 21:36:55  59472  54.1  100.0
 1  2   2016-09-15 21:31:36  59552  54.9  100.0
 1  2   2016-09-15 21:26:17  0   0.0   0.0
 1  2   2016-09-15 21:20:56  59552  54.9  100.0
 1  2   2016-09-15 21:15:37  59552  54.9  100.0
 1  2   2016-09-15 21:10:19  59472  57.2  100.0
 1  2   2016-09-15 21:04:58  59472  57.2  100.0
 1  2   2016-09-15 20:59:39  59472  57.2  100.0
 1  2   2016-09-15 20:54:18  0   0.0   0.0
 1  2   2016-09-15 20:48:57  59472  57.2  100.0
 1  2   2016-09-15 20:43:39  59472  57.2  100.0
 1  2   2016-09-15 20:38:22  59472  57.2  100.0
 1  2   2016-09-15 20:33:01  0   0.0   0.0
 1  2   2016-09-15 20:27:43  59472  57.2  100.0
 1  2   2016-09-15 20:22:24  59472  57.2  100.0
 1  2   2016-09-15 20:17:07  59472  57.2  100.0
 1  2   2016-09-15 20:11:49  59472  57.2  100.0
 1  2   2016-09-15 20:06:28  59472  57.2  100.0
 1  2   2016-09-15 20:01:07  59472  57.2  100.0
 1  2   2016-09-15 19:55:49  59472  57.2  100.0
 1  2   2016-09-15 19:50:32  0   0.0   0.0
 1  2   2016-09-15 19:45:13  0   0.0   0.0
 1  2   2016-09-15 19:39:54  0   0.0   0.0
 1  2   2016-09-15 19:34:36  59472  57.2  100.0
 1  2   2016-09-15 19:29:18  59472  57.2  100.0
 1  2   2016-09-15 19:24:00  0   0.0   0.0
 1  2   2016-09-15 19:18:41  0   0.0   0.0
 1  2   2016-09-15 19:13:23  0   0.0   0.0
 1  2   2016-09-15 19:08:06  59472  57.2  100.0
 1  2   2016-09-15 19:02:45  59472  57.2  100.0
 1  2   2016-09-15 18:57:26  59472  57.2  100.0
 1  2   2016-09-15 18:52:06  59472  57.2  100.0
 1  2   2016-09-15 18:46:48  59472  57.2  100.0
 1  2   2016-09-15 18:41:30  59472  57.2  100.0
 1  2   2016-09-15 18:36:12  0   0.0   0.0
 1  2   2016-09-15 18:30:54  59472  57.2  100.0
 1  2   2016-09-15 18:25:33  59536  57.2  100.0
 1  2   2016-09-15 18:20:15  59568  57.8  100.0
 1  2   2016-09-15 18:14:56  59584  57.8  100.0
 1  2   2016-09-15 18:09:35  0   0.0   0.0
 1  2   2016-09-15 18:04:15  59424  58.1  100.0
 1  2   2016-09-15 17:58:57  59568  58.6  100.0
 1  2   2016-09-15 17:53:36  59568  58.6  100.0
 1  2   2016-09-15 17:48:17  0   0.0   0.0
 1  2   2016-09-15 17:42:57  0   0.0   0.0
 1  2   2016-09-15 17:37:38  59360  59.4  100.0
 1  2   2016-09-15 17:32:18  59360  59.4  100.0
 1  2   2016-09-15 17:26:58  59344  59.4  100.0
 1  2   2016-09-15 17:21:38  59296  59.6  100.0
 1  2   2016-09-15 17:16:18  59296  59.6  100.0
 1  2   2016-09-15 17:10:53  59296  59.6  100.0
 1  2   2016-09-15 17:05:31  59216  59.5  100.0
 1  2   2016-09-15 17:00:13  59216  59.5  100.0
 1  2   2016-09-15 16:54:46  59216  59.5  100.0
 1  2   2016-09-15 16:49:26  59248  59.5  100.0
 1  2   2016-09-15 16:44:07  59344  59.3  100.0
 1  2   2016-09-15 16:38:46  59360  59.3  100.0
 1  2   2016-09-15 16:33:26  59392  59.5  100.0
 1  2   2016-09-15 16:28:02  59392  59.5  100.0
 1  2   2016-09-15 16:22:02  59392  59.5  100.0
 1  2   2016-09-15 16:16:28  59328  59.5  100.0
 1  2   2016-09-15 16:11:02  59232  59.6  100.0
 1  2   2016-09-15 16:05:12  59232  59.6  100.0
 1  2   2016-09-15 15:59:45  59184  59.3  100.0
 1  2   2016-09-15 15:54:24  59184  59.3  100.0
 1  2   2016-09-15 15:49:04  59184  59.6  100.0
 1  2   2016-09-15 15:43:45  59184  59.6  100.0
 1  2   2016-09-15 15:38:24  59184  59.6  100.0
 1  2   2016-09-15 15:33:04  0   0.0   0.0
 1  2   2016-09-15 15:27:45  59184  59.6  100.0
 1  2   2016-09-15 15:22:24  0   0.0   0.0
 1  2   2016-09-15 15:17:05  59184  59.6  100.0
 1  2   2016-09-15 15:11:43  59168  59.6  100.0
 1  2   2016-09-15 15:06:22  59152  59.8  100.0
 1  2   2016-09-15 15:01:02  0   0.0   0.0
 1  2   2016-09-15 14:55:30  59120  59.8  100.0
 1  2   2016-09-15 14:49:59  59104  60.0  100.0
 1  2   2016-09-15 14:44:24  59120  59.6  100.0
 1  2   2016-09-15 14:38:54  59136  59.8  100.0
 1  2   2016-09-15 14:33:23  59168  59.7  100.0
 1  2   2016-09-15 14:27:51  59184  59.7  100.0
 1  2   2016-09-15 14:22:09  59136  59.7  100.0
 1  2   2016-09-15 14:16:32  59104  59.5  100.0
 1  2   2016-09-15 14:11:01  59136  59.6  100.0
 1  2   2016-09-15 14:05:33  59104  59.5  100.0
 1  2   2016-09-15 14:00:02  59152  59.5  100.0
 1  2   2016-09-15 13:54:33  59120  59.6  100.0
 1  2   2016-09-15 13:49:03  59168  59.1  100.0
 1  2   2016-09-15 13:43:34  59216  59.0  100.0
 1  2   2016-09-15 13:38:03  59168  58.4  100.0
 1  2   2016-09-15 13:32:33  59152  57.9  100.0
 1  2   2016-09-15 13:27:03  59184  57.5  100.0
 1  2   2016-09-15 13:21:32  59216  57.0  100.0
 1  2   2016-09-15 13:16:02  59168  56.6  100.0
 1  2   2016-09-15 13:10:33  59264  56.1  100.0
 1  2   2016-09-15 13:05:02  59328  56.2  100.0
 1  2   2016-09-15 12:59:32  59312  56.2  100.0
 1  2   2016-09-15 12:54:00  59264  55.8  100.0
 1  2   2016-09-15 12:48:05  59296  56.2  100.0
 1  2   2016-09-15 12:42:35  59360  56.2  100.0
 1  2   2016-09-15 12:37:06  59248  56.2  100.0
 1  2   2016-09-15 12:31:36  59376  56.2  100.0
 1  2   2016-09-15 12:26:07  59296  56.3  100.0
 1  2   2016-09-15 12:20:36  59376  56.4  100.0
 1  2   2016-09-15 12:15:06  59440  56.3  100.0
 1  2   2016-09-15 12:09:35  59328  56.2  100.0
 1  2   2016-09-15 12:04:04  59344  56.2  100.0
 1  2   2016-09-15 11:58:34  59344  56.0  100.0
 1  2   2016-09-15 11:53:06  59424  55.9  100.0
 1  2   2016-09-15 11:47:35  59328  55.9  100.0
 1  2   2016-09-15 11:42:04  59328  55.7  100.0
 1  2   2016-09-15 11:36:32  59392  55.6  100.0
 1  2   2016-09-15 11:31:04  59392  55.7  100.0
 1  2   2016-09-15 11:25:34  59408  55.5  100.0
 1  2   2016-09-15 11:19:57  59360  55.6  100.0
 1  2   2016-09-15 11:14:28  59376  55.5  100.0
 1  2   2016-09-15 11:08:57  59360  55.5  100.0
 1  2   2016-09-15 11:03:26  59376  55.3  100.0
 1  2   2016-09-15 10:57:53  59328  55.2  100.0
 1  2   2016-09-15 10:52:16  59360  55.1  100.0
 1  2   2016-09-15 10:46:45  59200  55.0  100.0
 1  2   2016-09-15 10:41:13  59360  54.8  100.0
 1  2   2016-09-15 10:35:39  59344  54.7  100.0
 1  2   2016-09-15 10:29:56  59408  54.6  100.0
 1  2   2016-09-15 10:24:26  59344  54.3  100.0
 1  2   2016-09-15 10:18:55  59360  54.0  100.0
 1  2   2016-09-15 10:13:24  59424  53.6  100.0
 1  2   2016-09-15 10:07:17  59440  53.2  100.0
 1  2   2016-09-15 10:01:42  59424  52.7  100.0
 1  2   2016-09-15 09:56:12  59504  52.3  100.0
 1  2   2016-09-15 09:50:30  59472  51.6  100.0
 1  2   2016-09-15 09:44:53  59808  51.6  100.0
 1  2   2016-09-14 14:26:40  59584  65.8  100.0
 1  2   2016-09-14 14:20:40  0   0.0   0.0
 1  2   2016-09-14 14:15:19  59584  65.8  100.0
 1  2   2016-09-14 14:09:59  59584  65.8  100.0
 1  2   2016-09-14 14:04:35  59584  65.8  100.0
 1  2   2016-09-14 13:56:51  59456  65.8  100.0
 1  2   2016-09-14 13:51:07  59280  65.8  100.0
 1  2   2016-09-14 13:45:46  0   0.0   0.0
 1  2   2016-09-14 13:40:24  0   0.0   0.0
 1  2   2016-09-14 13:34:07  59440  65.9  100.0
 1  2   2016-09-14 13:28:07  59440  65.9  100.0
 1  2   2016-09-14 13:22:46  59440  65.9  100.0
 1  2   2016-09-14 13:17:24  59424  65.9  100.0
 1  2   2016-09-14 13:11:08  59392  65.9  100.0
 1  2   2016-09-14 13:04:59  0   0.0   0.0
 1  2   2016-09-14 12:59:40  59504  66.3  100.0
 1  2   2016-09-14 12:54:11  59456  66.3  100.0
 1  2   2016-09-14 12:48:51  59392  66.5  100.0
 1  2   2016-09-14 12:43:27  59344  66.7  100.0
 1  2   2016-09-14 12:37:52  59616  66.7  100.0
 1  2   2016-09-14 12:32:03  59584  66.6  100.0
 1  2   2016-09-14 12:26:34  59472  66.4  100.0
 1  2   2016-09-14 12:21:03  59488  66.2  100.0
 1  2   2016-09-14 12:15:29  59552  66.1  100.0
 1  2   2016-09-14 12:09:45  59520  66.1  100.0
 1  2   2016-09-14 12:04:10  59424  66.0  100.0
 1  2   2016-09-14 11:58:38  59424  65.6  100.0
 1  2   2016-09-14 11:53:08  59440  65.0  100.0
 1  2   2016-09-14 11:47:39  59344  64.7  100.0
 1  2   2016-09-14 11:41:52  59520  64.5  100.0
 1  2   2016-09-14 11:36:13  59424  64.5  100.0
 1  2   2016-09-14 11:30:44  59392  64.7  100.0
 1  2   2016-09-14 11:25:14  59376  64.7  100.0
 1  2   2016-09-14 11:19:45  59264  64.6  100.0
 1  2   2016-09-14 11:14:06  59328  64.2  100.0
 1  2   2016-09-14 11:08:37  59280  63.7  100.0
 1  2   2016-09-14 11:03:02  59328  63.0  100.0
 1  2   2016-09-14 10:56:59  59232  62.3  100.0
 1  2   2016-09-14 10:51:26  59200  62.2  100.0
 1  2   2016-09-14 10:45:36  59168  61.9  100.0
 1  2   2016-09-14 10:39:57  59200  61.7  100.0
 1  2   2016-09-14 10:34:28  59152  61.3  100.0
 1  2   2016-09-14 10:28:51  59152  60.5  100.0
 1  2   2016-09-14 10:23:21  59184  59.8  100.0
 1  2   2016-09-14 10:17:49  59168  59.0  100.0
 1  2   2016-09-14 10:12:20  59184  58.8  100.0
 1  2   2016-09-14 10:06:48  59200  58.8  100.0
 1  2   2016-09-14 10:01:19  59200  58.9  100.0
 1  2   2016-09-14 09:55:49  59216  58.9  100.0
 1  2   2016-09-14 09:50:19  59216  58.9  100.0
 1  2   2016-09-14 09:44:50  59216  58.7  100.0
 1  2   2016-09-14 09:39:20  59216  58.6  100.0
 1  2   2016-09-14 09:33:50  59216  58.7  100.0
 1  2   2016-09-14 09:28:21  59216  58.7  100.0
 1  2   2016-09-14 09:22:51  59232  58.7  100.0
 1  2   2016-09-14 09:17:23  59200  58.2  100.0
 1  2   2016-09-14 09:11:53  59200  57.2  100.0
 1  2   2016-09-14 09:06:23  59216  56.8  100.0
 1  2   2016-09-14 09:00:54  59312  56.1  100.0
 1  2   2016-09-14 08:55:24  59280  55.4  100.0
 1  2   2016-09-14 08:49:55  59296  54.8  100.0
 1  2   2016-09-14 08:44:25  59360  54.0  100.0
 1  2   2016-09-14 08:38:55  59360  53.4  100.0
 1  2   2016-09-14 08:33:25  59440  52.7  100.0
 1  2   2016-09-14 08:27:56  59392  51.9  100.0
 1  2   2016-09-14 08:22:26  59488  51.3  100.0
 1  2   2016-09-14 08:16:58  59488  50.4  100.0
 1  2   2016-09-14 08:11:27  59424  49.8  100.0
 1  2   2016-09-14 08:05:58  59536  49.0  100.0
 1  2   2016-09-14 08:00:28  59488  48.6  100.0
 1  2   2016-09-14 07:54:58  59440  48.1  100.0
 1  2   2016-09-14 07:49:29  59520  47.3  100.0
 1  2   2016-09-14 07:44:02  59696  47.0  100.0
 1  2   2016-09-14 03:47:41  59808  51.2  100.0
 1  2   2016-09-14 03:42:24  59632  51.2  100.0
 1  2   2016-09-14 03:37:08  59664  51.4  100.0
 1  2   2016-09-14 03:31:51  59520  51.4  100.0
 1  2   2016-09-14 03:26:36  59472  52.6  100.0
 1  2   2016-09-14 03:21:20  59472  52.6  100.0
 1  2   2016-09-14 03:16:04  0   0.0   0.0
 1  2   2016-09-14 03:10:48  0   0.0   0.0
 1  2   2016-09-14 03:05:32  0   0.0   0.0
 1  2   2016-09-14 03:00:15  59472  52.6  100.0
 1  2   2016-09-14 02:54:58  59472  52.6  100.0
 1  2   2016-09-14 02:49:41  59616  52.9  100.0
 1  2   2016-09-14 02:44:25  59584  53.1  100.0
 1  2   2016-09-14 02:39:09  59680  53.1  100.0
 1  2   2016-09-14 02:33:53  59568  53.1  100.0
 1  2   2016-09-14 02:28:36  59712  52.9  100.0
 1  2   2016-09-14 02:23:18  59616  52.8  100.0
 1  2   2016-09-14 02:17:59  59584  52.8  100.0
 1  2   2016-09-14 02:12:44  59584  52.8  100.0
 1  2   2016-09-14 02:07:28  59648  52.8  100.0
 1  2   2016-09-14 02:02:10  59728  53.2  100.0
 1  2   2016-09-14 01:56:54  0   0.0   0.0
 1  2   2016-09-14 01:51:38  59728  53.2  100.0
 1  2   2016-09-14 01:46:23  59552  53.3  100.0
 1  2   2016-09-14 01:41:07  59552  53.3  100.0
 1  2   2016-09-14 01:35:51  59552  53.3  100.0
 1  2   2016-09-14 01:30:34  59552  53.3  100.0
 1  2   2016-09-14 01:25:17  0   0.0   0.0
 1  2   2016-09-14 01:20:02  59712  53.4  100.0
 1  2   2016-09-14 01:14:45  59568  53.1  100.0
 1  2   2016-09-14 01:09:29  0   0.0   0.0
 1  2   2016-09-14 01:04:13  59568  53.1  100.0
 1  2   2016-09-14 00:58:57  59568  53.1  100.0
 1  2   2016-09-14 00:53:41  59568  53.1  100.0
 1  2   2016-09-14 00:48:25  59632  53.5  100.0
 1  2   2016-09-14 00:43:09  59632  53.5  100.0
 1  2   2016-09-14 00:37:53  59632  53.5  100.0
 1  2   2016-09-14 00:32:35  59632  53.5  100.0
 1  2   2016-09-14 00:27:20  0   0.0   0.0
 1  2   2016-09-14 00:22:03  59568  53.5  100.0
 1  2   2016-09-14 00:16:45  59552  53.5  100.0
 1  2   2016-09-14 00:11:29  59616  53.4  100.0
 1  2   2016-09-14 00:06:12  59680  53.4  100.0
 1  2   2016-09-14 00:00:56  59392  53.6  100.0
 1  2   2016-09-13 23:55:40  59840  53.6  100.0
 1  2   2016-09-13 23:50:24  0   0.0   0.0
 1  2   2016-09-13 23:45:07  59840  53.6  100.0
 1  2   2016-09-13 23:39:50  59456  54.5  100.0
 1  2   2016-09-13 23:34:34  59456  54.5  100.0
 1  2   2016-09-13 23:29:18  59456  54.5  100.0
 1  2   2016-09-13 23:24:02  59456  54.5  100.0
 1  2   2016-09-13 23:18:46  0   0.0   0.0
 1  2   2016-09-13 23:13:30  0   0.0   0.0
 1  2   2016-09-13 23:08:14  59456  54.5  100.0
 1  2   2016-09-13 23:02:58  59456  54.5  100.0
 1  2   2016-09-13 22:57:41  0   0.0   0.0
 1  2   2016-09-13 22:52:25  0   0.0   0.0
 1  2   2016-09-13 22:47:09  59776  54.5  100.0
 1  2   2016-09-13 22:41:53  59776  54.5  100.0
 1  2   2016-09-13 22:36:37  59776  54.5  100.0
 1  2   2016-09-13 22:31:19  59776  54.5  100.0
 1  2   2016-09-13 22:26:03  59840  54.6  100.0
 1  2   2016-09-13 22:20:46  59664  54.7  100.0
 1  2   2016-09-13 22:15:30  59632  54.9  100.0
 1  2   2016-09-13 22:10:13  59632  54.9  100.0
 1  2   2016-09-13 22:04:57  0   0.0   0.0
 1  2   2016-09-13 21:59:42  59568  55.0  100.0
 1  2   2016-09-13 21:54:25  59568  55.0  100.0
 1  2   2016-09-13 21:49:09  59568  55.0  100.0
 1  2   2016-09-13 21:43:53  59568  56.0  100.0
 1  2   2016-09-13 21:38:37  59568  56.0  100.0
 1  2   2016-09-13 21:33:21  0   0.0   0.0
 1  2   2016-09-13 21:28:05  59568  56.0  100.0
 1  2   2016-09-13 21:22:48  59568  56.0  100.0
 1  2   2016-09-13 21:17:32  59664  56.4  100.0
 1  2   2016-09-13 21:12:15  59712  56.4  100.0
 1  2   2016-09-13 21:06:59  59776  56.5  100.0
 1  2   2016-09-13 21:01:42  59776  56.5  100.0
 1  2   2016-09-13 20:56:25  59568  57.1  100.0
 1  2   2016-09-13 20:51:09  59584  57.1  100.0
 1  2   2016-09-13 20:45:54  59600  58.9  100.0
 1  2   2016-09-13 20:40:38  59600  58.9  100.0
 1  2   2016-09-13 20:35:21  59600  58.9  100.0
 1  2   2016-09-13 20:30:04  59632  58.6  100.0
 1  2   2016-09-13 20:24:49  59632  58.6  100.0
 1  2   2016-09-13 20:19:32  59648  58.2  100.0
 1  2   2016-09-13 20:14:15  59648  58.2  100.0
 1  2   2016-09-13 20:08:59  59664  58.2  100.0
 1  2   2016-09-13 20:03:44  59680  58.5  100.0
 1  2   2016-09-13 19:58:27  59680  58.5  100.0
 1  2   2016-09-13 19:53:10  59680  58.5  100.0
 1  2   2016-09-13 19:47:54  59584  59.1  100.0
 1  2   2016-09-13 19:42:37  59632  59.5  100.0
 1  2   2016-09-13 19:37:21  59472  60.1  100.0
 1  2   2016-09-13 19:32:04  59584  60.1  100.0
 1  2   2016-09-13 19:26:47  59696  60.3  100.0
 1  2   2016-09-13 19:21:30  59648  60.6  100.0
 1  2   2016-09-13 19:16:14  59648  60.9  100.0
 1  2   2016-09-13 19:10:58  59616  61.7  100.0
 1  2   2016-09-13 19:05:42  59616  61.7  100.0
 1  2   2016-09-13 19:00:24  59616  61.7  100.0
 1  2   2016-09-13 18:55:07  59664  62.7  100.0
 1  2   2016-09-13 18:49:51  0   0.0   0.0
 1  2   2016-09-13 18:44:36  0   0.0   0.0
 1  2   2016-09-13 18:39:19  59664  62.7  100.0
 1  2   2016-09-13 18:34:02  59696  62.7  100.0
 1  2   2016-09-13 18:28:44  59728  62.9  100.0
 1  2   2016-09-13 18:23:28  59760  63.0  100.0
 1  2   2016-09-13 18:18:10  59760  63.1  100.0
 1  2   2016-09-13 18:12:55  59568  63.4  100.0
 1  2   2016-09-13 18:07:39  59568  63.4  100.0
 1  2   2016-09-13 18:02:21  59744  63.3  100.0
 1  2   2016-09-13 17:57:05  59744  63.3  100.0
 1  2   2016-09-13 17:51:49  59744  63.3  100.0
 1  2   2016-09-13 17:46:32  59696  63.3  100.0
 1  2   2016-09-13 17:41:15  0   0.0   0.0
 1  2   2016-09-13 17:35:55  59648  63.4  100.0
 1  2   2016-09-13 17:30:36  60000  63.5  100.0
 1  2   2016-09-13 17:25:19  59792  63.5  100.0
 1  2   2016-09-13 17:20:03  0   0.0   0.0
 1  2   2016-09-13 17:14:45  59776  63.6  100.0
 1  2   2016-09-13 17:09:28  59760  63.7  100.0
 1  2   2016-09-13 17:04:11  59792  63.8  100.0
 1  2   2016-09-13 16:58:43  59776  63.8  100.0
 1  2   2016-09-13 16:53:08  59776  63.9  100.0
 1  2   2016-09-13 16:47:52  59776  63.9  100.0
 1  2   2016-09-13 16:42:35  59776  63.9  100.0
 1  2   2016-09-13 16:37:19  59744  64.0  100.0
 1  2   2016-09-13 16:31:51  59760  64.0  100.0
 1  2   2016-09-13 16:26:31  59808  64.0  100.0
 1  2   2016-09-13 16:21:11  59776  64.0  100.0
 1  2   2016-09-13 16:15:54  0   0.0   0.0
 1  2   2016-09-13 16:10:37  59744  64.2  100.0
 1  2   2016-09-13 16:05:19  59760  64.2  100.0
 1  2   2016-09-13 15:58:55  59984  64.5  100.0
 1  2   2016-09-13 15:53:37  59984  64.5  100.0
 1  2   2016-09-13 15:48:21  59984  64.5  100.0
 1  2   2016-09-13 15:43:06  0   0.0   0.0
 1  2   2016-09-13 15:37:50  59984  64.5  100.0
 1  2   2016-09-13 15:32:29  59984  64.5  100.0
 1  2   2016-09-13 15:27:10  59728  64.5  100.0
 1  2   2016-09-13 15:20:47  0   0.0   0.0
 1  2   2016-09-13 15:15:13  0   0.0   0.0
 1  2   2016-09-13 15:09:48  59680  64.9  100.0
 1  2   2016-09-13 15:04:30  59680  64.9  100.0
 1  2   2016-09-13 14:59:13  59776  65.0  100.0
 1  2   2016-09-13 14:53:56  59888  65.1  100.0
 1  2   2016-09-13 14:48:40  60176  65.3  100.0
 1  2   2016-09-13 14:43:23  60176  65.3  100.0
 1  2   2016-09-13 14:38:05  60176  65.3  100.0
 1  2   2016-09-13 14:32:45  59904  65.3  100.0
 1  2   2016-09-13 14:27:17  59728  65.5  100.0
 1  2   2016-09-13 14:06:25  59488  65.4  100.0
 1  2   2016-09-13 13:55:24  0   0.0   0.0
 1  2   2016-09-13 13:50:04  59488  65.4  100.0
 1  2   2016-09-13 13:44:44  60096  65.1  100.0
 1  2   2016-09-13 13:39:16  60096  65.1  100.0
 1  2   2016-09-13 13:33:55  60048  65.0  100.0
 1  2   2016-09-13 13:28:34  60000  65.9  100.0
 1  2   2016-09-13 13:23:08  0   0.0   0.0
 1  2   2016-09-13 13:17:50  60000  65.9  100.0
 1  2   2016-09-13 13:12:20  0   0.0   0.0
 1  2   2016-09-13 13:06:29  59968  65.9  100.0
 1  2   2016-09-13 13:00:23  59760  65.9  100.0
 1  2   2016-09-13 12:55:02  59696  65.8  100.0
 1  2   2016-09-13 12:49:33  59968  65.8  100.0
 1  2   2016-09-13 12:44:15  59760  64.8  100.0
 1  2   2016-09-13 12:38:02  59760  64.8  100.0
 1  2   2016-09-13 12:32:40  59760  64.8  100.0
 1  2   2016-09-13 12:27:20  59760  64.8  100.0
 1  2   2016-09-13 12:21:54  59760  64.8  100.0
 1  2   2016-09-13 12:16:34  0   0.0   0.0
 1  2   2016-09-13 12:11:15  59760  64.8  100.0
 1  2   2016-09-13 12:05:54  59760  64.8  100.0
 1  2   2016-09-13 12:00:35  59456  63.1  100.0
 1  2   2016-09-13 11:53:21  59456  63.1  100.0
 1  2   2016-09-13 11:47:51  59456  63.1  100.0
 1  2   2016-09-13 11:42:30  0   0.0   0.0
 1  2   2016-09-13 11:37:10  59456  63.1  100.0
 1  2   2016-09-13 11:31:44  59456  63.1  100.0
 1  2   2016-09-13 11:26:23  0   0.0   0.0
 1  2   2016-09-13 11:21:03  59360  63.1  100.0
 1  2   2016-09-13 11:15:43  0   0.0   0.0
 1  2   2016-09-13 11:10:17  59424  63.0  100.0
 1  2   2016-09-13 11:04:49  59616  62.3  100.0
 1  2   2016-09-13 10:59:27  59456  62.3  100.0
 1  2   2016-09-13 10:54:06  59296  62.1  100.0
 1  2   2016-09-13 10:48:45  59296  62.1  100.0
 1  2   2016-09-13 10:43:25  59424  61.8  100.0
 1  2   2016-09-13 10:38:04  59168  60.7  100.0
 1  2   2016-09-13 10:32:43  59248  60.7  100.0
 1  2   2016-09-13 10:27:22  59440  59.2  100.0
 1  2   2016-09-13 10:22:05  0   0.0   0.0
 1  2   2016-09-13 10:16:45  59440  59.2  100.0
 1  2   2016-09-13 10:11:22  59440  59.2  100.0
 1  2   2016-09-13 10:06:03  59440  59.2  100.0
 1  2   2016-09-13 10:00:43  59440  58.7  100.0
 1  2   2016-09-13 09:55:21  59440  58.7  100.0
 1  2   2016-09-13 09:49:52  59440  58.5  100.0
 1  2   2016-09-13 09:44:23  59504  58.6  100.0
 1  2   2016-09-13 09:38:42  59488  58.6  100.0
 1  2   2016-09-13 09:33:08  59520  58.4  100.0
 1  2   2016-09-13 09:27:38  59456  58.6  100.0
 1  2   2016-09-13 09:21:58  59408  58.8  100.0
 1  2   2016-09-13 09:16:28  59472  58.9  100.0
 1  2   2016-09-13 09:10:36  59440  57.7  100.0
 1  2   2016-09-13 09:04:56  59504  56.8  100.0
 1  2   2016-09-13 08:59:26  59536   0.0   0.0
 1  2   2016-09-13 08:53:57  59584   0.0   0.0
 1  2   2016-09-13 08:48:27  59584   0.0   0.0
 1  2   2016-09-13 08:42:59  59616   0.0   0.0
 1  2   2016-09-13 08:37:27  59648   0.0   0.0
 1  2   2016-09-13 08:31:42  59664   0.0   0.0
 1  2   2016-09-13 08:25:51  59648   0.0   0.0
 1  2   2016-09-13 08:20:20  59744   0.0   0.0
 1  2   2016-09-13 08:14:42  59712   0.0   0.0
 1  2   2016-09-13 08:09:12  59648   0.0   0.0
 1  2   2016-09-13 08:03:43  59696   0.0   0.0
 1  2   2016-09-13 07:58:10  59728   0.0   0.0
 1  2   2016-09-13 07:52:41  59728   0.0   0.0
 1  2   2016-09-13 07:47:11  59760   0.0   0.0
 1  2   2016-09-13 07:41:42  59808   0.0   0.0
 1  2   2016-09-13 07:36:15  60288   0.0   0.0
 1  2   2016-09-12 04:30:52  60096   0.0   0.0
 1  2   2016-09-12 04:25:37  59952   0.0   0.0
 1  2   2016-09-12 04:20:19  60112   0.0   0.0
 1  2   2016-09-12 04:15:03  0   0.0   0.0
 1  2   2016-09-12 04:09:46  60240   0.0   0.0
 1  2   2016-09-12 04:04:30  60240   0.0   0.0
 1  2   2016-09-12 03:59:14  60240   0.0   0.0
 1  2   2016-09-12 03:53:57  60240   0.0   0.0
 1  2   2016-09-12 03:48:41  60272   0.0   0.0
 1  2   2016-09-12 03:43:24  60272   0.0   0.0
 1  2   2016-09-12 03:38:09  60272   0.0   0.0
 1  2   2016-09-12 03:32:52  60272   0.0   0.0
 1  2   2016-09-12 03:27:36  60272   0.0   0.0
 1  2   2016-09-12 03:22:19